[[[{"header":{"parameterUnit":"kt","parameterCategory":2,"dx":1,"dy":1,"la1":29.587661999999998,"la2":31.0,"lo1":-88.76705300000003,"lo2":-86.6583820000003,"nx":115,"ny":88,"refTime":"2022-09-27T06:00:00:Z","depth":0,"parameterNumber":1,"parameterNumberName":"U-component_of_WINDS"},"data":[16.0963,16.0963,16.0963,16.1508,16.2306,16.2364,16.2983,16.3856,16.3856,16.4109,16.4167,16.4167,16.3972,16.3856,16.2771,16.2364,16.2285,16.174,16.1137,16.0963,16.1159,16.1079,16.0963,16.0963,16.0963,16.0963,16.0963,16.0963,16.0963,16.0963,16.0963,16.0963,16.0963,16.0963,16.0963,16.0963,16.0963,16.0963,16.0963,16.0963,16.0963,16.0963,16.0963,16.0963,16.0963,16.0963,16.0963,16.0963,16.0963,16.0963,16.0963,16.0963,16.0963,16.0963,16.0963,16.0963,16.0963,16.0963,16.0963,16.0963,16.0963,16.0963,16.0963,16.0963,16.0963,16.0963,16.0963,16.0963,16.0963,16.0963,16.0963,16.0963,16.0963,16.0963,16.0963,16.0963,16.0963,16.0963,16.0963,16.0963,16.0963,16.0963,16.0963,16.0963,16.0963,16.0963,16.0963,16.0963,16.0963,16.0963,16.0963,16.0963,16.0963,16.0963,16.0963,16.0963,16.0963,16.0963,16.0963,16.0963,16.0963,16.0963,16.0963,16.0963,16.0963,16.0963,16.0963,16.0963,16.0963,16.0963,16.0963,16.0963,16.0963,16.0963,16.0963,16.0963,16.0963,16.0963,16.1079,16.1196,16.1159,16.1333,16.1545,16.1486,16.1994,16.2771,16.1973,16.145,16.1391,16.1159,16.1159,16.1137,16.1021,16.1021,16.0963,16.0963,16.0963,16.0963,16.0963,16.0963,16.0963,16.0963,16.0963,16.0963,16.0963,16.0963,16.0963,16.0963,16.0963,16.0963,16.0963,16.0963,16.0963,16.0963,16.0963,16.0963,16.0963,16.0963,16.0963,16.0963,16.0963,16.0963,16.0963,16.0963,16.0963,16.0963,16.0963,16.0963,16.0963,16.0963,16.0963,16.0963,16.0963,16.0963,16.0963,16.0963,16.0963,16.0963,16.0963,16.0963,16.0963,16.0963,16.0963,16.0963,16.0963,16.0963,16.0963,16.0963,16.0963,16.0963,16.0963,16.0963,16.0963,16.0963,16.0963,16.0963,16.0963,16.0963,16.0963,16.0963,16.0963,16.0963,16.0963,16.0963,16.0963,16.0963,16.0963,16.0963,16.0963,16.0963,16.0963,16.0963,16.0963,16.0963,16.0963,16.0963,16.0963,16.0963,16.0963,16.0963,16.0963,16.0963,16.0963,16.0963,16.0963,16.0963,16.0963,16.0963,16.0963,16.0963,16.0963,16.0963,16.0963,16.0963,16.0963,16.0963,16.0963,16.0963,16.0963,16.1217,16.1566,16.1217,16.0963,16.0963,16.0963,16.1021,16.1021,16.0963,16.0963,16.0963,16.0963,16.0963,16.0963,16.0963,16.0963,16.0963,16.0963,16.0963,16.0963,16.0963,16.0963,16.0963,16.0963,16.0963,16.0963,16.0963,16.0963,16.0963,16.0963,16.0963,16.0963,16.0963,16.0963,16.0963,16.0963,16.0963,16.0963,16.0963,16.0963,16.0963,16.0963,16.0963,16.0963,16.0963,16.0963,16.0963,16.0963,16.0963,16.0963,16.0963,16.0963,16.0963,16.0963,16.0963,16.0963,16.0963,16.0963,16.0963,16.0963,16.0963,16.0963,16.0963,16.0963,16.0963,16.0963,16.0963,16.0963,16.0963,16.0963,16.0963,16.0963,16.0963,16.0963,16.0963,16.0963,16.0963,16.0963,16.0963,16.0963,16.0963,16.0963,16.0963,16.0963,16.0963,16.0963,16.0963,16.0963,16.0963,16.0963,16.0963,16.0963,16.0963,16.0963,16.0963,16.0963,16.0963,16.0963,16.0963,16.0963,16.0963,16.0963,16.0963,16.0963,16.0963,16.0963,16.0963,16.0963,16.0963,16.0963,16.0963,16.0963,16.0963,16.0963,16.0963,16.0963,16.0963,16.0963,16.0963,16.0963,16.0963,16.0963,16.0963,16.0963,16.0963,16.0963,16.0963,16.0963,16.0963,16.0963,16.0963,16.0963,16.0963,16.0963,16.0963,16.0963,16.0963,16.0963,16.0963,16.0963,16.0963,16.0963,16.0963,16.0963,16.0963,16.0963,16.0963,16.0963,16.0963,16.0963,16.0963,16.0963,16.0963,16.0963,16.0963,16.0963,16.0963,16.0963,16.0963,16.0963,16.0963,16.0963,16.0963,16.0963,16.0963,16.0963,16.0963,16.0963,16.0963,16.0963,16.0963,16.0963,16.0963,16.0963,16.0963,16.0963,16.0963,16.0963,16.0963,16.0963,16.0963,16.0963,16.0963,16.0963,16.0963,16.0963,16.0963,16.0963,16.0963,16.0963,16.0963,16.0963,16.0963,16.0963,16.0963,16.0963,16.0963,16.0963,16.0963,16.0963,16.0963,16.0963,16.0963,16.0963,16.0963,16.0963,16.0963,16.0963,16.0963,16.0963,16.0963,16.0963,16.0963,16.0963,16.0963,16.0963,16.0963,16.0963,16.0963,16.0963,16.0963,16.0963,16.0963,16.0963,16.0963,16.0963,16.0963,16.0963,16.0963,16.0963,16.0963,16.0963,16.0963,16.0963,16.0963,16.0963,16.0963,16.0963,16.0963,16.0963,16.0963,16.0963,16.0963,16.0963,16.0963,16.0963,16.0963,16.0963,16.0963,16.0963,16.0963,16.0963,16.0963,16.0963,16.0963,16.0963,16.0963,16.0963,16.0963,16.0963,16.0963,16.0963,16.0963,16.0963,16.0963,16.0963,16.0963,16.0963,16.0963,16.0963,16.0963,16.0963,16.0963,16.0963,16.0963,16.0963,16.0963,16.0963,16.0963,16.0963,16.0963,16.0963,16.0963,16.0963,16.0963,16.0963,16.0963,16.0963,16.0963,16.0963,16.0963,16.0963,16.0963,16.0963,16.0963,16.0963,16.0963,16.0963,16.0963,16.0963,16.0963,16.0963,16.0963,16.0963,16.0963,16.0963,16.0963,16.0963,16.0963,16.0963,16.0963,16.0963,16.0963,16.0963,16.0963,16.0963,16.0963,16.0963,16.0963,16.0963,16.0963,16.0963,16.0963,16.0963,16.0963,16.0963,16.0963,16.0963,16.0963,16.0963,16.0963,16.0963,16.0963,16.0963,16.0963,16.0963,16.0963,16.0963,16.0963,16.0963,16.0963,16.0963,16.0963,16.0963,16.0963,16.0963,16.0963,16.0963,16.0963,16.0963,16.0963,16.0963,16.0963,16.0963,16.0963,16.0963,16.0963,16.0963,16.0963,16.0963,16.0963,16.0963,16.0963,16.0963,16.0963,16.0963,16.0963,16.0963,16.0963,16.0963,16.0963,16.0963,16.0963,16.0963,16.0963,16.0963,16.0963,16.0963,16.0963,16.0963,16.0963,16.0963,16.0963,16.0963,16.0963,16.0963,16.0963,16.0963,16.0963,16.0963,16.0963,16.0963,16.0963,16.0963,16.0963,16.0963,16.0963,16.0963,16.0963,16.0963,16.0963,16.0963,16.0963,16.0963,16.0963,16.0963,16.0963,16.0963,16.0963,16.0963,16.0963,16.0963,16.0963,16.0963,16.0963,16.0963,16.0963,16.0963,16.0963,16.0963,16.0963,16.0963,16.0963,16.0963,16.0963,16.0963,16.0963,16.0963,16.0963,16.0963,16.0963,16.0963,16.0963,16.0963,16.0963,16.0963,16.0963,16.0963,16.0963,16.0963,16.0963,16.0963,16.0963,16.0963,16.0963,16.0963,16.0963,16.0963,16.0963,16.0963,16.0963,16.0963,16.0963,16.0963,16.0963,16.0963,16.0963,16.0963,16.0963,16.0963,16.0963,16.0963,16.0963,16.0963,16.0963,16.0963,16.0963,16.0963,16.0963,16.0963,16.0963,16.0963,16.0963,16.0963,16.0963,16.0963,16.0963,16.0963,16.0963,16.0963,16.0963,16.0963,16.0963,16.0963,16.0963,16.0963,16.0963,16.0963,16.0963,16.0963,16.0963,16.0963,16.0963,16.0963,16.0963,16.0963,16.0963,16.0963,16.0963,16.0963,16.0963,16.0963,16.0963,16.0963,16.0963,16.0963,16.0963,16.0963,16.0963,16.0963,16.0963,16.0963,16.0963,16.0963,16.0963,16.0963,16.0963,16.0963,16.0963,16.0963,16.0963,16.0963,16.0963,16.0963,16.0963,16.0963,16.0963,16.0963,16.0963,16.0963,16.0963,16.0963,16.0963,16.0963,16.0963,16.0963,16.0963,16.0963,16.0963,16.0963,16.0963,16.0963,16.0963,16.0963,16.0963,16.0963,16.0963,16.0963,16.0963,16.0963,16.0963,16.0963,16.0963,16.0963,16.0963,16.0963,16.0963,16.0963,16.0963,16.0963,16.0963,16.0963,16.0963,16.0963,16.0963,16.0963,16.0963,16.0963,16.0963,16.0963,16.0963,16.0963,16.0963,16.0963,16.0963,16.0963,16.0963,16.0963,16.0963,16.0963,16.0963,16.0963,16.0963,16.0963,16.0963,16.0963,16.0963,16.0963,16.0963,16.0963,16.0963,16.0963,16.0963,16.0963,16.0963,16.0963,16.0963,16.0963,16.0963,16.0963,16.0963,16.0963,16.0963,16.0963,16.0963,16.0963,16.0963,16.0963,16.0963,16.0963,16.0963,16.0963,16.0963,16.0963,16.0963,16.0963,16.0963,16.0963,16.0963,16.0963,16.0963,16.0963,16.0963,16.0963,16.0963,16.0963,16.0963,16.0963,16.0963,16.0963,16.0963,16.0963,16.0963,16.0963,16.0963,16.0963,16.0963,16.0963,16.0963,16.0963,16.0963,16.0963,16.0963,16.0963,16.0963,16.0963,16.0963,16.0963,16.0963,16.0963,16.0963,16.0963,16.0963,16.0963,16.0963,16.0963,16.0963,16.0963,16.0963,16.0963,16.0963,16.0963,16.0963,16.0963,16.0963,16.0963,16.0963,16.0963,16.0963,16.0963,16.0963,16.0963,16.0963,16.0963,16.0963,16.0963,16.0963,16.0963,16.0963,16.0963,16.0963,16.0963,16.0963,16.0963,16.0963,16.0963,16.0963,16.0963,16.0963,16.0963,16.0963,16.0963,16.0963,16.0963,16.0963,16.0963,16.0963,16.0963,16.0963,16.0963,16.0963,16.0963,16.0963,16.0963,16.0963,16.0963,16.0963,16.0963,16.0963,16.0963,16.0963,16.0963,16.0963,16.0963,16.0963,16.0963,16.0963,16.0963,16.0963,16.0963,16.0963,16.0963,16.0963,16.0963,16.0963,16.0963,16.0963,16.0963,16.0963,16.0963,16.0963,16.0963,16.0963,16.0963,16.0963,16.0963,16.0963,16.0963,16.0963,16.0963,16.0963,16.0963,16.0963,16.0963,16.0963,16.0963,16.0963,16.0963,16.0963,16.0963,16.0963,16.0963,16.0963,16.0963,16.0963,16.0963,16.0963,16.0963,16.0963,16.0963,16.0963,16.0963,16.0963,16.0963,16.0963,16.0963,16.0963,16.0963,16.0963,16.0963,16.0963,16.0963,16.0963,16.0963,16.0963,16.0963,16.0963,16.0963,16.0963,16.0963,16.0963,16.0963,16.0963,16.0963,16.0963,16.0963,16.0963,16.0963,16.0963,16.0963,16.0963,16.0963,16.0963,16.0963,16.0963,16.0963,16.0963,16.0963,16.0963,16.0963,16.0963,16.0963,16.0963,16.0963,16.0963,16.0963,16.0963,16.0963,16.0963,16.0963,16.0963,16.0963,16.0963,16.0963,16.0963,16.0963,16.0963,16.0963,16.0963,16.0963,16.0963,16.0963,16.0963,16.0963,16.0963,16.0963,16.0963,16.0963,16.0963,16.0963,16.0963,16.0963,16.0963,16.0963,16.0963,16.0963,16.0963,16.0963,16.0963,16.0963,16.0963,16.0963,16.0963,16.0963,16.0963,16.0963,16.0963,16.0963,16.0963,16.0963,16.0963,16.0963,16.0963,16.0963,16.0963,16.0963,16.0963,16.0963,16.0963,16.0963,16.0963,16.0963,16.0963,16.0963,16.0963,16.0963,16.0963,16.0963,16.0963,16.0963,16.0963,16.0963,16.0963,16.0963,16.0963,16.0963,16.0963,16.0963,16.0963,16.0963,16.0963,16.0963,16.0963,16.0963,16.0963,16.0963,16.0963,16.0963,16.0963,16.0963,16.0963,16.0963,16.0963,16.0963,16.0963,16.0963,16.0963,16.0963,16.0963,16.0963,16.0963,16.0963,16.0963,16.0963,16.0963,16.0963,16.0963,16.0963,16.0963,16.0963,16.0905,16.0963,16.0963,16.0963,16.0963,16.0963,16.0963,16.0963,16.0963,16.0963,16.0963,16.0963,16.0963,16.0963,16.0963,16.0963,16.0963,16.0963,16.0963,16.0963,16.0963,16.0963,16.0963,16.0963,16.0963,16.0963,16.0963,16.0963,16.0963,16.0963,16.0963,16.0963,16.0963,16.0963,16.0963,16.0963,16.0963,16.0963,16.0963,16.0963,16.0963,16.0963,16.0963,16.0963,16.0963,16.0963,16.0963,16.0963,16.0963,16.0963,16.0963,16.0963,16.0963,16.0963,16.0963,16.0963,16.0963,16.0963,16.0963,16.0963,16.0963,16.0963,16.0963,16.0963,16.0963,16.0963,16.0963,16.0963,16.0963,16.0963,16.0963,16.0963,16.0963,16.0963,16.0963,16.0963,16.0963,16.0963,16.0963,16.0963,16.0963,16.0963,16.0963,16.0963,16.0963,16.0963,16.0963,16.0963,16.0963,16.0963,16.0963,16.0963,16.0963,16.0963,16.0963,16.0963,16.0963,16.0963,16.0963,16.0963,16.0963,16.0963,16.0963,16.0963,16.0963,16.0963,16.0963,16.0963,16.0963,16.0963,16.0963,16.0963,16.0963,16.0963,16.0905,16.0672,16.0963,16.0963,16.0963,16.0963,16.0963,16.0963,16.0963,16.0963,16.0963,16.0963,16.0963,16.0963,16.0963,16.0963,16.0963,16.0963,16.0963,16.0963,16.0963,16.0963,16.0963,16.0963,16.0963,16.0963,16.0963,16.0963,16.0963,16.0963,16.0963,16.0963,16.0963,16.0963,16.0963,16.0963,16.0963,16.0963,16.0963,16.0963,16.0963,16.0963,16.0963,16.0963,16.0963,16.0963,16.0963,16.0963,16.0963,16.0963,16.0963,16.0963,16.0963,16.0963,16.0963,16.0963,16.0963,16.0963,16.0963,16.0963,16.0963,16.0963,16.0963,16.0963,16.0963,16.0963,16.0963,16.0963,16.0963,16.0963,16.0963,16.0963,16.0963,16.0963,16.0963,16.0963,16.0963,16.0963,16.0963,16.0963,16.0963,16.0963,16.0963,16.0963,16.0963,16.0963,16.0963,16.0963,16.0963,16.0963,16.0963,16.0963,16.0963,16.0963,16.0963,16.0963,16.0963,16.0963,16.0963,16.0963,16.0963,16.0963,16.0963,16.0963,16.0963,16.0963,16.0963,16.0963,16.0963,16.0963,16.0963,16.0963,16.0963,16.0963,16.0905,16.0672,16.0497,16.0963,16.0963,16.0963,16.0963,16.0963,16.0963,16.0963,16.0963,16.0963,16.0963,16.0963,16.0963,16.0963,16.0963,16.0963,16.0963,16.0963,16.0963,16.0963,16.0963,16.0963,16.0963,16.0963,16.0963,16.0963,16.0963,16.0963,16.0963,16.0963,16.0963,16.0963,16.0963,16.0963,16.0963,16.0963,16.0963,16.0963,16.0963,16.0963,16.0963,16.0963,16.0963,16.0963,16.0963,16.0963,16.0963,16.0963,16.0963,16.0963,16.0963,16.0963,16.0963,16.0963,16.0963,16.0963,16.0963,16.0963,16.0963,16.0963,16.0963,16.0963,16.0963,16.0963,16.0963,16.0963,16.0963,16.0963,16.0963,16.0963,16.0963,16.0963,16.0963,16.0963,16.0963,16.0963,16.0963,16.0963,16.0963,16.0963,16.0963,16.0963,16.0963,16.0963,16.0963,16.0963,16.0963,16.0963,16.0963,16.0963,16.0963,16.0963,16.0963,16.0963,16.0963,16.0963,16.0963,16.0963,16.0963,16.0963,16.0963,16.0963,16.0963,16.0963,16.0963,16.0963,16.0963,16.0963,16.0963,16.0963,16.0963,16.0963,16.0905,16.0672,16.0439,16.0032,16.0963,16.0963,16.0963,16.0963,16.0963,16.0963,16.0963,16.0963,16.0963,16.0963,16.0963,16.0963,16.0963,16.0963,16.0963,16.0963,16.0963,16.0963,16.0963,16.0963,16.0963,16.0963,16.0963,16.0963,16.0963,16.0963,16.0963,16.0963,16.0963,16.0963,16.0963,16.0963,16.0963,16.0963,16.0963,16.0963,16.0963,16.0963,16.0963,16.0963,16.0963,16.0963,16.0963,16.0963,16.0963,16.0963,16.0963,16.0963,16.0963,16.0963,16.0963,16.0963,16.0963,16.0963,16.0963,16.0963,16.0963,16.0963,16.0963,16.0963,16.0963,16.0963,16.0963,16.0963,16.0963,16.0963,16.0963,16.0963,16.0963,16.0963,16.0963,16.0963,16.0963,16.0963,16.0963,16.0963,16.0963,16.0963,16.0963,16.0963,16.0963,16.0963,16.0963,16.0963,16.0963,16.0963,16.0963,16.0963,16.0963,16.0963,16.0963,16.0963,16.0963,16.0963,16.0963,16.0963,16.0963,16.0963,16.0963,16.0963,16.0963,16.0963,16.0963,16.0963,16.0963,16.0963,16.0963,16.0963,16.0963,16.0963,16.0846,16.0614,16.0344,15.9937,15.9471,16.0963,16.0963,16.0963,16.0963,16.0963,16.0963,16.0963,16.0963,16.0963,16.0963,16.0963,16.0963,16.0963,16.0963,16.0963,16.0963,16.0963,16.0963,16.0963,16.0963,16.0963,16.0963,16.0963,16.0963,16.0963,16.0963,16.0963,16.0963,16.0963,16.0963,16.0963,16.0963,16.0963,16.0963,16.0963,16.0963,16.0963,16.0963,16.0963,16.0963,16.0963,16.0963,16.0963,16.0963,16.0963,16.0963,16.0963,16.0963,16.0963,16.0963,16.0963,16.0963,16.0963,16.0963,16.0963,16.0963,16.0963,16.0963,16.0963,16.0963,16.0963,16.0963,16.0963,16.0963,16.0963,16.0963,16.0963,16.0963,16.0963,16.0963,16.0963,16.0963,16.0963,16.0963,16.0963,16.0963,16.0963,16.0963,16.0963,16.0963,16.0963,16.0963,16.0963,16.0963,16.0963,16.0963,16.0963,16.0963,16.0963,16.0963,16.0963,16.0963,16.0963,16.0963,16.0963,16.0963,16.0963,16.0963,16.0963,16.0963,16.0963,16.0963,16.0963,16.0963,16.0963,16.0963,16.0963,16.0963,16.0905,16.0672,16.0497,16.0286,15.9762,15.9471,15.8773,16.0963,16.0963,16.0963,16.0963,16.0963,16.0963,16.0963,16.0963,16.0963,16.0963,16.0963,16.0963,16.0963,16.0963,16.0963,16.0963,16.0963,16.0963,16.0963,16.0963,16.0963,16.0963,16.0963,16.0963,16.0963,16.0963,16.0963,16.0963,16.0963,16.0963,16.0963,16.0963,16.0963,16.0963,16.0963,16.0963,16.0963,16.0963,16.0963,16.0963,16.0963,16.0963,16.0963,16.0963,16.0963,16.0963,16.0963,16.0963,16.0963,16.0963,16.0963,16.0963,16.0963,16.0963,16.0963,16.0963,16.0963,16.0963,16.0963,16.0963,16.0963,16.0963,16.0963,16.0963,16.0963,16.0963,16.0963,16.0963,16.0963,16.0963,16.0963,16.0963,16.0963,16.0963,16.0963,16.0963,16.0963,16.0963,16.0963,16.0963,16.0963,16.0963,16.0963,16.0963,16.0963,16.0963,16.0963,16.0963,16.0963,16.0963,16.0963,16.0963,16.0963,16.0963,16.0963,16.0963,16.0963,16.0963,16.0963,16.0963,16.0963,16.0963,16.0963,16.0963,16.0788,16.0788,16.0963,16.073,16.0323,16.017,16.0053,15.9239,15.8366,15.8133,15.7552,16.0963,16.0963,16.0963,16.0963,16.0963,16.0963,16.0963,16.0963,16.0963,16.0963,16.0963,16.0963,16.0963,16.0963,16.0963,16.0963,16.0963,16.0963,16.0963,16.0963,16.0963,16.0963,16.0963,16.0963,16.0963,16.0963,16.0963,16.0963,16.0963,16.0963,16.0963,16.0963,16.0963,16.0963,16.0963,16.0963,16.0963,16.0963,16.0963,16.0963,16.0963,16.0963,16.0963,16.0963,16.0963,16.0963,16.0963,16.0963,16.0963,16.0963,16.0963,16.0963,16.0963,16.0963,16.0963,16.0963,16.0963,16.0963,16.0963,16.0963,16.0963,16.0963,16.0963,16.0963,16.0963,16.0963,16.0963,16.0963,16.0963,16.0963,16.0963,16.0963,16.0963,16.0963,16.0963,16.0963,16.0963,16.0963,16.0963,16.0963,16.0963,16.0963,16.0963,16.0963,16.0963,16.0963,16.0963,16.0963,16.0963,16.0963,16.0963,16.0963,16.0963,16.0963,16.0963,16.0963,16.0963,16.0963,16.0963,16.0963,16.0963,16.0963,16.0963,16.073,16.0461,16.0402,16.0111,15.9821,15.9646,15.9355,15.889,15.8075,15.7108,15.6701,15.641,16.0963,16.0963,16.0963,16.0963,16.0963,16.0963,16.0963,16.0963,16.0963,16.0963,16.0963,16.0963,16.0963,16.0963,16.0963,16.0963,16.0963,16.0963,16.0963,16.0963,16.0963,16.0963,16.0963,16.0963,16.0963,16.0963,16.0963,16.0963,16.0963,16.0963,16.0963,16.0963,16.0963,16.0963,16.0963,16.0963,16.0963,16.0963,16.0963,16.0963,16.0963,16.0963,16.0963,16.0963,16.0963,16.0963,16.0963,16.0963,16.0963,16.0963,16.0963,16.0963,16.0963,16.0963,16.0963,16.0963,16.0963,16.0963,16.0963,16.0963,16.0963,16.0963,16.0963,16.0963,16.0963,16.0963,16.0963,16.0963,16.0963,16.0963,16.0963,16.0963,16.0963,16.0963,16.0963,16.0963,16.0963,16.0963,16.0963,16.0963,16.0963,16.0963,16.0963,16.0963,16.0963,16.0963,16.0963,16.0963,16.0963,16.0963,16.0963,16.0963,16.0963,16.0963,16.0672,16.0614,16.009,16.0206,16.0497,16.0672,16.0788,16.0905,16.0614,16.0344,16.0053,15.9297,15.8948,15.8621,15.8213,15.7864,15.7574,15.6934,15.5945,15.5363,15.5131,16.0963,16.0963,16.0963,16.0963,16.0963,16.0963,16.0963,16.0963,16.0963,16.0963,16.0963,16.0963,16.0963,16.0963,16.0963,16.0963,16.0963,16.0963,16.0963,16.0963,16.0963,16.0963,16.0963,16.0963,16.0963,16.0963,16.0963,16.0963,16.0963,16.0963,16.0963,16.0963,16.0963,16.0963,16.0963,16.0963,16.0963,16.0963,16.0963,16.0963,16.0963,16.0963,16.0963,16.0963,16.0963,16.0963,16.0963,16.0963,16.0963,16.0963,16.0963,16.0963,16.0963,16.0963,16.0963,16.0963,16.0963,16.0963,16.0963,16.0963,16.0963,16.0963,16.0963,16.0963,16.0963,16.0963,16.0963,16.0963,16.0963,16.0963,16.0963,16.0963,16.0963,16.0963,16.0963,16.0963,16.0963,16.0963,16.0963,16.0963,16.1036,16.1073,16.1036,16.0963,16.0963,16.0963,16.0963,16.0963,16.0963,16.0963,16.0963,16.0905,16.0905,16.0555,15.9821,15.9239,15.8541,15.9297,15.9821,16.0264,16.0497,16.0788,16.0614,15.9762,15.8948,15.8097,15.7748,15.7399,15.6876,15.6352,15.6119,15.5712,15.4782,15.4142,15.3909,16.0963,16.0963,16.0963,16.0963,16.0963,16.0963,16.0963,16.0963,16.0963,16.0963,16.0963,16.0963,16.0963,16.0963,16.0963,16.0963,16.0963,16.0963,16.0963,16.0963,16.0963,16.0963,16.0963,16.0963,16.0963,16.0963,16.0963,16.0963,16.0963,16.0963,16.0963,16.0963,16.0963,16.0963,16.0963,16.0963,16.0963,16.0963,16.0963,16.0963,16.0963,16.0963,16.0963,16.0963,16.0963,16.0963,16.0963,16.0963,16.0963,16.0963,16.0963,16.0672,16.0264,16.0323,16.0439,16.0555,16.073,16.0963,16.0963,16.0963,16.0963,16.0963,16.0963,16.0963,16.0963,16.0963,16.0963,16.0963,16.0963,16.0963,16.0963,16.0963,16.0963,16.0963,16.0963,16.0963,16.1036,16.1257,16.1513,16.1367,16.122,16.1183,16.1073,16.0963,16.0963,16.0963,16.0963,16.0963,16.0788,16.073,16.0555,16.0497,16.0555,15.9704,15.889,15.7923,15.7515,15.8482,15.8831,15.9181,15.953,16.0111,15.9821,15.8424,15.7457,15.6876,15.6527,15.6294,15.5712,15.5014,15.4723,15.4455,15.4025,15.3676,15.3363,16.0963,16.0963,16.0963,16.0963,16.0963,16.0963,16.0963,16.0963,16.0963,16.0963,16.0963,16.0963,16.0963,16.0963,16.0963,16.0963,16.0963,16.0963,16.0963,16.0963,16.0963,16.0963,16.0963,16.0963,16.0963,16.0963,16.0963,16.0963,16.0963,16.0963,16.0963,16.0963,16.0963,16.0963,16.0963,16.0963,16.0963,16.0963,16.0963,16.0963,16.0963,16.0963,16.0963,16.0963,16.0963,16.0963,16.0963,16.0846,16.0846,16.0963,16.0963,15.9762,15.8657,15.8541,15.9297,15.9297,16.0148,16.0439,16.0439,16.0672,16.073,16.0963,16.0905,16.0905,16.0963,16.0963,16.0963,16.0963,16.0963,16.0963,16.0963,16.0963,16.0963,16.0963,16.0963,16.0963,16.1183,16.2039,16.2221,16.2061,16.1915,16.1623,16.1367,16.1147,16.1036,16.0963,16.0963,16.0846,16.0614,16.0323,15.953,15.9297,15.8831,15.8133,15.7574,15.6759,15.6817,15.7341,15.7341,15.7574,15.7748,15.7842,15.7435,15.6468,15.6061,15.5654,15.5305,15.5014,15.4491,15.377,15.3537,15.3735,15.356,15.3211,15.3153,16.0963,16.0963,16.0963,16.0963,16.0963,16.0963,16.0963,16.0963,16.0963,16.0963,16.0963,16.0963,16.0963,16.0963,16.0963,16.0963,16.0963,16.0963,16.0963,16.0963,16.0963,16.0963,16.0963,16.0963,16.0963,16.0963,16.0963,16.0963,16.0963,16.0963,16.0963,16.0963,16.0963,16.0963,16.0963,16.0963,16.0963,16.0963,16.0963,16.0963,16.0963,16.0963,16.0963,16.0963,16.0963,16.0963,16.0788,16.0323,15.9937,15.9704,15.9239,15.825,15.7399,15.7668,15.7923,15.7981,15.8657,15.8831,15.889,15.889,15.9239,15.9762,15.9915,16.0264,16.0788,16.0963,16.0963,16.0963,16.0963,16.0963,16.0963,16.0963,16.0963,16.1,16.133,16.1586,16.1733,16.2439,16.2945,16.2728,16.262,16.2221,16.1879,16.1733,16.1491,16.076,16.076,15.993,15.9697,15.8948,15.8308,15.7806,15.7225,15.6643,15.6236,15.6061,15.6061,15.6061,15.6061,15.6119,15.6294,15.5829,15.5247,15.4782,15.4433,15.4142,15.4316,15.3793,15.3363,15.3246,15.3246,15.3188,15.3153,15.3153,15.3153,16.0963,16.0963,16.0963,16.0963,16.0963,16.0963,16.0963,16.0963,16.0963,16.0963,16.0963,16.0963,16.0963,16.0963,16.0963,16.0963,16.0963,16.0963,16.0963,16.0963,16.0963,16.0963,16.0963,16.0963,16.0963,16.0963,16.0963,16.0963,16.0963,16.0963,16.0963,16.0963,16.0963,16.0963,16.0963,16.0963,16.0963,16.0963,16.0963,16.0963,16.0963,16.0963,16.0963,16.0905,16.0614,16.0439,15.9973,15.9122,15.8482,15.7923,15.6992,15.6178,15.6061,15.6352,15.6643,15.6759,15.6934,15.7166,15.7166,15.7341,15.7515,15.8482,15.8657,15.9122,16.0323,16.0439,16.0614,16.0963,16.0963,16.0963,16.0963,16.0963,16.1073,16.133,16.1733,16.217,16.2584,16.3234,16.3534,16.339,16.3378,16.309,16.2461,16.2117,16.1403,16.0725,15.9901,15.8955,15.8184,15.7435,15.6992,15.6643,15.6003,15.5166,15.4782,15.4723,15.4723,15.4723,15.4723,15.4782,15.5014,15.4817,15.4293,15.3676,15.3153,15.3211,15.356,15.3153,15.3153,15.3153,15.3153,15.3153,15.3153,15.3153,15.3153,16.0963,16.0963,16.0963,16.0963,16.0963,16.0963,16.0963,16.0963,16.0963,16.0963,16.0963,16.0963,16.0963,16.0963,16.0963,16.0963,16.0963,16.0963,16.0963,16.0963,16.0963,16.0963,16.0963,16.0963,16.0963,16.0963,16.0963,16.0963,16.0963,16.0963,16.0963,16.0963,16.0963,16.0963,16.0963,16.0963,16.0963,16.0963,16.0963,16.0963,16.0963,16.0788,16.0672,16.0555,15.9857,15.8773,15.8017,15.7341,15.6759,15.5654,15.4258,15.3909,15.3909,15.484,15.5247,15.5444,15.6178,15.6759,15.6934,15.6701,15.6992,15.7166,15.7283,15.7806,15.8831,15.9239,15.953,16.0381,16.0905,16.0788,16.0788,16.0941,16.133,16.1915,16.2039,16.2765,16.3808,16.4735,16.4913,16.4285,16.4083,16.3749,16.301,16.2061,16.1022,16.0222,15.9164,15.8247,15.7364,15.6441,15.5787,15.5434,15.4665,15.377,15.3712,15.356,15.3653,15.377,15.3851,15.3909,15.4142,15.4003,15.3386,15.3153,15.3153,15.3153,15.3153,15.3153,15.3153,15.3153,15.3153,15.3153,15.3153,15.3153,15.3153,16.0963,16.0963,16.0963,16.0963,16.0963,16.0963,16.0963,16.0963,16.0963,16.0963,16.0963,16.0963,16.0963,16.0963,16.0963,16.0963,16.0963,16.0963,16.0963,16.0963,16.0963,16.0963,16.0963,16.0963,16.0963,16.0963,16.0963,16.0963,16.0963,16.0963,16.0963,16.0963,16.0963,16.0963,16.0963,16.0963,16.0963,16.0963,16.0963,16.0963,16.0846,16.0264,15.9879,15.9588,15.8599,15.769,15.7108,15.6316,15.5363,15.42,15.3502,15.3153,15.3211,15.3735,15.3967,15.4025,15.4433,15.484,15.4782,15.4782,15.5131,15.5735,15.5909,15.6643,15.7515,15.7864,15.8017,15.881,15.9471,15.9762,16.001,16.0995,16.1893,16.2335,16.2405,16.2647,16.3649,16.4096,16.3772,16.3035,16.2622,16.2342,16.1568,16.1048,16.0364,15.9633,15.8479,15.7527,15.6646,15.5429,15.4623,15.4178,15.3595,15.3479,15.3386,15.3327,15.3421,15.3421,15.3444,15.3386,15.3537,15.3444,15.3153,15.3153,15.3153,15.3153,15.3153,15.3153,15.3153,15.3153,15.3153,15.3153,15.3153,15.3153,15.3153,16.0963,16.0963,16.0963,16.0963,16.0963,16.0963,16.0963,16.0963,16.0963,16.0963,16.0963,16.0963,16.0963,16.0963,16.0963,16.0963,16.0963,16.0963,16.0963,16.0963,16.0963,16.0963,16.0963,16.0963,16.0963,16.0963,16.0963,16.0963,16.0963,16.0963,16.0963,16.0963,16.0963,16.0963,16.0963,16.0963,16.0963,16.0963,16.0672,16.0381,16.017,15.9181,15.8541,15.8366,15.7225,15.6585,15.6468,15.5305,15.4084,15.3246,15.3153,15.3153,15.3153,15.3211,15.3269,15.3269,15.3269,15.3211,15.3269,15.3269,15.3618,15.4455,15.4665,15.5153,15.641,15.6764,15.7046,15.7548,15.8347,15.9133,15.9344,16.0362,16.13,16.1946,16.2054,16.2233,16.2756,16.293,16.2665,16.1768,16.1639,16.1457,16.0982,16.0476,15.9876,15.9013,15.7907,15.6754,15.607,15.4994,15.4411,15.3759,15.3328,15.3258,15.3188,15.3188,15.3153,15.3153,15.3153,15.3153,15.3153,15.3153,15.3153,15.3153,15.3153,15.3153,15.3153,15.3153,15.3153,15.3153,15.3153,15.3153,15.3153,15.3153,15.3153,16.0905,16.0963,16.0905,16.073,16.073,16.073,16.0614,16.0788,16.0788,16.0672,16.0788,16.073,16.0846,16.0905,16.0905,16.0963,16.0963,16.0963,16.0905,16.0788,16.0963,16.0963,16.0963,16.0963,16.0963,16.0963,16.0963,16.0963,16.0963,16.0963,16.0963,16.0963,16.0963,16.0963,16.0905,16.0905,16.0788,16.0555,15.9646,15.9122,15.9064,15.7806,15.7166,15.7108,15.5945,15.5211,15.5095,15.4142,15.3363,15.3246,15.3153,15.3153,15.3153,15.3153,15.3153,15.3153,15.3153,15.3153,15.3153,15.3153,15.3339,15.3549,15.3701,15.3851,15.5262,15.599,15.6659,15.7631,15.8503,15.9033,15.9033,15.9563,15.961,15.9703,16.0704,16.1407,16.1613,16.1648,16.1408,16.1349,16.1468,16.1434,16.0972,16.01,15.9375,15.8444,15.7466,15.6531,15.5712,15.5254,15.4535,15.406,15.3677,15.3573,15.3503,15.3433,15.3153,15.3153,15.3153,15.3153,15.3153,15.3153,15.3153,15.3153,15.3153,15.3153,15.3153,15.3153,15.3153,15.3153,15.3153,15.3153,15.3153,15.3153,15.3153,15.8541,15.8541,15.8482,15.8541,15.8541,15.8541,15.8504,15.8504,15.8541,15.8541,15.8715,15.9355,15.9741,15.9879,16.0614,16.0905,16.0963,16.0963,16.0497,15.9879,16.0497,16.0963,16.0963,16.0963,16.0963,16.0963,16.0963,16.0963,16.0963,16.0963,16.0963,16.0963,16.0963,16.0905,16.0905,16.017,15.9704,15.9566,15.8482,15.7784,15.7515,15.6527,15.5887,15.5677,15.4549,15.3967,15.3851,15.3444,15.3153,15.3153,15.3153,15.3153,15.3153,15.3153,15.3153,15.3153,15.3153,15.3188,15.3153,15.3223,15.3363,15.3782,15.3886,15.4353,15.5039,15.5424,15.5784,15.649,15.7451,15.7923,15.824,15.9051,15.9277,15.8393,15.952,16.0237,16.0331,16.0331,16.0032,15.9374,15.9194,15.9108,15.9108,15.8569,15.8315,15.8026,15.7473,15.6939,15.6261,15.5818,15.5348,15.4901,15.4373,15.3991,15.3852,15.3573,15.3258,15.3328,15.3363,15.3328,15.3293,15.3293,15.3153,15.3153,15.3153,15.3153,15.3153,15.3153,15.3153,15.3153,15.3153,15.3153,15.3153,15.3153,15.3153,15.7108,15.7108,15.7108,15.7108,15.7108,15.7108,15.7108,15.7108,15.7108,15.7108,15.7225,15.7981,15.8424,15.8657,15.9297,15.9704,15.9704,15.9704,15.9297,15.8715,15.9704,16.0323,16.0381,16.0693,16.0963,16.0963,16.0963,16.0963,16.0963,16.0963,16.0963,16.0846,16.0555,16.0381,16.0264,15.9064,15.8424,15.825,15.7108,15.6468,15.6316,15.5153,15.4514,15.4433,15.3676,15.3153,15.3153,15.3153,15.3153,15.3153,15.3153,15.3153,15.3153,15.3153,15.3153,15.3153,15.3153,15.3258,15.3468,15.3538,15.3991,15.4787,15.5029,15.5338,15.5861,15.6235,15.6464,15.6549,15.7373,15.79,15.795,15.9007,15.9323,15.8481,15.8887,15.9326,15.9326,15.9124,15.8569,15.7791,15.7612,15.7612,15.7672,15.7731,15.7698,15.7664,15.7604,15.7504,15.6939,15.6566,15.6227,15.5758,15.5107,15.4615,15.4269,15.3921,15.3956,15.4199,15.3956,15.3782,15.3608,15.3503,15.3258,15.3153,15.3153,15.3153,15.3153,15.3153,15.3153,15.3153,15.3223,15.3223,15.3188,15.3153,15.3153,15.6992,15.6876,15.705,15.6817,15.6701,15.6701,15.6934,15.6759,15.6817,15.6643,15.6585,15.6992,15.705,15.7108,15.7399,15.7166,15.7108,15.7225,15.7225,15.7225,15.8388,15.9006,15.9064,16.009,16.0555,16.0555,16.0846,16.0846,16.0788,16.073,16.0672,16.0555,15.9471,15.9006,15.9006,15.7748,15.7108,15.6817,15.5829,15.5153,15.4979,15.3967,15.3386,15.3269,15.3211,15.3153,15.3153,15.3153,15.3153,15.3153,15.3153,15.3153,15.3037,15.2862,15.3013,15.2909,15.3048,15.3456,15.4082,15.4255,15.4828,15.6193,15.6532,15.6845,15.7552,15.8187,15.8552,15.8619,15.9258,15.9456,15.8827,15.9007,15.9186,15.9565,15.9131,15.8854,15.8627,15.8073,15.7672,15.7638,15.7612,15.7612,15.7612,15.7612,15.7612,15.7612,15.7612,15.7545,15.741,15.6972,15.66,15.6363,15.5886,15.5304,15.4787,15.4373,15.4694,15.4901,15.4428,15.4269,15.4164,15.4095,15.3921,15.3817,15.3852,15.3852,15.3886,15.3852,15.3747,15.3433,15.3328,15.3328,15.3258,15.3153,15.3153,15.4468,15.4433,15.4433,15.4433,15.4374,15.4433,15.4468,15.4468,15.4433,15.4468,15.4607,15.5421,15.5735,15.5851,15.6701,15.6178,15.4607,15.5363,15.5735,15.5851,15.7108,15.769,15.7748,15.8097,15.8308,15.8482,15.9181,15.9624,15.9646,15.9624,15.9181,15.8388,15.7959,15.769,15.7457,15.6375,15.5735,15.5502,15.4491,15.3793,15.3793,15.3363,15.3153,15.3153,15.3153,15.3153,15.3153,15.3153,15.3153,15.3153,15.3153,15.2746,15.1873,15.1024,15.08,15.1246,15.1349,15.2247,15.4067,15.4423,15.548,15.7659,15.832,15.8944,15.9636,16.0294,16.0652,16.0749,16.0975,16.0842,16.0323,16.0485,16.0676,16.0384,15.9828,15.9175,15.8679,15.8386,15.8087,15.7626,15.7466,15.7552,15.7612,15.7612,15.7612,15.7612,15.7612,15.7612,15.7612,15.7377,15.7242,15.7175,15.6566,15.609,15.5462,15.5115,15.5387,15.5046,15.4602,15.4887,15.4935,15.4832,15.4729,15.466,15.4625,15.4625,15.4625,15.4625,15.4383,15.406,15.3559,15.2908,15.299,15.3083,15.2746,15.3153,15.3153,15.3153,15.3153,15.3153,15.3153,15.3153,15.3153,15.3153,15.3153,15.3363,15.4025,15.4433,15.4491,15.5779,15.5535,15.4166,15.4798,15.5149,15.5324,15.6552,15.7136,15.7195,15.7604,15.7731,15.7633,15.8355,15.8597,15.8344,15.8308,15.7901,15.7108,15.6585,15.6352,15.6142,15.5072,15.4433,15.4316,15.3653,15.3153,15.3211,15.3153,15.3153,15.3153,15.3153,15.292,15.2513,15.2455,15.2222,15.178,15.1815,15.1373,15.0559,14.9745,14.9679,15.0393,15.0933,15.1999,15.3905,15.4621,15.5903,15.7995,15.9087,15.9829,16.0619,16.128,16.1904,16.2245,16.2243,16.1933,16.1528,16.1531,16.1405,16.065,15.9665,15.8736,15.8311,15.7822,15.7326,15.6765,15.6567,15.6674,15.6781,15.692,15.7159,15.7552,15.7612,15.7612,15.7612,15.7612,15.7545,15.7511,15.7208,15.6607,15.5858,15.556,15.5426,15.4896,15.4549,15.4423,15.4042,15.3763,15.3584,15.3364,15.333,15.3238,15.3145,15.3145,15.3077,15.2853,15.2535,15.2061,15.2335,15.1406,15.1443,15.3083,15.306,15.3083,15.3072,15.306,15.3037,15.306,15.299,15.3188,15.3212,15.3188,15.3363,15.3235,15.32,15.4449,15.5102,15.5127,15.5093,15.5176,15.5412,15.6498,15.7157,15.7215,15.843,15.8574,15.7796,15.7995,15.7815,15.7136,15.7064,15.7006,15.6903,15.5809,15.5179,15.5075,15.4097,15.3351,15.3468,15.3386,15.3223,15.3153,15.313,15.3013,15.2978,15.3013,15.228,15.135,15.1141,15.0652,14.9464,14.9581,14.9499,14.9324,14.93,14.9524,15.0268,15.1449,15.2635,15.3704,15.4968,15.6336,15.7782,15.9271,16.0094,16.0952,16.1642,16.247,16.3571,16.3086,16.2797,16.266,16.2245,16.1522,16.0738,15.9024,15.8061,15.7718,15.6887,15.5628,15.5132,15.5054,15.5242,15.5676,15.563,15.6109,15.686,15.7279,15.7219,15.704,15.7253,15.7193,15.7099,15.6946,15.6561,15.4433,15.4209,15.4062,15.3891,15.3693,15.2958,15.2455,15.2163,15.1956,15.1814,15.237,15.2429,15.1814,15.1747,15.2118,15.2042,15.1858,15.1351,15.1466,15.0175,14.9985,15.1923,15.1923,15.1923,15.1923,15.1923,15.1923,15.1923,15.1981,15.2897,15.3284,15.3435,15.4283,15.3695,15.2108,15.2295,15.3003,15.3838,15.3897,15.4428,15.5313,15.5668,15.5904,15.5904,15.6223,15.6331,15.6241,15.7031,15.7175,15.6599,15.6529,15.6226,15.58,15.5458,15.5247,15.5223,15.4929,15.4452,15.406,15.3991,15.3712,15.3083,15.2222,15.1757,15.1699,15.0884,15.021,14.9861,14.9769,14.9926,15.0121,15.0155,14.9949,14.9514,14.9463,14.9118,14.875,15.0111,15.2294,15.5,15.6247,15.7755,15.9632,16.1291,16.2327,16.265,16.3586,16.4181,16.4049,16.3835,16.3842,16.4255,16.3435,16.2386,16.1384,16.0424,15.9115,15.7816,15.7438,15.6592,15.5567,15.4908,15.4808,15.4914,15.4675,15.4532,15.4918,15.4945,15.4825,15.4792,15.4945,15.4945,15.4792,15.4792,15.4433,15.3955,15.3536,15.3775,15.3709,15.3405,15.3083,15.3354,15.3288,15.3031,15.1889,15.2813,15.2998,15.2351,15.2661,15.315,15.2959,15.2562,15.1963,15.0949,15.0571,15.0199,15.1436,15.1436,15.1436,15.1436,15.1436,15.1436,15.1436,15.1495,15.2237,15.2565,15.2843,15.4637,15.4661,15.3196,15.3163,15.3554,15.4303,15.4336,15.4813,15.5437,15.5195,15.5061,15.5028,15.4826,15.4549,15.4304,15.5513,15.582,15.5258,15.5659,15.5863,15.5808,15.5758,15.5988,15.6167,15.5895,15.5647,15.5201,15.4615,15.3568,15.216,15.1332,15.0787,15.0361,14.9687,14.8975,14.8256,14.8207,14.8042,14.7686,14.7634,14.7479,14.7105,14.7338,14.7301,14.7007,14.844,15.0669,15.3657,15.5972,15.7805,15.9036,16.134,16.271,16.2766,16.3671,16.3643,16.2655,16.2719,16.3103,16.319,16.2754,16.2122,16.1406,16.0332,15.9154,15.7714,15.7288,15.6555,15.516,15.4563,15.4153,15.3642,15.3617,15.3864,15.408,15.3906,15.3927,15.3835,15.3775,15.3775,15.3655,15.2725,15.2187,15.204,15.21,15.21,15.2007,15.2067,15.2067,15.1915,15.21,15.2067,15.1975,15.1791,15.1791,15.2279,15.2067,15.2067,15.1818,15.152,15.1161,15.0439,14.9811,14.9579,15.1224,15.1283,15.1198,15.125,15.1198,15.1257,15.1231,15.1257,15.1501,15.1534,15.173,15.4206,15.5207,15.5427,15.5242,15.5363,15.5609,15.5673,15.5762,15.588,15.521,15.4919,15.4943,15.4325,15.3578,15.3164,15.4076,15.4302,15.3561,15.4599,15.5565,15.6354,15.6676,15.7115,15.7619,15.6996,15.6531,15.6489,15.5077,15.3181,15.0882,15.0395,14.9872,14.9101,14.8868,14.7982,14.649,14.6432,14.5617,14.4111,14.4119,14.4033,14.4219,14.4695,14.5321,14.5974,14.7205,14.8865,15.1281,15.489,15.7086,15.728,15.9953,16.1677,16.1693,16.2256,16.1743,16.0397,16.0748,16.1208,16.0711,16.0884,16.089,16.0534,15.9477,15.8197,15.7548,15.6935,15.5942,15.4151,15.4248,15.3453,15.271,15.3063,15.3747,15.4015,15.3494,15.304,15.297,15.2905,15.2997,15.2758,15.1409,15.0033,14.9973,14.9734,15.0033,14.9942,14.9794,14.9973,15.0153,15.0033,14.9702,15.0452,15.0033,15.0093,14.9973,14.9702,14.9822,15.0241,15.0057,14.957,14.8997,14.8497,14.8453,15.0089,15.0089,15.0057,15.0089,15.0057,15.0089,15.0089,15.0241,15.1745,15.2173,15.1812,15.2352,15.2947,15.3231,15.3323,15.4091,15.5412,15.5596,15.6148,15.7064,15.6555,15.6238,15.6174,15.5567,15.4951,15.4395,15.4571,15.4035,15.2978,15.3673,15.4634,15.5856,15.7965,15.9401,15.9996,15.8246,15.714,15.6558,15.5203,15.3964,15.2807,14.9768,14.8107,14.7766,14.5969,14.4998,14.5047,14.5079,14.5352,14.5881,14.5883,14.6222,14.6776,14.7327,14.7753,14.7964,14.949,15.0867,15.2084,15.5107,15.7044,15.7474,15.9042,15.9968,15.9954,16.0484,16.0515,16.0157,16.0157,16.0216,15.9834,15.9799,15.9394,15.8561,15.8659,15.8397,15.7431,15.7668,15.7438,15.6119,15.5409,15.457,15.3575,15.3084,15.2863,15.2664,15.1815,15.1148,15.0668,15.0572,15.0572,15.0452,15.0153,14.9555,14.9642,14.9583,14.9523,14.9642,14.9583,14.9435,14.9495,14.9583,14.9642,14.9495,14.9555,14.9403,14.9583,14.9583,14.9495,14.9435,14.9495,14.9551,14.9299,14.8846,14.8685,14.8351,14.8443,14.9326,14.9661,14.9721,15.0386,15.0627,15.0753,15.1457,15.1557,15.122,15.1491,15.1793,15.2061,15.233,15.309,15.4099,15.5017,15.5732,15.6084,15.6123,15.6032,15.5662,15.4728,15.4068,15.3813,15.4101,15.389,15.324,15.4132,15.4929,15.5689,15.7744,15.9233,16.0091,15.8785,15.7751,15.7083,15.5451,15.3483,15.1352,14.8919,14.6983,14.5781,14.477,14.4147,14.4209,14.4109,14.4274,14.4694,14.4386,14.4378,14.4789,14.5574,14.6036,14.6094,14.7123,14.8449,14.9864,15.1281,15.3285,15.6261,15.7899,15.7724,15.5076,15.5675,15.6505,15.7204,15.7861,15.8353,15.8758,15.9135,15.9209,15.8562,15.8597,15.8359,15.7572,15.7611,15.7189,15.6034,15.5228,15.4704,15.4091,15.3677,15.32,15.281,15.2408,15.16,15.0342,14.9443,14.8696,14.8445,14.8351,14.8226,14.7943,14.788,14.788,14.794,14.788,14.7911,14.7911,14.788,14.788,14.788,14.7911,14.788,14.788,14.7911,14.7911,14.794,14.8298,14.8777,14.8865,14.906,14.8754,14.6807,14.699,14.872,14.942,14.9634,15.0849,15.1396,15.1461,15.1042,15.0816,15.0874,15.1397,15.1748,15.183,15.2409,15.2723,15.2899,15.4542,15.4988,15.4512,15.5024,15.4997,15.4344,15.3327,15.278,15.2718,15.3475,15.38,15.3888,15.4829,15.5529,15.5965,15.7038,15.8375,15.9574,15.9051,15.825,15.7202,15.5251,15.2467,14.902,14.8034,14.6376,14.4143,14.4286,14.419,14.3579,14.3458,14.3128,14.2512,14.1974,14.1635,14.1478,14.2585,14.309,14.2922,14.3216,14.4339,14.6383,14.6202,14.8124,15.3101,15.5618,15.4622,14.9469,15.0413,15.186,15.3086,15.4532,15.5806,15.6965,15.7618,15.7931,15.8076,15.801,15.7795,15.7248,15.7148,15.676,15.5639,15.488,15.4617,15.4428,15.4247,15.3866,15.3557,15.2653,15.2321,15.0542,14.8995,14.7813,14.7083,14.6899,14.6622,14.6429,14.5972,14.6121,14.5848,14.5997,14.6116,14.6116,14.6116,14.6116,14.5877,14.6116,14.5997,14.5997,14.5817,14.6056,14.6145,14.6803,14.7401,14.7461,14.8179,14.8267,14.7052,14.7601,14.7934,14.8299,14.8753,14.9026,14.942,15.005,15.1873,0.0,0.0,15.2802,15.3114,15.3655,15.3796,15.4131,15.4667,15.4968,15.5068,15.4992,15.4596,15.4095,15.3589,15.3875,15.3527,15.2669,15.3843,15.4126,15.3607,15.3821,15.4772,15.6371,15.7136,15.8423,16.0208,15.9658,15.8018,15.5424,15.3538,15.1841,15.0187,14.7954,14.6327,14.5422,14.4396,14.3483,14.2916,14.3217,14.3112,14.2497,14.315,14.3074,14.1951,14.2894,14.3032,14.1897,14.2046,14.2424,14.2853,14.3902,14.5022,14.6088,14.9162,14.9535,14.6092,14.8285,14.9995,15.0258,15.1507,15.2452,15.2715,15.2947,15.2965,15.3031,15.4641,15.5666,15.5671,15.7013,15.7624,15.7262,15.6455,15.602,15.4941,15.4111,15.3338,15.2636,15.1631,15.002,14.9719,14.9321,14.8683,14.7722,14.7328,14.7236,14.6716,14.6411,14.6345,14.5733,14.5669,14.5817,14.5817,14.5817,14.5817,14.5578,14.5817,14.5697,14.5757,14.5638,14.5817,14.5817,14.5965,14.6176,14.6176,14.6356,14.6296,14.608,14.6765,14.7733,14.8657,0.0,15.0186,14.9551,14.8189,14.9465,14.9955,14.9919,15.019,15.0486,15.0871,15.2096,15.2814,15.3234,15.5029,15.5619,15.5325,15.5464,15.521,15.4659,15.4377,15.3926,15.3381,15.3688,15.3533,15.2975,15.2975,15.3495,15.4565,15.512,15.6016,15.7259,15.7548,15.7054,15.592,15.4642,15.2877,15.0426,14.8503,14.6808,14.5255,14.4495,0.0,0.0,0.0,0.0,0.0,0.0,0.0,0.0,14.0436,0.0,13.754,13.7322,13.736,13.7635,13.7708,13.8505,14.0191,14.2604,14.2761,13.978,14.2936,14.5392,14.6072,14.743,14.8548,14.9295,14.9361,14.9666,15.0455,15.1555,15.2567,15.324,15.4041,15.4661,15.5049,15.4783,15.4693,15.5084,15.4507,15.3971,15.3634,15.2375,15.1286,15.0488,14.9552,14.8743,14.8137,14.732,14.6287,14.5391,14.503,14.4636,14.4392,14.4057,14.3844,14.3813,14.3842,14.3813,14.3783,14.3873,14.3813,14.3813,14.3813,14.3842,14.3842,14.4321,14.4651,14.3933,14.3783,14.3813,14.4445,14.5285,14.6934,14.8306,14.9553,15.0815,14.9711,14.6945,14.7201,14.7201,14.6997,14.7111,14.7186,14.7365,14.9602,15.0586,15.0716,15.383,15.5079,15.4876,15.5598,15.5779,15.5357,15.4728,15.4333,15.4085,15.3774,15.3459,15.2859,15.2859,15.2921,15.295,15.3571,15.4131,15.4623,0.0,0.0,0.0,15.5443,15.3754,15.0626,14.9313,14.759,14.5447,14.5212,0.0,14.3476,14.3543,14.314,14.2151,14.0414,0.0,0.0,0.0,0.0,0.0,0.0,0.0,0.0,0.0,0.0,0.0,13.441,13.3731,13.2109,13.5528,13.8816,14.1074,14.2564,14.4011,14.5392,14.5523,14.6049,14.7299,14.7891,14.868,14.9798,15.0295,15.0925,15.2152,15.1989,15.2576,15.4538,15.4461,15.4099,15.418,15.3558,15.243,15.1202,14.9518,14.85,14.8494,14.7373,14.5765,14.4218,14.3575,14.325,14.274,14.232,14.1988,14.2018,14.2018,14.1958,14.2018,14.1898,14.1958,14.1958,14.1898,14.2078,14.1958,14.2796,14.3155,14.2138,14.1898,14.1898,14.253,14.3619,14.4348,14.5307,14.6449,14.7266,14.7678,14.7688,14.8945,14.875,14.7558,14.6334,14.5863,14.5952,14.7478,14.8201,14.8266,14.9965,15.138,15.2436,15.2556,15.3007,15.3763,15.4835,15.4783,15.3912,15.4981,15.5265,15.4805,15.4805,15.4805,15.477,15.5283,15.5856,15.6385,15.4432,15.3087,15.2635,15.2911,15.2539,15.1452,14.981,14.8627,14.7827,14.7266,14.5832,14.3488,14.4275,14.3126,13.956,13.9264,13.7621,13.4196,13.1993,12.9743,0.0,12.5193,0.0,0.0,0.0,0.0,0.0,0.0,0.0,0.0,12.573,12.9676,13.5002,13.6712,13.818,13.9583,13.9715,13.978,14.0043,14.217,14.3793,14.4099,14.7384,14.968,14.99,15.0473,15.1467,15.3002,15.2325,15.198,15.2687,15.1995,15.1122,15.0502,14.9465,14.8875,14.9774,14.8806,14.7039,14.5482,14.4243,14.3333,14.2859,14.223,14.1898,14.1839,14.1839,14.1869,14.1869,14.1809,14.1809,14.1898,14.1838,14.1838,14.1778,14.1959,14.2049,14.1839,14.1719,14.1898,14.15,14.1951,14.2723,14.224,14.0925,14.1302,14.1649,14.1836,14.2509,14.2379,14.1771,14.112,14.098,14.1409,14.3099,14.4261,14.5135,14.6509,14.8431,15.0525,15.021,15.0749,15.196,15.2285,15.2116,15.1632,15.2278,15.2252,15.1797,15.1771,15.1771,15.1771,15.1993,15.2149,15.2185,15.1108,15.1351,15.2946,15.2856,15.2546,15.2157,15.0808,14.9647,14.8806,14.8224,14.6606,14.3923,14.4617,14.3358,13.9857,13.8624,13.6327,13.2769,12.9592,12.6145,0.0,0.0,0.0,0.0,0.0,0.0,0.0,0.0,0.0,0.0,0.0,12.1863,12.6671,12.9827,13.2195,13.36,13.3731,13.4039,13.4849,13.6054,13.7522,13.9167,14.1775,14.4077,14.5589,14.7484,14.9335,15.0844,15.1042,15.1145,15.1416,15.1054,15.0568,15.0126,14.9481,14.8958,14.9017,14.812,14.6862,14.5498,14.3712,14.2373,14.2117,14.1333,14.0689,14.0718,14.0689,14.0689,14.0689,14.0689,14.0601,14.0247,14.0158,14.034,14.0671,14.0758,14.0543,14.0247,14.0158,14.031,13.9348,13.9161,13.9164,13.7638,13.525,13.5643,13.5817,13.5861,13.6274,13.6186,13.5861,13.5795,13.5733,13.5515,13.7327,13.9145,14.0877,14.2301,14.4734,14.7825,14.7404,14.8198,14.9925,14.9426,14.916,14.9038,14.9062,14.8745,14.8253,14.8293,14.8293,14.8189,14.6764,14.6254,14.6711,14.73,14.9371,15.2733,15.3026,15.3171,15.3143,15.1894,15.0754,14.9756,14.8896,14.7211,14.4482,14.4483,14.2859,13.9267,13.7021,13.4086,13.0283,12.6166,0.0,0.0,0.0,0.0,0.0,0.0,0.0,0.0,0.0,10.734,11.0368,0.0,11.5106,0.0,12.2664,12.6118,12.7897,12.8075,0.0,0.0,13.0026,13.1258,13.3723,13.559,13.7719,14.0482,14.3353,14.5786,14.7717,14.9138,14.9532,14.846,14.8526,14.8858,14.907,14.8672,14.8383,14.8109,14.7214,14.616,14.5152,14.2995,14.1257,14.1037,14.0481,13.98,13.9325,13.9507,13.9628,13.9325,13.9478,13.9577,13.9204,13.8997,13.9122,13.8677,13.8448,13.8273,13.8118,13.8249,13.8499,13.4831,13.4232,13.1492,13.0139,13.0067,13.1685,13.2378,13.253,13.3889,13.3713,13.2378,13.2378,13.0974,12.8603,13.0029,0.0,13.5068,13.647,13.9386,14.3376,14.3331,14.4754,14.7361,14.738,14.7123,14.6653,14.6653,14.6369,14.5868,14.5844,14.5844,14.5697,14.025,13.875,14.1379,14.3943,14.6792,14.9798,15.238,15.4076,15.4857,15.3285,15.2169,15.1552,14.9847,14.7494,14.4759,14.3842,14.0883,13.5646,13.3446,13.011,12.5061,0.0,0.0,0.0,0.0,0.0,0.0,0.0,0.0,0.0,0.0,0.0,0.0,0.0,0.0,11.0175,11.5415,0.0,12.2589,12.2854,0.0,0.0,0.0,12.5609,12.6895,12.9457,13.2086,13.4716,0.0,0.0,14.3047,14.5763,14.598,14.2037,14.2651,14.4243,14.6397,14.6606,14.6915,14.7486,14.6863,14.5927,14.4862,14.2564,14.0488,13.9598,14.0091,13.9461,13.8068,13.8562,13.9051,13.7927,13.8901,13.9596,13.966,13.914,13.8683,13.5452,13.4563,13.4624,13.5543,13.6207,13.6682,12.8623,12.4061,12.3333,12.3285,12.3796,12.4517,12.534,12.6114,12.6645,12.6051,12.4839,12.456,12.3524,12.1902,12.2412,0.0,0.0,0.0,13.1188,13.5386,13.6951,13.8772,14.0657,14.1556,14.1838,14.1724,14.1701,14.1087,14.0033,14.0121,13.8115,13.4276,0.0,0.0,13.5823,13.8769,14.2327,14.6707,14.9666,15.2032,15.3772,15.4039,15.3127,15.104,14.8535,14.5986,14.3385,14.0863,13.7413,13.2838,12.8919,12.4945,0.0,0.0,0.0,0.0,0.0,0.0,0.0,0.0,0.0,0.0,0.0,9.6967,9.7674,0.0,0.0,0.0,10.9329,11.3892,11.6711,11.6976,0.0,0.0,0.0,0.0,0.0,0.0,0.0,12.7714,13.209,13.5652,13.7457,13.8684,13.9079,13.829,14.0131,14.2234,14.4001,0.0,14.4253,14.4374,14.3952,14.3312,14.2066,14.0883,13.9383,13.726,13.5952,13.4734,13.3839,13.4041,13.4559,13.4779,13.5236,13.5832,13.6246,13.4129,13.2036,13.1561,13.1079,13.1004,13.1661,13.204,13.2551,12.0907,0.0,0.0,0.0,0.0,11.7025,11.7555,11.8551,11.8298,11.7804,11.7025,11.6673,0.0,0.0,0.0,0.0,0.0,0.0,12.3489,12.8116,12.9869,13.1925,13.4118,13.5066,13.5441,13.5507,13.5441,13.4803,13.346,13.1542,12.8236,12.3744,0.0,0.0,0.0,0.0,13.8679,14.4367,14.7806,15.0683,15.3142,15.4436,15.3854,15.1201,14.7469,14.4033,14.104,13.7249,13.3139,12.8748,12.4004,0.0,0.0,0.0,0.0,0.0,0.0,0.0,0.0,0.0,0.0,0.0,0.0,0.0,0.0,0.0,0.0,0.0,0.0,0.0,11.0525,11.1456,11.2171,0.0,0.0,0.0,0.0,0.0,0.0,0.0,0.0,0.0,13.0219,13.1217,13.267,0.0,0.0,13.8882,14.0745,14.1008,14.0875,14.0583,14.0338,0.0,13.8784,13.7884,13.6776,13.502,13.2573,13.0595,12.9768,12.992,13.0356,13.0855,13.1266,13.1341,13.0841,12.7988,12.6258,12.6822,12.6662,12.6465,12.6898,12.7192,12.7835,0.0,0.0,0.0,0.0,0.0,0.0,0.0,0.0,10.9727,10.9644,0.0,10.9578,0.0,0.0,0.0,0.0,11.3659,11.3774,0.0,0.0,12.2204,12.4346,12.8308,12.8187,12.8072,12.8006,12.8072,12.7462,12.6016,11.9713,0.0,0.0,0.0,0.0,0.0,0.0,13.6299,14.3254,14.7352,15.085,15.3539,15.4584,15.4402,15.2693,14.6765,14.1594,13.7278,13.3055,12.8181,12.2566,11.8597,0.0,0.0,0.0,0.0,0.0,0.0,0.0,0.0,0.0,0.0,0.0,0.0,0.0,0.0,0.0,0.0,0.0,0.0,0.0,0.0,10.6604,0.0,0.0,0.0,0.0,0.0,0.0,0.0,0.0,0.0,12.1694,12.0854,12.4,12.7469,13.0264,0.0,0.0,0.0,0.0,13.6667,13.669,13.6191,13.593,13.5799,13.3502,13.2154,13.3177,0.0,0.0,12.6641,12.7317,12.7694,12.6587,12.7341,12.714,12.366,12.2038,12.1392,12.1498,12.0862,12.0588,12.1365,12.2081,12.3264,0.0,0.0,0.0,0.0,0.0,0.0,0.0,0.0,0.0,10.3508,10.2809,10.2514,0.0,0.0,0.0,0.0,0.0,0.0,0.0,0.0,11.5698,11.7744,12.0177,12.0956,12.1363,0.0,12.1363,11.837,0.0,0.0,0.0,0.0,0.0,0.0,0.0,0.0,13.2245,13.9138,14.406,14.7999,15.0892,15.3089,15.2623,14.9209,14.5789,14.0427,13.3078,12.6943,12.1535,0.0,0.0,0.0,0.0,0.0,0.0,0.0,0.0,0.0,0.0,0.0,0.0,0.0,0.0,0.0,0.0,0.0,0.0,0.0,0.0,0.0,0.0,0.0,10.2964,0.0,0.0,0.0,0.0,0.0,0.0,0.0,0.0,0.0,11.5002,11.9123,12.3328,12.6225,12.9134,13.1711,13.3668,0.0,0.0,0.0,0.0,0.0,0.0,0.0,13.0802,12.9009,12.6898,12.4837,12.3277,12.2316,12.193,12.2419,0.0,0.0,11.6503,11.4906,11.4721,11.5838,11.546,11.5097,11.5725,11.6734,11.7857,0.0,0.0,0.0,0.0,0.0,0.0,0.0,0.0,0.0,9.7856,9.7089,0.0,0.0,0.0,0.0,0.0,0.0,0.0,0.0,0.0,0.0,0.0,11.3067,11.3944,0.0,0.0,0.0,0.0,0.0,0.0,0.0,0.0,0.0,0.0,0.0,0.0,12.8954,13.6353,14.1669,14.5721,14.868,15.1549,15.1155,14.7233,14.4962,13.9837,13.1337,0.0,0.0,0.0,0.0,0.0,0.0,0.0,0.0,0.0,0.0,0.0,0.0,0.0,0.0,0.0,0.0,0.0,0.0,0.0,0.0,0.0,0.0,0.0,0.0,0.0,9.8391,0.0,0.0,0.0,0.0,0.0,0.0,0.0,0.0,0.0,0.0,0.0,11.8962,12.2975,12.58,12.8236,13.0152,13.0974,13.1385,0.0,0.0,0.0,0.0,0.0,0.0,0.0,0.0,0.0,0.0,0.0,0.0,0.0,0.0,11.4616,11.026,10.891,10.8847,11.0039,0.0,0.0,0.0,0.0,0.0,0.0,0.0,0.0,0.0,0.0,0.0,0.0,0.0,0.0,0.0,9.256,0.0,0.0,9.248,0.0,0.0,0.0,0.0,0.0,0.0,0.0,0.0,0.0,0.0,0.0,0.0,0.0,0.0,0.0,0.0,0.0,0.0,0.0,0.0,0.0,0.0,12.6616,13.5284,14.0306,14.4231,14.7036,15.0018,15.0018,14.697,14.4165,13.9232,13.1956,0.0,0.0,0.0,0.0,0.0,0.0,0.0,0.0,0.0,0.0,0.0,0.0,0.0,0.0,0.0,0.0,0.0,0.0,0.0,0.0,0.0,0.0,0.0,0.0,0.0,0.0,9.6931,9.8338,9.9664,0.0,0.0,0.0,0.0,0.0,0.0,0.0,0.0,0.0,12.0305,12.1594,12.2875,12.5717,12.5828,12.5816,12.5796,12.573,12.5664,12.5579,12.5241,12.3914,0.0,0.0,0.0,0.0,0.0,0.0,0.0,0.0,0.0,0.0,0.0,0.0,0.0,0.0,0.0,0.0,0.0,0.0,0.0,0.0,0.0,0.0,0.0,0.0,0.0,0.0,0.0,0.0,0.0,0.0,0.0,0.0,0.0,0.0,0.0,0.0,0.0,0.0,0.0,0.0,0.0,0.0,0.0,0.0,0.0,0.0,0.0,0.0,0.0,0.0,0.0,0.0,0.0,0.0,12.4607,13.2237,13.8306,14.2761,14.5632,14.7496,14.6664,14.2761,13.8882,13.3884,0.0,0.0,0.0,0.0,0.0,0.0,0.0,0.0,0.0,0.0,0.0,0.0,0.0,0.0,0.0,0.0,0.0,0.0,0.0,0.0,0.0,0.0,0.0,0.0,0.0,0.0,0.0,0.0,9.4423,9.4825,9.5308,0.0,0.0,0.0,0.0,0.0,0.0,0.0,0.0,0.0,0.0,12.0542,12.3205,12.4103,12.4747,12.5506,12.5599,12.4875,12.2856,12.2477,12.1067,11.7044,0.0,0.0,0.0,0.0,0.0,0.0,0.0,0.0,0.0,0.0,0.0,0.0,0.0,0.0,0.0,0.0,0.0,0.0,0.0,0.0,0.0,0.0,0.0,0.0,0.0,0.0,0.0,0.0,0.0,0.0,0.0,0.0,0.0,0.0,0.0,0.0,0.0,0.0,0.0,0.0,0.0,0.0,0.0,0.0,0.0,0.0,0.0,0.0,0.0,0.0,0.0,0.0,0.0,12.2252,12.929,13.5374,13.9825,14.2476,14.4471,14.3748,13.9978,13.6317,13.1056,0.0,0.0,0.0,0.0,0.0,0.0,0.0,0.0,0.0,0.0,0.0,0.0,0.0,0.0,0.0,0.0,0.0,0.0,0.0,0.0,0.0,0.0,0.0,0.0,0.0,0.0,0.0,0.0,9.1018,9.1474,9.2627,0.0,0.0,0.0,0.0,0.0,0.0,0.0,0.0,0.0,0.0,11.7792,11.9673,12.0832,0.0,0.0,12.2179,12.1587,11.9896,11.9568,11.8337,11.4695,11.3591,0.0,0.0,0.0,0.0,0.0,0.0,0.0,0.0,0.0,0.0,0.0,0.0,0.0,0.0,0.0,0.0,0.0,0.0,0.0,0.0,0.0,0.0,0.0,0.0,0.0,0.0,0.0,0.0,0.0,0.0,0.0,0.0,0.0,0.0,0.0,0.0,0.0,0.0,0.0,0.0,0.0,0.0,0.0,0.0,0.0,0.0,0.0,0.0,0.0,0.0,0.0,0.0,0.0,12.6551,13.2113,13.6151,13.8597,14.1205,14.1249,13.8378,13.5309,12.9676,0.0,0.0,0.0,0.0,0.0,0.0,0.0,0.0,0.0,0.0,0.0,0.0,0.0,0.0,0.0,0.0,0.0,0.0,0.0,0.0,0.0,0.0,0.0,0.0,0.0,0.0,0.0,0.0,0.0,0.0,0.0,0.0,0.0,0.0,0.0,0.0,0.0,0.0,0.0,0.0,0.0,11.446,11.5443,11.6431,11.695,0.0,11.6579,11.6561,11.6447,11.6466,11.5569,11.312,0.0,0.0,0.0,0.0,0.0,0.0,0.0,0.0,0.0,0.0,0.0,0.0,0.0,0.0,0.0,0.0,0.0,0.0,0.0,0.0,0.0,0.0,0.0,0.0,0.0,0.0,0.0,0.0,0.0,0.0,0.0,0.0,0.0,0.0,0.0,0.0,0.0,0.0,0.0,0.0,0.0,0.0,0.0,0.0,0.0,0.0,0.0,0.0,0.0,0.0,0.0,0.0,0.0,0.0,12.5819,13.1845,13.6233,13.8943,13.9495,13.8334,13.5375,13.0465,0.0,0.0,0.0,0.0,0.0,0.0,0.0,0.0,0.0,0.0,0.0,0.0,0.0,0.0,0.0,0.0,0.0,0.0,0.0,0.0,0.0,0.0,0.0,0.0,0.0,0.0,0.0,8.2969,0.0,0.0,0.0,0.0,0.0,0.0,0.0,0.0,0.0,0.0,0.0,0.0,0.0,0.0,10.9494,11.2506,11.29,11.3273,0.0,0.0,11.3763,11.2884,11.272,11.1844,0.0,0.0,0.0,0.0,0.0,0.0,0.0,0.0,0.0,0.0,0.0,0.0,0.0,0.0,0.0,0.0,0.0,0.0,0.0,0.0,0.0,0.0,0.0,0.0,0.0,0.0,0.0,0.0,0.0,0.0,0.0,0.0,0.0,0.0,0.0,0.0,0.0,0.0,0.0,0.0,0.0,0.0,0.0,0.0,0.0,0.0,0.0,0.0,0.0,0.0,0.0,0.0,0.0,0.0,11.9141,12.4641,12.9888,13.3824,13.6317,13.6597,13.5397,13.2482,12.7966,12.2508,0.0,0.0,0.0,0.0,0.0,0.0,0.0,0.0,0.0,0.0,0.0,0.0,0.0,0.0,0.0,0.0,0.0,0.0,0.0,0.0,0.0,0.0,0.0,0.0,0.0,0.0,0.0,0.0,0.0,0.0,0.0,0.0,0.0,0.0,0.0,0.0,0.0,0.0,0.0,0.0,0.0,0.0,10.8884,11.0025,0.0,0.0,0.0,11.1216,11.0523,0.0,0.0,0.0,0.0,0.0,0.0,0.0,0.0,0.0,0.0,0.0,0.0,0.0,0.0,0.0,0.0,0.0,0.0,0.0,0.0,0.0,0.0,0.0,0.0,0.0,0.0,0.0,0.0,0.0,0.0,0.0,0.0,0.0,0.0,0.0,0.0,0.0,0.0,0.0,0.0,0.0,0.0,0.0,0.0,0.0,0.0,0.0,0.0,0.0,0.0,0.0,0.0,0.0,0.0,0.0,0.0,0.0,12.3064,12.7174,13.0381,13.2495,13.3606,13.2676,12.9655,12.6651,12.1719,0.0,0.0,0.0,0.0,0.0,0.0,0.0,0.0,0.0,0.0,0.0,0.0,0.0,0.0,0.0,0.0,0.0,0.0,0.0,0.0,0.0,0.0,0.0,0.0,0.0,0.0,0.0,0.0,0.0,0.0,0.0,0.0,0.0,0.0,0.0,0.0,0.0,0.0,0.0,0.0,0.0,10.5531,10.4992,10.7168,10.864,0.0,0.0,10.8283,10.8315,10.8332,0.0,0.0,0.0,0.0,0.0,0.0,0.0,0.0,0.0,0.0,0.0,0.0,0.0,0.0,0.0,0.0,0.0,0.0,0.0,0.0,0.0,0.0,0.0,0.0,0.0,0.0,0.0,0.0,0.0,0.0,0.0,0.0,0.0,0.0,0.0,0.0,0.0,0.0,0.0,0.0,0.0,0.0,0.0,0.0,0.0,0.0,0.0,0.0,0.0,0.0,0.0,0.0,0.0,0.0,0.0,0.0,12.1187,12.5844,12.9275,13.148,13.2541,13.1513,12.8183,12.4237,11.9286,0.0,0.0,0.0,0.0,0.0,0.0,0.0,0.0,0.0,0.0,0.0,0.0,0.0,0.0,0.0,0.0,0.0,0.0,0.0,0.0,0.0,0.0,0.0,0.0,0.0,0.0,0.0,0.0,0.0,0.0,0.0,0.0,0.0,0.0,0.0,0.0,0.0,0.0,0.0,0.0,0.0,10.1355,10.2167,10.2596,0.0,0.0,0.0,0.0,10.3043,10.3006,0.0,0.0,0.0,0.0,0.0,0.0,0.0,0.0,0.0,0.0,0.0,0.0,0.0,0.0,0.0,0.0,0.0,0.0,0.0,0.0,0.0,0.0,0.0,0.0,0.0,0.0,0.0,0.0,0.0,0.0,0.0,0.0,0.0,0.0,0.0,0.0,0.0,0.0,0.0,0.0,0.0,0.0,0.0,0.0,0.0,0.0,0.0,0.0,0.0,0.0,0.0,0.0,0.0,0.0,0.0,0.0,12.1012,12.46,12.7724,13.0618,12.9968,12.8724,12.6988,12.2623,11.7858,0.0,0.0,0.0,0.0,0.0,0.0,0.0,0.0,0.0,0.0,0.0,0.0,0.0,0.0,0.0,0.0,0.0,0.0,0.0,0.0,0.0,0.0,0.0,0.0,0.0,0.0,0.0,0.0,0.0,0.0,0.0,0.0,0.0,0.0,0.0,0.0,0.0,0.0,0.0,0.0,9.7351,9.8993,10.0297,0.0,0.0,0.0,0.0,0.0,0.0,10.1459,10.1258,0.0,0.0,0.0,0.0,0.0,0.0,0.0,0.0,0.0,0.0,0.0,0.0,0.0,0.0,0.0,0.0,0.0,0.0,0.0,0.0,0.0,0.0,0.0,0.0,0.0,0.0,0.0,0.0,0.0,0.0,0.0,0.0,0.0,0.0,0.0,0.0,0.0,0.0,0.0,0.0,0.0,0.0,0.0,0.0,0.0,0.0,0.0,0.0,0.0,0.0,0.0,0.0,0.0,0.0,0.0,12.0378,12.2875,12.576,12.9077,12.735,12.6051,12.5367,12.1073,11.659,11.1873,0.0,0.0,0.0,0.0,0.0,0.0,0.0,0.0,0.0,0.0,0.0,0.0,0.0,0.0,0.0,0.0,0.0,0.0,0.0,0.0,0.0,0.0,0.0,0.0,0.0,0.0,0.0,0.0,0.0,0.0,0.0,0.0,0.0,0.0,0.0,0.0,0.0,0.0,0.0,9.4925,9.6864,0.0,0.0,0.0,0.0,0.0,0.0,0.0,0.0,9.9597,0.0,0.0,0.0,0.0,0.0,0.0,0.0,0.0,0.0,0.0,0.0,0.0,0.0,0.0,0.0,0.0,0.0,0.0,0.0,0.0,0.0,0.0,0.0,0.0,0.0,0.0,0.0,0.0,0.0,0.0,0.0,0.0,0.0,0.0,0.0,0.0,0.0,0.0,0.0,0.0,0.0,0.0,0.0,0.0,0.0,0.0,0.0,0.0,0.0,0.0,0.0,0.0,0.0,0.0,0.0,0.0,11.9708,12.3064,12.4876,12.6372,12.5659,12.2592,11.9031,11.4599,10.9059,0.0,0.0,0.0,0.0,0.0,0.0,0.0,0.0,0.0,0.0,0.0,0.0,0.0,0.0,0.0,0.0,0.0,0.0,0.0,0.0,0.0,0.0,0.0,0.0,0.0,0.0,0.0,0.0,0.0,0.0,0.0,0.0,0.0,0.0,0.0,0.0,0.0,0.0,8.9385,9.1885,0.0,0.0,0.0,0.0,0.0,0.0,0.0,0.0,9.4021,0.0,0.0,0.0,0.0,0.0,0.0,0.0,0.0,0.0,0.0,0.0,0.0,0.0,0.0,0.0,0.0,0.0,0.0,0.0,0.0,0.0,0.0,0.0,0.0,0.0,0.0,0.0,0.0,0.0,0.0,0.0,0.0,0.0,0.0,0.0,0.0,0.0,0.0,0.0,0.0,0.0,0.0,0.0,0.0,0.0,0.0,0.0,0.0,0.0,0.0,0.0,0.0,0.0,0.0,0.0,0.0,0.0,0.0,12.1186,12.4501,12.4344,12.351,12.2088,11.6818,11.1225,0.0,0.0,0.0,0.0,0.0,0.0,0.0,0.0,0.0,0.0,0.0,0.0,0.0,0.0,0.0,0.0,0.0,0.0,0.0,0.0,0.0,0.0,0.0,0.0,0.0,0.0,0.0,0.0,0.0,0.0,0.0,0.0,0.0,0.0,0.0,0.0,0.0,0.0,0.0,0.0,0.0,0.0,0.0,0.0,0.0,0.0,0.0,0.0,0.0,0.0,0.0,0.0,0.0,0.0,0.0,0.0,0.0,0.0,0.0,0.0,0.0,0.0,0.0,0.0,0.0,0.0,0.0,0.0,0.0,0.0,0.0,0.0,0.0,0.0,0.0,0.0,0.0,0.0,0.0,0.0,0.0,0.0,0.0,0.0,0.0,0.0,0.0,0.0,0.0,0.0,0.0,0.0,0.0,0.0,0.0,0.0,0.0,0.0,0.0,0.0,0.0,0.0,0.0,0.0,0.0,0.0,0.0,0.0,11.9154,12.3382,12.1878,12.1006,12.079,11.4234,10.8014,0.0,0.0,0.0,0.0,0.0,0.0,0.0,0.0,0.0,0.0,0.0,0.0,0.0,0.0,0.0,0.0,0.0,0.0,0.0,0.0,0.0,0.0,0.0,0.0,0.0,0.0,0.0,0.0,0.0,0.0,0.0,0.0,0.0,0.0,0.0,0.0,0.0,0.0,0.0,0.0,0.0,0.0,0.0,0.0,0.0,0.0,0.0,0.0,9.1756,0.0,0.0,0.0,0.0,0.0,0.0,0.0,0.0,0.0,0.0,0.0,0.0,0.0,0.0,0.0,0.0,0.0,0.0,0.0,0.0,0.0,0.0,0.0,0.0,0.0,0.0,0.0,0.0,0.0,0.0,0.0,0.0,0.0,0.0,0.0,0.0,0.0,0.0,0.0,0.0,0.0,0.0,0.0,0.0,0.0,0.0,0.0,0.0,0.0,0.0,0.0,0.0,0.0,0.0,0.0,0.0,0.0,0.0,0.0,11.623,11.8352,11.9598,11.8741,11.5549,11.0895,10.615,0.0,0.0,0.0,0.0,0.0,0.0,0.0,0.0,0.0,0.0,0.0,0.0,0.0,0.0,0.0,0.0,0.0,0.0,0.0,0.0,0.0,0.0,0.0,0.0,0.0,0.0,0.0,0.0,0.0,0.0,0.0,0.0,0.0,0.0,0.0,0.0,0.0,0.0,0.0,0.0,0.0,0.0,0.0,0.0,0.0,0.0,0.0,0.0,0.0,0.0,0.0,0.0,0.0,0.0,0.0,0.0,0.0,0.0,0.0,0.0,0.0,0.0,0.0,0.0,0.0,0.0,0.0,0.0,0.0,0.0,0.0,0.0,0.0,0.0,0.0,0.0,0.0,0.0,0.0,0.0,0.0,0.0,0.0,0.0,0.0,0.0,0.0,0.0,0.0,0.0,0.0,0.0,0.0,0.0,0.0,0.0,0.0,0.0,0.0,0.0,0.0,0.0,0.0,0.0,0.0,0.0,0.0,0.0,11.3754,11.6547,11.6964,11.5055,11.0844,10.7706,10.3888,0.0,0.0,0.0,0.0,0.0,0.0,0.0,0.0,0.0,0.0,0.0,0.0,0.0,0.0,0.0,0.0,0.0,0.0,0.0,0.0,0.0,0.0,0.0,0.0,0.0,0.0,0.0,0.0,0.0,0.0,0.0,0.0,0.0,0.0,0.0,0.0,0.0,0.0,0.0,0.0,0.0,0.0,0.0,0.0,0.0,0.0,0.0,0.0,0.0,0.0,0.0,0.0,0.0,0.0,0.0,0.0,0.0,0.0,0.0,0.0,0.0,0.0,0.0,0.0,0.0,0.0,0.0,0.0,0.0,0.0,0.0,0.0,0.0,0.0,0.0,0.0,0.0,0.0,0.0,0.0,0.0,0.0,0.0,0.0,0.0,0.0,0.0,0.0,0.0,0.0,0.0,0.0,0.0,0.0,0.0,0.0,0.0,0.0,0.0,0.0,0.0,0.0,0.0,0.0,0.0,0.0,0.0,0.0,0.0,11.4218,11.3117,11.0709,10.713,10.4462,10.1037,0.0,0.0,0.0,0.0,0.0,0.0,0.0,0.0,0.0,0.0,0.0,0.0,0.0,0.0,0.0,0.0,0.0,0.0,0.0,0.0,0.0,0.0,0.0,0.0,0.0,0.0,0.0,0.0,0.0,0.0,0.0,0.0,0.0,0.0,0.0,0.0,0.0,0.0,0.0,0.0,0.0,0.0,0.0,0.0,0.0,0.0,0.0,0.0,0.0,0.0,0.0,0.0,0.0,0.0,0.0,0.0,0.0,0.0,0.0,0.0,0.0,0.0,0.0,0.0,0.0,0.0,0.0,0.0,0.0,0.0,0.0,0.0,0.0,0.0,0.0,0.0,0.0,0.0,0.0,0.0,0.0,0.0,0.0,0.0,0.0,0.0,0.0,0.0,0.0,0.0,0.0,0.0,0.0,0.0,0.0,0.0,0.0,0.0,0.0,0.0,0.0,0.0,0.0,0.0,0.0,0.0,0.0,0.0,0.0,11.0503,10.778,10.5787,10.4682,10.1117,9.7441,0.0,0.0,0.0,0.0,0.0,0.0,0.0,0.0,0.0,0.0,0.0,0.0,0.0,0.0,0.0,0.0,0.0,0.0,0.0,0.0,0.0,0.0,0.0,0.0,0.0,0.0,0.0,0.0,0.0,0.0,0.0,0.0,0.0,0.0,0.0,0.0,0.0,0.0,0.0,0.0,0.0,0.0,0.0,0.0,0.0,0.0,0.0,0.0,0.0,0.0,0.0,0.0,0.0,0.0,0.0,0.0,0.0,0.0,0.0,0.0,0.0,0.0,0.0,0.0,0.0,0.0,0.0,0.0,0.0,0.0,0.0,0.0,0.0,0.0,0.0,0.0,0.0,0.0,0.0,0.0,0.0,0.0,0.0,0.0,0.0,0.0,0.0,0.0,0.0,0.0,0.0,0.0,0.0,0.0,0.0,0.0,0.0,0.0,0.0,0.0,0.0,0.0,0.0,0.0,0.0,0.0,0.0,0.0,0.0,10.5217,10.4604,10.3475,10.1839,9.91,9.5494,9.1042,0.0,0.0,0.0,0.0,0.0,0.0,0.0,0.0,0.0,0.0,0.0,0.0,0.0,0.0,0.0,0.0,0.0,0.0,0.0,0.0,0.0,0.0,0.0,0.0,0.0,0.0,0.0,0.0,0.0,0.0,0.0,0.0,0.0,0.0,0.0,0.0,0.0,0.0,0.0,0.0,0.0,0.0,0.0,0.0,0.0,0.0,0.0,0.0,0.0,0.0,0.0,0.0,0.0,0.0,0.0,0.0,0.0,0.0,0.0,0.0,0.0,0.0,0.0,0.0,0.0,0.0,0.0,0.0,0.0,0.0,0.0,0.0,0.0,0.0,0.0,0.0,0.0,0.0,0.0,0.0,0.0,0.0,0.0,0.0,0.0,0.0,0.0,0.0,0.0,0.0,0.0,0.0,0.0,0.0,0.0,0.0,0.0,0.0,0.0,0.0,0.0,0.0,0.0,0.0,0.0,0.0,0.0,0.0,10.0254,10.1095,10.0659,9.8826,9.6356,9.2963,0.0,0.0,0.0,0.0,0.0,0.0,0.0,0.0,0.0,0.0,0.0,0.0,0.0,0.0,0.0,0.0,0.0,0.0,0.0,0.0,0.0,0.0,0.0,0.0,0.0,0.0,0.0,0.0,0.0,0.0,0.0,0.0,0.0,0.0,0.0,0.0,0.0,0.0,0.0,0.0,0.0,0.0,0.0,0.0,0.0,0.0,0.0,0.0,0.0,0.0,0.0,0.0,0.0,0.0,0.0,0.0,0.0,0.0,0.0,0.0,0.0,0.0,0.0,0.0,0.0,0.0,0.0,0.0,0.0,0.0,0.0,0.0,0.0,0.0,0.0,0.0,0.0,0.0,0.0,0.0,0.0,0.0,0.0,0.0,0.0,0.0,0.0,0.0,0.0,0.0,0.0,0.0,0.0,0.0,0.0,0.0,0.0,0.0,0.0,0.0,0.0,0.0,0.0,0.0,0.0,0.0,0.0,0.0,9.487,9.578,9.6874,9.7005,9.5853,9.2598,8.9573,0.0,0.0,0.0,0.0,0.0,0.0,0.0,0.0,0.0,0.0,0.0,0.0,0.0,0.0,0.0,0.0,0.0,0.0,0.0,0.0,0.0,0.0,0.0,0.0,0.0,0.0,0.0,0.0,0.0,0.0,0.0,0.0,0.0,0.0,0.0,0.0,0.0,0.0,0.0,0.0,0.0,0.0,0.0,0.0,0.0,0.0,0.0,0.0,0.0,0.0,0.0,0.0,0.0,0.0,0.0,0.0,0.0,0.0,0.0,0.0,0.0,0.0,0.0,0.0,0.0,0.0,0.0,0.0,0.0,0.0,0.0,0.0,0.0,0.0,0.0,0.0,0.0,0.0,0.0,0.0,0.0,0.0,0.0,0.0,0.0,0.0,0.0,0.0,0.0,0.0,0.0,0.0,0.0,0.0,0.0,0.0,0.0,0.0,0.0,0.0,0.0,0.0,0.0,0.0,0.0,0.0,0.0,0.0,0.0,9.4058,0.0,9.4925,0.0,9.1642,8.8805,0.0,0.0,0.0,0.0,0.0,0.0,0.0,0.0,0.0,0.0,0.0,0.0,0.0,0.0,0.0,0.0,0.0,0.0,0.0,0.0,0.0,0.0,0.0,0.0,0.0,0.0,0.0,0.0,0.0,0.0,0.0,0.0,0.0,0.0,0.0,0.0,0.0,0.0,0.0,0.0,0.0,0.0,0.0,0.0,0.0,0.0,0.0,0.0,0.0,0.0,0.0,0.0,0.0,0.0,0.0,0.0,0.0,0.0,0.0,0.0,0.0,0.0,0.0,0.0,0.0,0.0,0.0,0.0,0.0,0.0,0.0,0.0,0.0,0.0,0.0,0.0,0.0,0.0,0.0,0.0,0.0,0.0,0.0,0.0,0.0,0.0,0.0,0.0,0.0,0.0,0.0,0.0,0.0,0.0,0.0,0.0,0.0,0.0,0.0,0.0,0.0,0.0,0.0,0.0,0.0,0.0,0.0,0.0,0.0,9.3032,9.3427,9.3199,9.2448,8.9944,8.7357,0.0,0.0,0.0,0.0,0.0,0.0,0.0,0.0,0.0,0.0,0.0,0.0,0.0,0.0,0.0,0.0,0.0,0.0,0.0,0.0,0.0,0.0,0.0,0.0,0.0,0.0,0.0,0.0,0.0,0.0,0.0,0.0,0.0,0.0,0.0,0.0,0.0,0.0,0.0,0.0,0.0,0.0,0.0,0.0,0.0,0.0,0.0,0.0,0.0,0.0,0.0,0.0,0.0,0.0,0.0,0.0,0.0,0.0,0.0,0.0,0.0,0.0,0.0,0.0,0.0,0.0,0.0,0.0,0.0,0.0,0.0,0.0,0.0,0.0,0.0,0.0,0.0,0.0,0.0,0.0,0.0,0.0,0.0,0.0,0.0,0.0,0.0,0.0,0.0,0.0,0.0,0.0,0.0,0.0,0.0,0.0,0.0,0.0,0.0,0.0,0.0,0.0,0.0,0.0,0.0,0.0,0.0,0.0,0.0,0.0,9.2421,9.1832,9.0974,8.7584,8.5422,0.0,0.0,0.0,0.0,0.0,0.0,0.0,0.0,0.0,0.0,0.0,0.0,0.0,0.0,0.0,0.0,0.0,0.0,0.0,0.0,0.0,0.0,0.0,0.0,0.0,0.0,0.0,0.0,0.0,0.0,0.0,0.0,0.0,0.0,0.0,0.0,0.0,0.0,0.0,0.0,0.0,0.0,0.0,0.0,0.0,0.0,0.0,0.0,0.0,0.0,0.0,0.0,0.0,0.0,0.0,0.0,0.0,0.0,0.0,0.0,0.0,0.0,0.0,0.0,0.0,0.0,0.0,0.0,0.0,0.0,0.0,0.0,0.0,0.0,0.0,0.0,0.0,0.0,0.0,0.0,0.0,0.0,0.0,0.0,0.0,0.0,0.0,0.0,0.0,0.0,0.0,0.0,0.0,0.0,0.0,0.0,0.0,0.0,0.0,0.0,0.0,0.0,0.0,0.0,0.0,0.0,0.0,0.0,0.0,0.0,9.1609,0.0,9.0801,8.7357,8.5251,8.4742,0.0,0.0,0.0,0.0,0.0,0.0,0.0,0.0,0.0,0.0,0.0,0.0,0.0,0.0,0.0,0.0,0.0,0.0,0.0,0.0,0.0,0.0,0.0,0.0,0.0,0.0,0.0,0.0,0.0,0.0,0.0,0.0,0.0,0.0,0.0,0.0,0.0,0.0,0.0,0.0,0.0,0.0,0.0,0.0,0.0,0.0,0.0,0.0,0.0,0.0,0.0,0.0,0.0,0.0,0.0,0.0,0.0,0.0,0.0,0.0,0.0,0.0,0.0,0.0,0.0,0.0,0.0,0.0,0.0,0.0,0.0,0.0,0.0,0.0,0.0,0.0,0.0,0.0,0.0,0.0,0.0,0.0,0.0,0.0,0.0,0.0,0.0,0.0,0.0,0.0,0.0,0.0,0.0,0.0,0.0,0.0,0.0,0.0,0.0,0.0,0.0,0.0,0.0,0.0,0.0,0.0,0.0,0.0,0.0,0.0,0.0,9.0655,8.7895,8.5626,0.0,0.0,0.0,0.0,0.0,0.0,0.0,0.0,0.0,0.0,0.0,0.0,0.0,0.0,0.0,0.0,0.0,0.0,0.0,0.0,0.0,0.0,0.0,0.0,0.0,0.0,0.0,0.0,0.0,0.0,0.0,0.0,0.0,0.0,0.0,0.0,0.0,0.0,0.0,0.0,0.0,0.0,0.0,0.0,0.0,0.0,0.0,0.0,0.0,0.0,0.0,0.0,0.0,0.0,0.0,0.0,0.0,0.0,0.0,0.0,0.0,0.0,0.0,0.0,0.0,0.0,0.0,0.0,0.0,0.0,0.0,0.0,0.0,0.0,0.0,0.0,0.0,0.0,0.0,0.0,0.0,0.0,0.0,0.0,0.0,0.0,0.0,0.0,0.0,0.0,0.0,0.0,0.0,0.0,0.0,0.0,0.0,0.0,0.0,0.0,0.0,0.0,0.0,0.0,0.0,0.0,0.0,0.0,0.0,0.0,0.0,9.0265,9.0011,8.8581,0.0,8.2677,0.0,0.0,0.0,0.0,0.0,0.0,0.0,0.0,0.0,0.0,0.0,0.0,0.0,0.0,0.0,0.0,0.0,0.0,0.0,0.0,0.0,0.0,0.0,0.0,0.0,0.0,0.0,0.0,0.0,0.0,0.0,0.0,0.0,0.0,0.0,0.0,0.0,0.0,0.0,0.0,0.0,0.0,0.0,0.0,0.0,0.0,0.0,0.0,0.0,0.0,0.0,0.0,0.0,0.0,0.0,0.0,0.0,0.0,0.0,0.0,0.0,0.0,0.0,0.0,0.0,0.0,0.0,0.0,0.0,0.0,0.0,0.0,0.0,0.0,0.0,0.0,0.0,0.0,0.0,0.0,0.0,0.0,0.0,0.0,0.0,0.0,0.0,0.0,0.0,0.0,0.0,0.0,0.0,0.0,0.0,0.0,0.0,0.0,0.0,0.0,0.0,0.0,0.0,0.0,0.0,0.0,0.0,0.0,0.0,0.0,0.0,0.0,8.7208,8.5283,8.3202,0.0,0.0,0.0,0.0,0.0,0.0,0.0,0.0,0.0,0.0,0.0,0.0,0.0,0.0,0.0,0.0,0.0,0.0,0.0,0.0,0.0,0.0,0.0,0.0,0.0,0.0,0.0,0.0,0.0,0.0,0.0,0.0,0.0,0.0,0.0,0.0,0.0,0.0,0.0,0.0,0.0,0.0,0.0,0.0,0.0,0.0,0.0,0.0,0.0,0.0,0.0,0.0,0.0,0.0,0.0,0.0,0.0,0.0,0.0,0.0,0.0,0.0,0.0,0.0,0.0,0.0,0.0,0.0,0.0,0.0,0.0,0.0,0.0,0.0,0.0,0.0,0.0,0.0,0.0,0.0,0.0,0.0,0.0,0.0,0.0,0.0,0.0,0.0,0.0,0.0,0.0,0.0,0.0,0.0,0.0,0.0,0.0,0.0,0.0,0.0,0.0,0.0,0.0,0.0,0.0,0.0,0.0,0.0,0.0,0.0,8.724,8.7426,8.5727,8.4319,8.33,0.0,0.0,0.0,0.0,0.0,0.0,0.0,0.0,0.0,0.0,0.0,0.0,0.0,0.0,0.0,0.0,0.0,0.0,0.0,0.0,0.0,0.0,0.0,0.0,0.0,0.0,0.0,0.0,0.0,0.0,0.0,0.0,0.0,0.0,0.0,0.0,0.0,0.0,0.0,0.0,0.0,0.0,0.0,0.0,0.0,0.0,0.0,0.0,0.0,0.0,0.0,0.0,0.0,0.0,0.0,0.0,0.0,0.0,0.0,0.0,0.0,0.0,0.0,0.0,0.0,0.0,0.0,0.0,0.0,0.0,0.0,0.0,0.0,0.0,0.0,0.0,0.0,0.0,0.0,0.0,0.0,0.0,0.0,0.0,0.0,0.0,0.0,0.0,0.0,0.0,0.0,0.0,0.0,0.0,0.0,0.0,0.0,0.0,0.0,0.0,0.0,0.0,0.0,0.0,0.0,0.0,0.0,0.0,0.0,0.0,0.0,0.0,0.0,0.0,8.2994,0.0,0.0,0.0,0.0,0.0,0.0,0.0,0.0,0.0,0.0,0.0,0.0,0.0,0.0,0.0,0.0,0.0,0.0,0.0,0.0,0.0,0.0,0.0,0.0,0.0,0.0,0.0,0.0,0.0,0.0,0.0,0.0,0.0,0.0,0.0,0.0,0.0,0.0,0.0,0.0,0.0,0.0,0.0,0.0,0.0,0.0,0.0,0.0,0.0,0.0,0.0,0.0,0.0,0.0,0.0,0.0,0.0,0.0,0.0,0.0,0.0,0.0,0.0,0.0,0.0,0.0,0.0,0.0,0.0,0.0,0.0,0.0,0.0,0.0,0.0,0.0,0.0,0.0,0.0,0.0,0.0,0.0,0.0,0.0,0.0,0.0,0.0,0.0,0.0,0.0,0.0,0.0,0.0,0.0,0.0,0.0,0.0,0.0,0.0,0.0,0.0,0.0,0.0,0.0,0.0,0.0,0.0,0.0,0.0,0.0,0.0,0.0,0.0,0.0,0.0,0.0,0.0,0.0,0.0,0.0,0.0,0.0,0.0,0.0,0.0,0.0,0.0,0.0,0.0,0.0,0.0,0.0,0.0,0.0,0.0,0.0,0.0,0.0,0.0,0.0,0.0,0.0,0.0,0.0,0.0,0.0,0.0,0.0,0.0,0.0,0.0,0.0,0.0,0.0,0.0,0.0,0.0,0.0,0.0,0.0,0.0,0.0,0.0,0.0,0.0,0.0,0.0,0.0,0.0,0.0,0.0,0.0,0.0,0.0,0.0,0.0,0.0,0.0,0.0,0.0,0.0,0.0,0.0,0.0,0.0,0.0,0.0,0.0,0.0,0.0,0.0,0.0,0.0,0.0,0.0,0.0,0.0,0.0,0.0,0.0,0.0,0.0,0.0,0.0,0.0,0.0,0.0,0.0,0.0,0.0,0.0,0.0,0.0,0.0,0.0,0.0,0.0,0.0,0.0,0.0,0.0,0.0,0.0,0.0,0.0,0.0,0.0,0.0,0.0,0.0,0.0,0.0,0.0,0.0,0.0,0.0,0.0,0.0,0.0,0.0,0.0,0.0,0.0,0.0,0.0,0.0,0.0,0.0,0.0,0.0,0.0,0.0,0.0,0.0,0.0,0.0,0.0,0.0,0.0,0.0,0.0,0.0,0.0,0.0,0.0,0.0,0.0,0.0,0.0,0.0,0.0,0.0,0.0,0.0,0.0,0.0,0.0,0.0,0.0,0.0,0.0,0.0,0.0,0.0,0.0,0.0,0.0,0.0,0.0,0.0,0.0,0.0,0.0,0.0,0.0,0.0,0.0,0.0,0.0,0.0,0.0,0.0,0.0,0.0,0.0,0.0,0.0,0.0,0.0,0.0,0.0,0.0,0.0,0.0,0.0,0.0,0.0,0.0,0.0,0.0,0.0,0.0,0.0,0.0,0.0,0.0,0.0,0.0,0.0,0.0,0.0,0.0,0.0,0.0,0.0,0.0,0.0,0.0,0.0,0.0,0.0,0.0,0.0,0.0,0.0,0.0,0.0,0.0,0.0,0.0,0.0,0.0,0.0,0.0,0.0,0.0,0.0,0.0,0.0,0.0,0.0,0.0,0.0,0.0,0.0,0.0,0.0,0.0,0.0,0.0,0.0,0.0,0.0,0.0,0.0,0.0,0.0,0.0,0.0,0.0,0.0,0.0,0.0,0.0,0.0,0.0,0.0,0.0,0.0,0.0,0.0,0.0,0.0,0.0,0.0,0.0,0.0,0.0,0.0,0.0,0.0,0.0,0.0,0.0,0.0,0.0,0.0,0.0,0.0,0.0,0.0,0.0,0.0,0.0,0.0,0.0,0.0,0.0,0.0,0.0,0.0,0.0,0.0,0.0,0.0,0.0,0.0,0.0,0.0,0.0,0.0,0.0,0.0,0.0,0.0,0.0,0.0,0.0,0.0,0.0,0.0,0.0,0.0,0.0,0.0,0.0,0.0,0.0,0.0,0.0,0.0,0.0,0.0,0.0,0.0,0.0,0.0,0.0,0.0,0.0,0.0,0.0,0.0,0.0,0.0,0.0,0.0,0.0,0.0,0.0,0.0,0.0,0.0,0.0,0.0,0.0,0.0,0.0,0.0,0.0,0.0,0.0,0.0,0.0,0.0,0.0,0.0,0.0,0.0,0.0,0.0,0.0,0.0,0.0,0.0,0.0,0.0,0.0,0.0,0.0,0.0,0.0,0.0,0.0,0.0,0.0,0.0,0.0,0.0,0.0,0.0,0.0,0.0,0.0,0.0,0.0,0.0,0.0,0.0,0.0,0.0,0.0,0.0,0.0,0.0,0.0,0.0,0.0,0.0,0.0,0.0,0.0,0.0,0.0,0.0,0.0,0.0,0.0,0.0,0.0,0.0,0.0,0.0,0.0,0.0,0.0,0.0,0.0,0.0,0.0,0.0,0.0,0.0,0.0,0.0,0.0,0.0,0.0,0.0,0.0,0.0,0.0,0.0,0.0,0.0,0.0,0.0,0.0,0.0,0.0,0.0,0.0,0.0,0.0,0.0,0.0,0.0,0.0,0.0,0.0,0.0,0.0,0.0,0.0,0.0,0.0,0.0,0.0,0.0,0.0,0.0,0.0,0.0,0.0,0.0,0.0,0.0,0.0,0.0,0.0,0.0,0.0,0.0,0.0,0.0,0.0,0.0,0.0,0.0,0.0,0.0,0.0,0.0,0.0,0.0,0.0,0.0,0.0,0.0,0.0,0.0,0.0,0.0,0.0,0.0,0.0,0.0,0.0,0.0,0.0,0.0,0.0,0.0,0.0,0.0,0.0,0.0,0.0,0.0,0.0,0.0,0.0,0.0,0.0,0.0,0.0,0.0,0.0,0.0,0.0,0.0,0.0,0.0,0.0,0.0,0.0,0.0,0.0,0.0,0.0,0.0,0.0,0.0,0.0,0.0,0.0,0.0,0.0,0.0,0.0,0.0,0.0,0.0,0.0,0.0,0.0,0.0,0.0,0.0,0.0,0.0,0.0,0.0,0.0,0.0,0.0,0.0,0.0,0.0,0.0,0.0,0.0,0.0,0.0,0.0,0.0,0.0,0.0,0.0,0.0,0.0,0.0,0.0,0.0,0.0,0.0,0.0,0.0,0.0,0.0,0.0,0.0,0.0,0.0,0.0,0.0,0.0,0.0,0.0,0.0,0.0,0.0,0.0,0.0,0.0,0.0,0.0,0.0,0.0,0.0,0.0,0.0,0.0,0.0,0.0,0.0,0.0,0.0,0.0,0.0,0.0,0.0,0.0,0.0,0.0,0.0,0.0,0.0,0.0,0.0,0.0,0.0,0.0,0.0,0.0,0.0,0.0,0.0,0.0,0.0,0.0,0.0,0.0,0.0,0.0,0.0,0.0,0.0,0.0,0.0,0.0,0.0,0.0,0.0,0.0,0.0,0.0,0.0,0.0,0.0,0.0,0.0,0.0,0.0,0.0,0.0,0.0,0.0,0.0,0.0,0.0,0.0,0.0,0.0,0.0,0.0,0.0,0.0,0.0,0.0,0.0,0.0,0.0,0.0,0.0,0.0,0.0,0.0,0.0,0.0,0.0,0.0,0.0,0.0,0.0,0.0,0.0,0.0,0.0,0.0,0.0,0.0,0.0,0.0,0.0,0.0,0.0,0.0,0.0,0.0,0.0,0.0,0.0,0.0,0.0,0.0,0.0,0.0,0.0,0.0,0.0,0.0,0.0,0.0,0.0,0.0,0.0,0.0,0.0,0.0,0.0,0.0,0.0,0.0,0.0,0.0,0.0,0.0,0.0,0.0,0.0,0.0,0.0,0.0,0.0,0.0,0.0,0.0,0.0,0.0,0.0,0.0,0.0,0.0,0.0,0.0,0.0,0.0,0.0,0.0,0.0,0.0,0.0,0.0,0.0,0.0,0.0,0.0,0.0,0.0,0.0,0.0,0.0,0.0,0.0,0.0,0.0,0.0,0.0,0.0,0.0,0.0,0.0,0.0,0.0,0.0,0.0,0.0,0.0,0.0,0.0,0.0,0.0,0.0,0.0,0.0,0.0,0.0,0.0,0.0,0.0,0.0,0.0,0.0,0.0,0.0,0.0,0.0,0.0,0.0,0.0,0.0,0.0,0.0,0.0,0.0,0.0,0.0,0.0,0.0,0.0,0.0,0.0,0.0,0.0,0.0,0.0,0.0,0.0,0.0,0.0,0.0,0.0,0.0,0.0,0.0,0.0,0.0,0.0,0.0,0.0,0.0,0.0,0.0,0.0,0.0,0.0,0.0,0.0,0.0,0.0,0.0,0.0,0.0,0.0,0.0,0.0,0.0,0.0,0.0,0.0,0.0,0.0,0.0,0.0,0.0,0.0,0.0]}],[{"header":{"parameterUnit":"kt","parameterCategory":2,"dx":1,"dy":1,"la1":29.587661999999998,"la2":31.0,"lo1":-88.76705300000003,"lo2":-86.6583820000003,"nx":115,"ny":88,"refTime":"2022-09-27T06:00:00:Z","depth":0,"parameterNumber":2,"parameterNumberName":"V-component_of_WINDS"},"data":[13.4914,13.4914,13.4914,13.5446,13.6266,13.6315,13.6759,13.7491,13.7491,13.778,13.7829,13.7829,13.7589,13.7491,13.6657,13.6315,13.6173,13.5641,13.5061,13.4914,13.5153,13.5012,13.4914,13.4914,13.4914,13.4914,13.4914,13.4914,13.4914,13.4914,13.4914,13.4914,13.4914,13.4914,13.4914,13.4914,13.4914,13.4914,13.4914,13.4914,13.4914,13.4914,13.4914,13.4914,13.4914,13.4914,13.4914,13.4914,13.4914,13.4914,13.4914,13.4914,13.4914,13.4914,13.4914,13.4914,13.4914,13.4914,13.4914,13.4914,13.4914,13.4914,13.4914,13.4914,13.4914,13.4914,13.4914,13.4914,13.4914,13.4914,13.4914,13.4914,13.4914,13.4914,13.4914,13.4914,13.4914,13.4914,13.4914,13.4914,13.4914,13.4914,13.4914,13.4914,13.4914,13.4914,13.4914,13.4914,13.4914,13.4914,13.4914,13.4914,13.4914,13.4914,13.4914,13.4914,13.4914,13.4914,13.4914,13.4914,13.4914,13.4914,13.4914,13.4914,13.4914,13.4914,13.4914,13.4914,13.4914,13.4914,13.4914,13.4914,13.4914,13.4914,13.4914,13.4914,13.4914,13.4914,13.5012,13.5109,13.5153,13.53,13.5402,13.5353,13.5929,13.6657,13.5836,13.5397,13.5348,13.5153,13.5153,13.5061,13.4963,13.4963,13.4914,13.4914,13.4914,13.4914,13.4914,13.4914,13.4914,13.4914,13.4914,13.4914,13.4914,13.4914,13.4914,13.4914,13.4914,13.4914,13.4914,13.4914,13.4914,13.4914,13.4914,13.4914,13.4914,13.4914,13.4914,13.4914,13.4914,13.4914,13.4914,13.4914,13.4914,13.4914,13.4914,13.4914,13.4914,13.4914,13.4914,13.4914,13.4914,13.4914,13.4914,13.4914,13.4914,13.4914,13.4914,13.4914,13.4914,13.4914,13.4914,13.4914,13.4914,13.4914,13.4914,13.4914,13.4914,13.4914,13.4914,13.4914,13.4914,13.4914,13.4914,13.4914,13.4914,13.4914,13.4914,13.4914,13.4914,13.4914,13.4914,13.4914,13.4914,13.4914,13.4914,13.4914,13.4914,13.4914,13.4914,13.4914,13.4914,13.4914,13.4914,13.4914,13.4914,13.4914,13.4914,13.4914,13.4914,13.4914,13.4914,13.4914,13.4914,13.4914,13.4914,13.4914,13.4914,13.4914,13.4914,13.4914,13.4914,13.4914,13.4914,13.4914,13.4914,13.4914,13.4914,13.5202,13.5495,13.5202,13.4914,13.4914,13.4914,13.4963,13.4963,13.4914,13.4914,13.4914,13.4914,13.4914,13.4914,13.4914,13.4914,13.4914,13.4914,13.4914,13.4914,13.4914,13.4914,13.4914,13.4914,13.4914,13.4914,13.4914,13.4914,13.4914,13.4914,13.4914,13.4914,13.4914,13.4914,13.4914,13.4914,13.4914,13.4914,13.4914,13.4914,13.4914,13.4914,13.4914,13.4914,13.4914,13.4914,13.4914,13.4914,13.4914,13.4914,13.4914,13.4914,13.4914,13.4914,13.4914,13.4914,13.4914,13.4914,13.4914,13.4914,13.4914,13.4914,13.4914,13.4914,13.4914,13.4914,13.4914,13.4914,13.4914,13.4914,13.4914,13.4914,13.4914,13.4914,13.4914,13.4914,13.4914,13.4914,13.4914,13.4914,13.4914,13.4914,13.4914,13.4914,13.4914,13.4914,13.4914,13.4914,13.4914,13.4914,13.4914,13.4914,13.4914,13.4914,13.4914,13.4914,13.4914,13.4914,13.4914,13.4914,13.4914,13.4914,13.4914,13.4914,13.4914,13.4914,13.4914,13.4914,13.4914,13.4914,13.4914,13.4914,13.4914,13.4914,13.4914,13.4914,13.4914,13.4914,13.4914,13.4914,13.4914,13.4914,13.4914,13.4914,13.4914,13.4914,13.4914,13.4914,13.4914,13.4914,13.4914,13.4914,13.4914,13.4914,13.4914,13.4914,13.4914,13.4914,13.4914,13.4914,13.4914,13.4914,13.4914,13.4914,13.4914,13.4914,13.4914,13.4914,13.4914,13.4914,13.4914,13.4914,13.4914,13.4914,13.4914,13.4914,13.4914,13.4914,13.4914,13.4914,13.4914,13.4914,13.4914,13.4914,13.4914,13.4914,13.4914,13.4914,13.4914,13.4914,13.4914,13.4914,13.4914,13.4914,13.4914,13.4914,13.4914,13.4914,13.4914,13.4914,13.4914,13.4914,13.4914,13.4914,13.4914,13.4914,13.4914,13.4914,13.4914,13.4914,13.4914,13.4914,13.4914,13.4914,13.4914,13.4914,13.4914,13.4914,13.4914,13.4914,13.4914,13.4914,13.4914,13.4914,13.4914,13.4914,13.4914,13.4914,13.4914,13.4914,13.4914,13.4914,13.4914,13.4914,13.4914,13.4914,13.4914,13.4914,13.4914,13.4914,13.4914,13.4914,13.4914,13.4914,13.4914,13.4914,13.4914,13.4914,13.4914,13.4914,13.4914,13.4914,13.4914,13.4914,13.4914,13.4914,13.4914,13.4914,13.4914,13.4914,13.4914,13.4914,13.4914,13.4914,13.4914,13.4914,13.4914,13.4914,13.4914,13.4914,13.4914,13.4914,13.4914,13.4914,13.4914,13.4914,13.4914,13.4914,13.4914,13.4914,13.4914,13.4914,13.4914,13.4914,13.4914,13.4914,13.4914,13.4914,13.4914,13.4914,13.4914,13.4914,13.4914,13.4914,13.4914,13.4914,13.4914,13.4914,13.4914,13.4914,13.4914,13.4914,13.4914,13.4914,13.4914,13.4914,13.4914,13.4914,13.4914,13.4914,13.4914,13.4914,13.4914,13.4914,13.4914,13.4914,13.4914,13.4914,13.4914,13.4914,13.4914,13.4914,13.4914,13.4914,13.4914,13.4914,13.4914,13.4914,13.4914,13.4914,13.4914,13.4914,13.4914,13.4914,13.4914,13.4914,13.4914,13.4914,13.4914,13.4914,13.4914,13.4914,13.4914,13.4914,13.4914,13.4914,13.4914,13.4914,13.4914,13.4914,13.4914,13.4914,13.4914,13.4914,13.4914,13.4914,13.4914,13.4914,13.4914,13.4914,13.4914,13.4914,13.4914,13.4914,13.4914,13.4914,13.4914,13.4914,13.4914,13.4914,13.4914,13.4914,13.4914,13.4914,13.4914,13.4914,13.4914,13.4914,13.4914,13.4914,13.4914,13.4914,13.4914,13.4914,13.4914,13.4914,13.4914,13.4914,13.4914,13.4914,13.4914,13.4914,13.4914,13.4914,13.4914,13.4914,13.4914,13.4914,13.4914,13.4914,13.4914,13.4914,13.4914,13.4914,13.4914,13.4914,13.4914,13.4914,13.4914,13.4914,13.4914,13.4914,13.4914,13.4914,13.4914,13.4914,13.4914,13.4914,13.4914,13.4914,13.4914,13.4914,13.4914,13.4914,13.4914,13.4914,13.4914,13.4914,13.4914,13.4914,13.4914,13.4914,13.4914,13.4914,13.4914,13.4914,13.4914,13.4914,13.4914,13.4914,13.4914,13.4914,13.4914,13.4914,13.4914,13.4914,13.4914,13.4914,13.4914,13.4914,13.4914,13.4914,13.4914,13.4914,13.4914,13.4914,13.4914,13.4914,13.4914,13.4914,13.4914,13.4914,13.4914,13.4914,13.4914,13.4914,13.4914,13.4914,13.4914,13.4914,13.4914,13.4914,13.4914,13.4914,13.4914,13.4914,13.4914,13.4914,13.4914,13.4914,13.4914,13.4914,13.4914,13.4914,13.4914,13.4914,13.4914,13.4914,13.4914,13.4914,13.4914,13.4914,13.4914,13.4914,13.4914,13.4914,13.4914,13.4914,13.4914,13.4914,13.4914,13.4914,13.4914,13.4914,13.4914,13.4914,13.4914,13.4914,13.4914,13.4914,13.4914,13.4914,13.4914,13.4914,13.4914,13.4914,13.4914,13.4914,13.4914,13.4914,13.4914,13.4914,13.4914,13.4914,13.4914,13.4914,13.4914,13.4914,13.4914,13.4914,13.4914,13.4914,13.4914,13.4914,13.4914,13.4914,13.4914,13.4914,13.4914,13.4914,13.4914,13.4914,13.4914,13.4914,13.4914,13.4914,13.4914,13.4914,13.4914,13.4914,13.4914,13.4914,13.4914,13.4914,13.4914,13.4914,13.4914,13.4914,13.4914,13.4914,13.4914,13.4914,13.4914,13.4914,13.4914,13.4914,13.4914,13.4914,13.4914,13.4914,13.4914,13.4914,13.4914,13.4914,13.4914,13.4914,13.4914,13.4914,13.4914,13.4914,13.4914,13.4914,13.4914,13.4914,13.4914,13.4914,13.4914,13.4914,13.4914,13.4914,13.4914,13.4914,13.4914,13.4914,13.4914,13.4914,13.4914,13.4914,13.4914,13.4914,13.4914,13.4914,13.4914,13.4914,13.4914,13.4914,13.4914,13.4914,13.4914,13.4914,13.4914,13.4914,13.4914,13.4914,13.4914,13.4914,13.4914,13.4914,13.4914,13.4914,13.4914,13.4914,13.4914,13.4914,13.4914,13.4914,13.4914,13.4914,13.4914,13.4914,13.4914,13.4914,13.4914,13.4914,13.4914,13.4914,13.4914,13.4914,13.4914,13.4914,13.4914,13.4914,13.4914,13.4914,13.4914,13.4914,13.4914,13.4914,13.4914,13.4914,13.4914,13.4914,13.4914,13.4914,13.4914,13.4914,13.4914,13.4914,13.4914,13.4914,13.4914,13.4914,13.4914,13.4914,13.4914,13.4914,13.4914,13.4914,13.4914,13.4914,13.4914,13.4914,13.4914,13.4914,13.4914,13.4914,13.4914,13.4914,13.4914,13.4914,13.4914,13.4914,13.4914,13.4914,13.4914,13.4914,13.4914,13.4914,13.4914,13.4914,13.4914,13.4914,13.4914,13.4914,13.4914,13.4914,13.4914,13.4914,13.4914,13.4914,13.4914,13.4914,13.4914,13.4914,13.4914,13.4914,13.4914,13.4914,13.4914,13.4914,13.4914,13.4914,13.4914,13.4914,13.4914,13.4914,13.4914,13.4914,13.4914,13.4914,13.4914,13.4914,13.4914,13.4914,13.4914,13.4914,13.4914,13.4914,13.4914,13.4914,13.4914,13.4914,13.4914,13.4914,13.4914,13.4914,13.4914,13.4914,13.4914,13.4914,13.4914,13.4914,13.4914,13.4914,13.4914,13.4914,13.4914,13.4914,13.4914,13.4914,13.4914,13.4914,13.4914,13.4914,13.4914,13.4914,13.4914,13.4914,13.4914,13.4914,13.4914,13.4914,13.4914,13.4914,13.4914,13.4914,13.4914,13.4914,13.4914,13.4914,13.4914,13.4914,13.4914,13.4914,13.4914,13.4914,13.4914,13.4914,13.4914,13.4914,13.4914,13.4914,13.4914,13.4914,13.4914,13.4914,13.4914,13.4914,13.4914,13.4914,13.4914,13.4914,13.4914,13.4914,13.4914,13.4914,13.4914,13.4914,13.4914,13.4914,13.4914,13.4914,13.4914,13.4914,13.4914,13.4914,13.4914,13.4914,13.4914,13.4914,13.4914,13.4914,13.4914,13.4914,13.4914,13.4914,13.4914,13.4914,13.4914,13.4914,13.4914,13.4914,13.4914,13.4914,13.4914,13.4914,13.4914,13.4914,13.4914,13.4914,13.4914,13.4914,13.4914,13.4914,13.4914,13.4914,13.4914,13.4914,13.4914,13.4914,13.4914,13.4914,13.4914,13.4914,13.4914,13.4914,13.4914,13.4914,13.4914,13.4914,13.4914,13.4914,13.4914,13.4914,13.4914,13.4914,13.4914,13.4914,13.4914,13.4914,13.4914,13.4914,13.4914,13.4914,13.4914,13.4914,13.4914,13.4914,13.4914,13.4914,13.4914,13.4914,13.4914,13.4914,13.4914,13.4914,13.4914,13.4914,13.4914,13.4914,13.4914,13.4914,13.4914,13.4914,13.4914,13.4914,13.4914,13.4914,13.4914,13.4914,13.4914,13.4914,13.4914,13.4914,13.4914,13.4914,13.4914,13.4914,13.4914,13.4914,13.4914,13.4914,13.4914,13.4914,13.4914,13.4914,13.4914,13.4914,13.4914,13.4914,13.4914,13.4914,13.4914,13.4914,13.4914,13.4914,13.4914,13.4914,13.4914,13.4914,13.4914,13.4914,13.4914,13.4914,13.4914,13.4914,13.4914,13.4914,13.4914,13.4914,13.4865,13.4914,13.4914,13.4914,13.4914,13.4914,13.4914,13.4914,13.4914,13.4914,13.4914,13.4914,13.4914,13.4914,13.4914,13.4914,13.4914,13.4914,13.4914,13.4914,13.4914,13.4914,13.4914,13.4914,13.4914,13.4914,13.4914,13.4914,13.4914,13.4914,13.4914,13.4914,13.4914,13.4914,13.4914,13.4914,13.4914,13.4914,13.4914,13.4914,13.4914,13.4914,13.4914,13.4914,13.4914,13.4914,13.4914,13.4914,13.4914,13.4914,13.4914,13.4914,13.4914,13.4914,13.4914,13.4914,13.4914,13.4914,13.4914,13.4914,13.4914,13.4914,13.4914,13.4914,13.4914,13.4914,13.4914,13.4914,13.4914,13.4914,13.4914,13.4914,13.4914,13.4914,13.4914,13.4914,13.4914,13.4914,13.4914,13.4914,13.4914,13.4914,13.4914,13.4914,13.4914,13.4914,13.4914,13.4914,13.4914,13.4914,13.4914,13.4914,13.4914,13.4914,13.4914,13.4914,13.4914,13.4914,13.4914,13.4914,13.4914,13.4914,13.4914,13.4914,13.4914,13.4914,13.4914,13.4914,13.4914,13.4914,13.4914,13.4914,13.4914,13.4914,13.4865,13.467,13.4914,13.4914,13.4914,13.4914,13.4914,13.4914,13.4914,13.4914,13.4914,13.4914,13.4914,13.4914,13.4914,13.4914,13.4914,13.4914,13.4914,13.4914,13.4914,13.4914,13.4914,13.4914,13.4914,13.4914,13.4914,13.4914,13.4914,13.4914,13.4914,13.4914,13.4914,13.4914,13.4914,13.4914,13.4914,13.4914,13.4914,13.4914,13.4914,13.4914,13.4914,13.4914,13.4914,13.4914,13.4914,13.4914,13.4914,13.4914,13.4914,13.4914,13.4914,13.4914,13.4914,13.4914,13.4914,13.4914,13.4914,13.4914,13.4914,13.4914,13.4914,13.4914,13.4914,13.4914,13.4914,13.4914,13.4914,13.4914,13.4914,13.4914,13.4914,13.4914,13.4914,13.4914,13.4914,13.4914,13.4914,13.4914,13.4914,13.4914,13.4914,13.4914,13.4914,13.4914,13.4914,13.4914,13.4914,13.4914,13.4914,13.4914,13.4914,13.4914,13.4914,13.4914,13.4914,13.4914,13.4914,13.4914,13.4914,13.4914,13.4914,13.4914,13.4914,13.4914,13.4914,13.4914,13.4914,13.4914,13.4914,13.4914,13.4914,13.4914,13.4865,13.467,13.4524,13.4914,13.4914,13.4914,13.4914,13.4914,13.4914,13.4914,13.4914,13.4914,13.4914,13.4914,13.4914,13.4914,13.4914,13.4914,13.4914,13.4914,13.4914,13.4914,13.4914,13.4914,13.4914,13.4914,13.4914,13.4914,13.4914,13.4914,13.4914,13.4914,13.4914,13.4914,13.4914,13.4914,13.4914,13.4914,13.4914,13.4914,13.4914,13.4914,13.4914,13.4914,13.4914,13.4914,13.4914,13.4914,13.4914,13.4914,13.4914,13.4914,13.4914,13.4914,13.4914,13.4914,13.4914,13.4914,13.4914,13.4914,13.4914,13.4914,13.4914,13.4914,13.4914,13.4914,13.4914,13.4914,13.4914,13.4914,13.4914,13.4914,13.4914,13.4914,13.4914,13.4914,13.4914,13.4914,13.4914,13.4914,13.4914,13.4914,13.4914,13.4914,13.4914,13.4914,13.4914,13.4914,13.4914,13.4914,13.4914,13.4914,13.4914,13.4914,13.4914,13.4914,13.4914,13.4914,13.4914,13.4914,13.4914,13.4914,13.4914,13.4914,13.4914,13.4914,13.4914,13.4914,13.4914,13.4914,13.4914,13.4914,13.4914,13.4914,13.4865,13.467,13.4475,13.4134,13.4914,13.4914,13.4914,13.4914,13.4914,13.4914,13.4914,13.4914,13.4914,13.4914,13.4914,13.4914,13.4914,13.4914,13.4914,13.4914,13.4914,13.4914,13.4914,13.4914,13.4914,13.4914,13.4914,13.4914,13.4914,13.4914,13.4914,13.4914,13.4914,13.4914,13.4914,13.4914,13.4914,13.4914,13.4914,13.4914,13.4914,13.4914,13.4914,13.4914,13.4914,13.4914,13.4914,13.4914,13.4914,13.4914,13.4914,13.4914,13.4914,13.4914,13.4914,13.4914,13.4914,13.4914,13.4914,13.4914,13.4914,13.4914,13.4914,13.4914,13.4914,13.4914,13.4914,13.4914,13.4914,13.4914,13.4914,13.4914,13.4914,13.4914,13.4914,13.4914,13.4914,13.4914,13.4914,13.4914,13.4914,13.4914,13.4914,13.4914,13.4914,13.4914,13.4914,13.4914,13.4914,13.4914,13.4914,13.4914,13.4914,13.4914,13.4914,13.4914,13.4914,13.4914,13.4914,13.4914,13.4914,13.4914,13.4914,13.4914,13.4914,13.4914,13.4914,13.4914,13.4914,13.4914,13.4914,13.4914,13.4914,13.4914,13.4817,13.4622,13.447,13.4129,13.3738,13.4914,13.4914,13.4914,13.4914,13.4914,13.4914,13.4914,13.4914,13.4914,13.4914,13.4914,13.4914,13.4914,13.4914,13.4914,13.4914,13.4914,13.4914,13.4914,13.4914,13.4914,13.4914,13.4914,13.4914,13.4914,13.4914,13.4914,13.4914,13.4914,13.4914,13.4914,13.4914,13.4914,13.4914,13.4914,13.4914,13.4914,13.4914,13.4914,13.4914,13.4914,13.4914,13.4914,13.4914,13.4914,13.4914,13.4914,13.4914,13.4914,13.4914,13.4914,13.4914,13.4914,13.4914,13.4914,13.4914,13.4914,13.4914,13.4914,13.4914,13.4914,13.4914,13.4914,13.4914,13.4914,13.4914,13.4914,13.4914,13.4914,13.4914,13.4914,13.4914,13.4914,13.4914,13.4914,13.4914,13.4914,13.4914,13.4914,13.4914,13.4914,13.4914,13.4914,13.4914,13.4914,13.4914,13.4914,13.4914,13.4914,13.4914,13.4914,13.4914,13.4914,13.4914,13.4914,13.4914,13.4914,13.4914,13.4914,13.4914,13.4914,13.4914,13.4914,13.4914,13.4914,13.4914,13.4914,13.4914,13.4865,13.467,13.4524,13.4421,13.3982,13.3738,13.3153,13.4914,13.4914,13.4914,13.4914,13.4914,13.4914,13.4914,13.4914,13.4914,13.4914,13.4914,13.4914,13.4914,13.4914,13.4914,13.4914,13.4914,13.4914,13.4914,13.4914,13.4914,13.4914,13.4914,13.4914,13.4914,13.4914,13.4914,13.4914,13.4914,13.4914,13.4914,13.4914,13.4914,13.4914,13.4914,13.4914,13.4914,13.4914,13.4914,13.4914,13.4914,13.4914,13.4914,13.4914,13.4914,13.4914,13.4914,13.4914,13.4914,13.4914,13.4914,13.4914,13.4914,13.4914,13.4914,13.4914,13.4914,13.4914,13.4914,13.4914,13.4914,13.4914,13.4914,13.4914,13.4914,13.4914,13.4914,13.4914,13.4914,13.4914,13.4914,13.4914,13.4914,13.4914,13.4914,13.4914,13.4914,13.4914,13.4914,13.4914,13.4914,13.4914,13.4914,13.4914,13.4914,13.4914,13.4914,13.4914,13.4914,13.4914,13.4914,13.4914,13.4914,13.4914,13.4914,13.4914,13.4914,13.4914,13.4914,13.4914,13.4914,13.4914,13.4914,13.4914,13.4768,13.4768,13.4914,13.4719,13.4378,13.4324,13.4226,13.3543,13.2811,13.2616,13.2128,13.4914,13.4914,13.4914,13.4914,13.4914,13.4914,13.4914,13.4914,13.4914,13.4914,13.4914,13.4914,13.4914,13.4914,13.4914,13.4914,13.4914,13.4914,13.4914,13.4914,13.4914,13.4914,13.4914,13.4914,13.4914,13.4914,13.4914,13.4914,13.4914,13.4914,13.4914,13.4914,13.4914,13.4914,13.4914,13.4914,13.4914,13.4914,13.4914,13.4914,13.4914,13.4914,13.4914,13.4914,13.4914,13.4914,13.4914,13.4914,13.4914,13.4914,13.4914,13.4914,13.4914,13.4914,13.4914,13.4914,13.4914,13.4914,13.4914,13.4914,13.4914,13.4914,13.4914,13.4914,13.4914,13.4914,13.4914,13.4914,13.4914,13.4914,13.4914,13.4914,13.4914,13.4914,13.4914,13.4914,13.4914,13.4914,13.4914,13.4914,13.4914,13.4914,13.4914,13.4914,13.4914,13.4914,13.4914,13.4914,13.4914,13.4914,13.4914,13.4914,13.4914,13.4914,13.4914,13.4914,13.4914,13.4914,13.4914,13.4914,13.4914,13.4914,13.4914,13.4719,13.4568,13.4519,13.4275,13.4031,13.3885,13.3641,13.325,13.2567,13.183,13.1488,13.1244,13.4914,13.4914,13.4914,13.4914,13.4914,13.4914,13.4914,13.4914,13.4914,13.4914,13.4914,13.4914,13.4914,13.4914,13.4914,13.4914,13.4914,13.4914,13.4914,13.4914,13.4914,13.4914,13.4914,13.4914,13.4914,13.4914,13.4914,13.4914,13.4914,13.4914,13.4914,13.4914,13.4914,13.4914,13.4914,13.4914,13.4914,13.4914,13.4914,13.4914,13.4914,13.4914,13.4914,13.4914,13.4914,13.4914,13.4914,13.4914,13.4914,13.4914,13.4914,13.4914,13.4914,13.4914,13.4914,13.4914,13.4914,13.4914,13.4914,13.4914,13.4914,13.4914,13.4914,13.4914,13.4914,13.4914,13.4914,13.4914,13.4914,13.4914,13.4914,13.4914,13.4914,13.4914,13.4914,13.4914,13.4914,13.4914,13.4914,13.4914,13.4914,13.4914,13.4914,13.4914,13.4914,13.4914,13.4914,13.4914,13.4914,13.4914,13.4914,13.4914,13.4914,13.4914,13.467,13.4622,13.4183,13.428,13.4524,13.467,13.4768,13.4865,13.4622,13.447,13.4226,13.3592,13.3299,13.3099,13.2757,13.2464,13.222,13.1683,13.0853,13.0365,13.017,13.4914,13.4914,13.4914,13.4914,13.4914,13.4914,13.4914,13.4914,13.4914,13.4914,13.4914,13.4914,13.4914,13.4914,13.4914,13.4914,13.4914,13.4914,13.4914,13.4914,13.4914,13.4914,13.4914,13.4914,13.4914,13.4914,13.4914,13.4914,13.4914,13.4914,13.4914,13.4914,13.4914,13.4914,13.4914,13.4914,13.4914,13.4914,13.4914,13.4914,13.4914,13.4914,13.4914,13.4914,13.4914,13.4914,13.4914,13.4914,13.4914,13.4914,13.4914,13.4914,13.4914,13.4914,13.4914,13.4914,13.4914,13.4914,13.4914,13.4914,13.4914,13.4914,13.4914,13.4914,13.4914,13.4914,13.4914,13.4914,13.4914,13.4914,13.4914,13.4914,13.4914,13.4914,13.4914,13.4914,13.4914,13.4914,13.4914,13.4914,13.4826,13.4783,13.4826,13.4914,13.4914,13.4914,13.4914,13.4914,13.4914,13.4914,13.4914,13.4865,13.4865,13.4573,13.4031,13.3543,13.2958,13.3592,13.4031,13.4329,13.4524,13.4768,13.4622,13.3982,13.3299,13.2659,13.2366,13.2074,13.1634,13.1195,13.1,13.0658,12.9877,12.934,12.9145,13.4914,13.4914,13.4914,13.4914,13.4914,13.4914,13.4914,13.4914,13.4914,13.4914,13.4914,13.4914,13.4914,13.4914,13.4914,13.4914,13.4914,13.4914,13.4914,13.4914,13.4914,13.4914,13.4914,13.4914,13.4914,13.4914,13.4914,13.4914,13.4914,13.4914,13.4914,13.4914,13.4914,13.4914,13.4914,13.4914,13.4914,13.4914,13.4914,13.4914,13.4914,13.4914,13.4914,13.4914,13.4914,13.4914,13.4914,13.4914,13.4914,13.4914,13.4914,13.467,13.4329,13.4378,13.4475,13.4573,13.4719,13.4914,13.4914,13.4914,13.4914,13.4914,13.4914,13.4914,13.4914,13.4914,13.4914,13.4914,13.4914,13.4914,13.4914,13.4914,13.4914,13.4914,13.4914,13.4914,13.4826,13.4563,13.4255,13.4431,13.4607,13.4651,13.4783,13.4914,13.4914,13.4914,13.4914,13.4914,13.4768,13.4719,13.4573,13.4524,13.4573,13.3933,13.325,13.2513,13.2171,13.2909,13.3202,13.3494,13.3787,13.4275,13.4031,13.286,13.2122,13.1634,13.1341,13.1146,13.0658,13.0072,12.9828,12.9675,12.9243,12.895,12.8615,13.4914,13.4914,13.4914,13.4914,13.4914,13.4914,13.4914,13.4914,13.4914,13.4914,13.4914,13.4914,13.4914,13.4914,13.4914,13.4914,13.4914,13.4914,13.4914,13.4914,13.4914,13.4914,13.4914,13.4914,13.4914,13.4914,13.4914,13.4914,13.4914,13.4914,13.4914,13.4914,13.4914,13.4914,13.4914,13.4914,13.4914,13.4914,13.4914,13.4914,13.4914,13.4914,13.4914,13.4914,13.4914,13.4914,13.4914,13.4817,13.4817,13.4914,13.4914,13.3982,13.3055,13.2958,13.3592,13.3592,13.4231,13.4475,13.4475,13.467,13.4719,13.4914,13.4865,13.4865,13.4914,13.4914,13.4914,13.4914,13.4914,13.4914,13.4914,13.4914,13.4914,13.4914,13.4914,13.4914,13.4651,13.35,13.3279,13.3593,13.377,13.4122,13.4431,13.4695,13.4826,13.4914,13.4914,13.4817,13.4622,13.4378,13.3787,13.3592,13.3202,13.2616,13.222,13.1537,13.1585,13.2025,13.2025,13.222,13.2366,13.2372,13.2031,13.1293,13.0951,13.0609,13.0316,13.0072,12.9633,12.8957,12.8762,12.8999,12.8852,12.8559,12.8511,13.4914,13.4914,13.4914,13.4914,13.4914,13.4914,13.4914,13.4914,13.4914,13.4914,13.4914,13.4914,13.4914,13.4914,13.4914,13.4914,13.4914,13.4914,13.4914,13.4914,13.4914,13.4914,13.4914,13.4914,13.4914,13.4914,13.4914,13.4914,13.4914,13.4914,13.4914,13.4914,13.4914,13.4914,13.4914,13.4914,13.4914,13.4914,13.4914,13.4914,13.4914,13.4914,13.4914,13.4914,13.4914,13.4914,13.4768,13.4378,13.4129,13.3933,13.3543,13.2714,13.2074,13.2226,13.2513,13.2562,13.3055,13.3202,13.325,13.325,13.3543,13.3982,13.4036,13.4329,13.4768,13.4914,13.4914,13.4914,13.4914,13.4914,13.4914,13.4914,13.4914,13.487,13.4475,13.4167,13.399,13.3014,13.2393,13.2659,13.2792,13.3279,13.3814,13.399,13.4162,13.4446,13.4446,13.39,13.3705,13.3299,13.2762,13.2415,13.1927,13.1439,13.1097,13.0951,13.0951,13.0951,13.0951,13.1,13.1146,13.0756,13.0268,12.9877,12.9584,12.934,12.9487,12.9047,12.8615,12.8518,12.8518,12.8469,12.8511,12.8511,12.8511,13.4914,13.4914,13.4914,13.4914,13.4914,13.4914,13.4914,13.4914,13.4914,13.4914,13.4914,13.4914,13.4914,13.4914,13.4914,13.4914,13.4914,13.4914,13.4914,13.4914,13.4914,13.4914,13.4914,13.4914,13.4914,13.4914,13.4914,13.4914,13.4914,13.4914,13.4914,13.4914,13.4914,13.4914,13.4914,13.4914,13.4914,13.4914,13.4914,13.4914,13.4914,13.4914,13.4914,13.4865,13.4622,13.4475,13.4085,13.3446,13.2909,13.2513,13.1732,13.1049,13.0951,13.1195,13.1439,13.1537,13.1683,13.1878,13.1878,13.2025,13.2171,13.2909,13.3055,13.3446,13.4378,13.4475,13.4622,13.4914,13.4914,13.4914,13.4914,13.4914,13.4783,13.4475,13.399,13.346,13.2836,13.2037,13.1544,13.1722,13.1859,13.2215,13.3106,13.3046,13.3198,13.3896,13.358,13.2936,13.2438,13.2031,13.1732,13.1439,13.0902,13.0128,12.9877,12.9828,12.9828,12.9828,12.9828,12.9877,13.0072,12.9835,12.9396,12.895,12.8511,12.8559,12.8852,12.8511,12.8511,12.8511,12.8511,12.8511,12.8511,12.8511,12.8511,13.4914,13.4914,13.4914,13.4914,13.4914,13.4914,13.4914,13.4914,13.4914,13.4914,13.4914,13.4914,13.4914,13.4914,13.4914,13.4914,13.4914,13.4914,13.4914,13.4914,13.4914,13.4914,13.4914,13.4914,13.4914,13.4914,13.4914,13.4914,13.4914,13.4914,13.4914,13.4914,13.4914,13.4914,13.4914,13.4914,13.4914,13.4914,13.4914,13.4914,13.4914,13.4768,13.467,13.4573,13.3987,13.3153,13.2519,13.2025,13.1537,13.0609,12.9438,12.9145,12.9145,12.9926,13.0268,13.0505,13.1049,13.1537,13.1683,13.1488,13.1732,13.1878,13.1976,13.2415,13.3202,13.3543,13.3787,13.4426,13.4865,13.4768,13.4768,13.4822,13.4475,13.377,13.35,13.2615,13.1323,13.0159,12.9934,13.0605,13.0737,13.1276,13.1709,13.1674,13.1268,13.2004,13.1497,13.1175,13.1169,13.0616,13.0215,13.0281,12.978,12.8957,12.8908,12.8852,12.8859,12.8957,12.9096,12.9145,12.934,12.9152,12.8706,12.8511,12.8511,12.8511,12.8511,12.8511,12.8511,12.8511,12.8511,12.8511,12.8511,12.8511,12.8511,13.4914,13.4914,13.4914,13.4914,13.4914,13.4914,13.4914,13.4914,13.4914,13.4914,13.4914,13.4914,13.4914,13.4914,13.4914,13.4914,13.4914,13.4914,13.4914,13.4914,13.4914,13.4914,13.4914,13.4914,13.4914,13.4914,13.4914,13.4914,13.4914,13.4914,13.4914,13.4914,13.4914,13.4914,13.4914,13.4914,13.4914,13.4914,13.4914,13.4914,13.4817,13.4329,13.408,13.3836,13.3006,13.2318,13.183,13.1238,13.0365,12.9389,12.8803,12.8511,12.8559,12.8999,12.9194,12.9243,12.9584,12.9926,12.9877,12.9877,13.017,13.0749,13.0896,13.1439,13.2171,13.2464,13.2519,13.311,13.3738,13.3982,13.4041,13.4047,13.3677,13.2781,13.1733,13.0465,12.9083,12.8639,12.8313,12.8022,12.8057,12.8411,12.9383,12.9182,12.9426,12.9846,12.9339,12.9423,12.9776,12.8983,12.8527,12.8942,12.881,12.8713,12.8706,12.8657,12.8664,12.8664,12.8755,12.8706,12.8762,12.8755,12.8511,12.8511,12.8511,12.8511,12.8511,12.8511,12.8511,12.8511,12.8511,12.8511,12.8511,12.8511,12.8511,13.4914,13.4914,13.4914,13.4914,13.4914,13.4914,13.4914,13.4914,13.4914,13.4914,13.4914,13.4914,13.4914,13.4914,13.4914,13.4914,13.4914,13.4914,13.4914,13.4914,13.4914,13.4914,13.4914,13.4914,13.4914,13.4914,13.4914,13.4914,13.4914,13.4914,13.4914,13.4914,13.4914,13.4914,13.4914,13.4914,13.4914,13.4914,13.467,13.4426,13.4324,13.3494,13.2958,13.2811,13.1927,13.139,13.1293,13.0316,12.9292,12.8518,12.8511,12.8511,12.8511,12.8559,12.8608,12.8608,12.8608,12.8559,12.8608,12.8608,12.8901,12.9675,12.978,13.0261,13.1244,13.1177,13.1194,13.1541,13.1769,13.2129,13.2231,13.2192,13.2008,13.1214,12.9627,12.8181,12.7517,12.7295,12.7017,12.6316,12.6357,12.6712,12.7193,12.722,12.7243,12.7836,12.7514,12.7008,12.7728,12.7483,12.7712,12.8022,12.8302,12.8385,12.8469,12.8469,12.8511,12.8511,12.8511,12.8511,12.8511,12.8511,12.8511,12.8511,12.8511,12.8511,12.8511,12.8511,12.8511,12.8511,12.8511,12.8511,12.8511,12.8511,12.8511,13.4865,13.4914,13.4865,13.4719,13.4719,13.4719,13.4622,13.4768,13.4768,13.467,13.4768,13.4719,13.4817,13.4865,13.4865,13.4914,13.4914,13.4914,13.4865,13.4768,13.4914,13.4914,13.4914,13.4914,13.4914,13.4914,13.4914,13.4914,13.4914,13.4914,13.4914,13.4914,13.4914,13.4914,13.4865,13.4865,13.4768,13.4573,13.3885,13.3446,13.3397,13.2415,13.1878,13.183,13.0853,13.031,13.0212,12.934,12.8615,12.8518,12.8511,12.8511,12.8511,12.8511,12.8511,12.8511,12.8511,12.8511,12.8511,12.8511,12.8525,12.8629,12.8685,12.9096,12.9776,12.9376,12.9283,13.0013,12.9791,12.9502,12.9502,12.9572,12.9394,12.9037,12.7544,12.653,12.6266,12.6222,12.6035,12.5988,12.6082,12.6126,12.5977,12.5366,12.543,12.575,12.5394,12.5349,12.5882,12.6566,12.6965,12.7421,12.7883,12.8009,12.8092,12.8176,12.8511,12.8511,12.8511,12.8511,12.8511,12.8511,12.8511,12.8511,12.8511,12.8511,12.8511,12.8511,12.8511,12.8511,12.8511,12.8511,12.8511,12.8511,12.8511,13.2958,13.2958,13.2909,13.2958,13.2958,13.2958,13.3001,13.3001,13.2958,13.2958,13.3104,13.3641,13.389,13.408,13.4622,13.4865,13.4914,13.4914,13.4524,13.408,13.4524,13.4914,13.4914,13.4914,13.4914,13.4914,13.4914,13.4914,13.4914,13.4914,13.4914,13.4914,13.4914,13.4865,13.4865,13.4324,13.3933,13.3744,13.2909,13.2323,13.2171,13.1341,13.0805,13.0701,12.9682,12.9194,12.9096,12.8755,12.8511,12.8511,12.8511,12.8511,12.8511,12.8511,12.8511,12.8511,12.8511,12.8469,12.8511,12.8427,12.826,12.7757,12.7631,12.7663,12.7308,12.7199,12.6998,12.7573,12.7715,12.8098,12.8069,12.8152,12.7263,12.5569,12.5122,12.5191,12.5194,12.5194,12.496,12.4446,12.4306,12.4169,12.4169,12.3749,12.3828,12.395,12.3794,12.3859,12.4713,12.5267,12.5728,12.6278,12.7043,12.7505,12.7673,12.8009,12.8385,12.8302,12.826,12.8302,12.8343,12.8343,12.8511,12.8511,12.8511,12.8511,12.8511,12.8511,12.8511,12.8511,12.8511,12.8511,12.8511,12.8511,12.8511,13.183,13.183,13.183,13.183,13.183,13.183,13.183,13.183,13.183,13.183,13.1927,13.2562,13.286,13.3055,13.3592,13.3933,13.3933,13.3933,13.3592,13.3104,13.3933,13.4378,13.4426,13.4763,13.4914,13.4914,13.4914,13.4914,13.4914,13.4914,13.4914,13.4817,13.4573,13.4426,13.4329,13.3397,13.286,13.2714,13.183,13.1293,13.1238,13.0261,12.9724,12.9584,12.895,12.8511,12.8511,12.8511,12.8511,12.8511,12.8511,12.8511,12.8511,12.8511,12.8511,12.8511,12.8511,12.8385,12.8134,12.8051,12.7505,12.6537,12.6241,12.586,12.5091,12.4623,12.4457,12.4595,12.49,12.5459,12.5639,12.5773,12.4757,12.2502,12.3093,12.3642,12.3642,12.3902,12.3749,12.3142,12.3001,12.3001,12.3048,12.3095,12.3138,12.3181,12.3134,12.3263,12.3859,12.4329,12.4756,12.5219,12.6024,12.6748,12.7169,12.7589,12.7547,12.7253,12.7547,12.7757,12.7967,12.8092,12.8385,12.8511,12.8511,12.8511,12.8511,12.8511,12.8511,12.8511,12.8427,12.8427,12.8469,12.8511,12.8511,13.1732,13.1634,13.1781,13.1585,13.1488,13.1488,13.1683,13.1537,13.1585,13.1439,13.139,13.1732,13.1781,13.183,13.2074,13.1878,13.183,13.1927,13.1927,13.1927,13.2903,13.3348,13.3397,13.4183,13.4573,13.4573,13.4817,13.4817,13.4768,13.4719,13.467,13.4573,13.3738,13.3348,13.3348,13.2366,13.183,13.1585,13.0756,13.0261,13.0115,12.9194,12.8706,12.8608,12.8559,12.8511,12.8511,12.8511,12.8511,12.8511,12.8511,12.8511,12.8413,12.8267,12.8322,12.8093,12.8281,12.7911,12.7157,12.6946,12.6007,12.4799,12.4372,12.3855,12.2955,12.2137,12.1662,12.1575,12.1239,12.0979,12.1803,12.1942,12.1459,12.0582,12.128,12.1893,12.2063,12.2531,12.3048,12.3091,12.3001,12.3001,12.3001,12.3001,12.3001,12.3001,12.3001,12.3087,12.3259,12.3816,12.4287,12.4585,12.5182,12.5903,12.6537,12.7043,12.6531,12.6278,12.6736,12.7169,12.7295,12.7379,12.7589,12.7715,12.7673,12.7673,12.7631,12.7673,12.7799,12.8176,12.8302,12.8302,12.8385,12.8511,12.8511,12.9542,12.9584,12.9584,12.9584,12.9536,12.9584,12.9542,12.9542,12.9584,12.9542,12.9731,13.0414,13.0749,13.0847,13.1488,13.1049,12.9731,13.0365,13.0749,13.0847,13.183,13.2318,13.2366,13.2659,13.2762,13.2909,13.3494,13.3792,13.3885,13.3792,13.3494,13.2903,13.247,13.2318,13.2122,13.1286,13.0749,13.0554,12.9633,12.9047,12.9047,12.8615,12.8511,12.8511,12.8511,12.8511,12.8511,12.8511,12.8511,12.8511,12.8511,12.8169,12.7437,12.6795,12.6116,12.5581,12.5457,12.5085,12.4414,12.4214,12.3744,12.2693,12.1964,12.1275,12.0363,11.9357,11.8876,11.8744,11.8437,11.8746,11.9446,11.9228,11.9098,11.9492,12.0234,12.0971,12.1621,12.1878,12.2266,12.2736,12.2818,12.2955,12.3001,12.3001,12.3001,12.3001,12.3001,12.3001,12.3001,12.3302,12.3474,12.3559,12.4329,12.4926,12.4981,12.505,12.4711,12.5135,12.5683,12.6055,12.6236,12.6362,12.6489,12.6573,12.6616,12.6616,12.6616,12.6616,12.6911,12.7421,12.7431,12.7384,12.7877,12.8239,12.8169,12.8511,12.8511,12.8511,12.8511,12.8511,12.8511,12.8511,12.8511,12.8511,12.8511,12.8615,12.9243,12.9584,12.9633,12.9632,12.8855,12.7651,12.8316,12.8607,12.8752,12.977,13.0255,13.0303,13.0642,13.0965,13.132,13.1995,13.2417,13.2719,13.2762,13.2421,13.183,13.139,13.1195,13.1091,13.0121,12.9584,12.9487,12.8859,12.8511,12.8559,12.8511,12.8511,12.8511,12.8511,12.8315,12.7974,12.7925,12.773,12.7429,12.7388,12.7088,12.6404,12.5721,12.4971,12.4112,12.3454,12.2744,12.1942,12.1279,12.0373,11.926,11.8054,11.679,11.5962,11.504,11.4555,11.4862,11.5127,11.504,11.5084,11.4688,11.4864,11.5918,11.7272,11.8399,11.9093,11.9739,12.0516,12.1244,12.15,12.1858,12.2215,12.253,12.2717,12.2955,12.3001,12.3001,12.3001,12.3001,12.3087,12.313,12.3517,12.3667,12.3145,12.2909,12.3079,12.3624,12.4178,12.4214,12.4324,12.4307,12.4648,12.4678,12.4719,12.4713,12.4707,12.4707,12.4791,12.5304,12.581,12.5907,12.6766,12.6694,12.7005,12.8239,12.8148,12.8239,12.8016,12.8148,12.8058,12.8148,12.7877,12.8114,12.8204,12.8114,12.826,12.8295,12.7981,12.6471,12.5669,12.5759,12.5802,12.594,12.6131,12.7083,12.7476,12.7524,12.8437,12.9344,12.9933,13.0169,13.0745,13.1561,13.1646,13.1597,13.1366,13.0306,12.9994,12.9763,12.8802,12.8392,12.849,12.835,12.8427,12.8511,12.842,12.8322,12.8364,12.8322,12.7778,12.6998,12.6892,12.6412,12.5346,12.5444,12.5305,12.5159,12.507,12.4565,12.3665,12.2095,12.0733,11.9615,11.7974,11.641,11.4701,11.3018,11.145,11.0878,10.9736,10.9459,11.0135,11.0716,11.0196,10.8494,10.9114,10.9912,11.1054,11.3104,11.4575,11.4918,11.6687,11.7607,11.8634,11.9111,11.9863,12.1286,12.1591,12.1965,12.2484,12.2811,12.2764,12.2624,12.2721,12.2674,12.2671,12.262,12.225,12.0656,12.082,12.0638,12.0978,12.1843,12.1669,12.1812,12.2056,12.2435,12.2731,12.2769,12.2816,12.2731,12.2814,12.2839,12.3053,12.3522,12.4142,12.472,12.4969,12.5435,12.4403,12.4403,12.4403,12.4403,12.4403,12.4403,12.4403,12.4451,12.5131,12.5377,12.5432,12.6195,12.5714,12.4416,12.3946,12.4038,12.4576,12.4623,12.5054,12.577,12.6057,12.6248,12.6248,12.6578,12.6806,12.7158,12.7872,12.8775,12.9593,12.9679,12.8854,12.7578,12.7156,12.7054,12.6964,12.6724,12.6826,12.7421,12.7505,12.7841,12.8239,12.773,12.7339,12.729,12.6607,12.6111,12.5818,12.581,12.5386,12.444,12.4399,12.3814,12.243,12.2253,12.1835,12.0724,11.8537,11.6596,11.5152,11.3325,11.2136,11.1581,10.9305,10.7761,10.7273,10.598,10.5478,10.5963,10.4751,10.4316,10.4516,10.6073,10.7672,10.9304,11.0708,11.2581,11.4266,11.5043,11.5938,11.7561,11.7928,11.9057,11.9542,12.01,12.053,12.0899,12.0988,12.0895,12.0937,12.0988,12.0988,12.0937,12.0937,12.0656,12.0282,11.9955,12.0142,12.0226,12.0123,12.041,12.0556,12.064,12.0843,12.0818,12.0874,12.0885,12.0847,12.0822,12.0937,12.1057,12.1557,12.2305,12.2714,12.3776,12.4227,12.2836,12.2836,12.2836,12.2836,12.2836,12.2836,12.2836,12.2884,12.3416,12.3614,12.3632,12.2729,12.172,12.0634,12.0676,12.0916,12.1438,12.1396,12.1771,12.233,12.2758,12.2928,12.297,12.3223,12.3693,12.4119,12.5161,12.611,12.6922,12.7391,12.678,12.5399,12.5219,12.5054,12.4709,12.5049,12.5479,12.603,12.6748,12.6944,12.662,12.6071,12.5896,12.6168,12.5672,12.4866,12.3714,12.3536,12.2784,12.1068,12.0891,12.0361,11.9256,11.8847,11.8288,11.7197,11.5129,11.283,11.0426,10.8201,10.7005,10.7082,10.4838,10.3408,10.332,10.2025,10.0772,10.0348,9.9227,9.9034,10.0493,10.2628,10.4468,10.5571,10.7194,10.8937,11.101,11.1482,11.2639,11.4681,11.5484,11.6031,11.6832,11.7741,11.8665,11.9503,11.9974,12.0194,12.0189,12.0142,12.0142,12.0049,11.9389,11.8968,11.8787,11.8833,11.8833,11.8828,11.8875,11.8875,11.8823,11.8833,11.8875,11.8869,11.8859,11.8859,11.8974,11.8875,11.8875,11.8947,11.9449,11.9903,12.0808,12.1585,12.1871,12.2254,12.2302,12.2165,12.2343,12.2165,12.2213,12.2124,12.2213,12.2273,12.2232,12.1504,11.8594,11.7156,11.699,11.6983,11.7075,11.7127,11.7042,11.7176,11.7398,11.8158,11.8538,11.8757,11.9559,12.0394,12.1288,12.2215,12.315,12.4074,12.4843,12.4854,12.423,12.4069,12.3512,12.2869,12.3419,12.3885,12.406,12.5579,12.5503,12.3756,12.3632,12.4026,12.4834,12.4639,12.3212,12.0489,12.0441,11.904,11.6438,11.6186,11.6051,11.5942,11.5225,11.4434,11.36,11.1874,10.9528,10.6298,10.3311,10.1769,10.1469,9.995,9.8894,9.8722,9.7795,9.6287,9.4835,9.4688,9.5552,9.6386,9.859,10.017,10.0739,10.2825,10.4646,10.5893,10.6665,10.8244,11.0909,11.1554,11.2002,11.3904,11.508,11.6317,11.7846,11.8647,11.9232,11.9446,11.9529,11.9535,11.9348,11.836,11.7285,11.7238,11.7051,11.7285,11.7279,11.7098,11.7238,11.7378,11.7285,11.7092,11.7612,11.7285,11.7332,11.7238,11.7092,11.7185,11.7513,11.7501,11.7383,11.7988,11.8982,11.9279,11.8321,11.8321,11.8362,11.8321,11.8362,11.8321,11.8321,11.8374,11.8423,11.7626,11.6227,11.5393,11.4602,11.3968,11.3972,11.3956,11.4083,11.4088,11.4492,11.5296,11.6242,11.6668,11.6753,11.7561,11.8496,11.9344,11.9614,12.0549,12.1888,12.1623,12.1631,12.2042,12.1554,12.08,11.9883,12.0061,12.0509,12.1016,12.0781,12.0764,12.1005,12.0672,12.0672,12.073,11.9328,11.7876,11.6608,11.6568,11.5618,11.3719,11.3593,11.3281,11.2562,11.1714,11.115,11.0742,10.8673,10.6622,10.5013,10.133,9.8729,9.8043,9.6213,9.5112,9.4986,9.4238,9.3434,9.2992,9.2992,9.3494,9.4444,9.5247,9.607,9.7583,9.9442,10.1275,10.2909,10.4482,10.6193,10.7989,10.9008,11.0063,11.1835,11.3018,11.3954,11.5106,11.6098,11.6965,11.7582,11.7706,11.7706,11.7612,11.7378,11.6911,11.7045,11.6998,11.6951,11.7045,11.6998,11.6817,11.6864,11.6998,11.7045,11.6864,11.6911,11.6858,11.6998,11.6998,11.6864,11.6817,11.6864,11.7039,11.7237,11.7934,11.8137,11.4995,11.5001,11.51,11.5163,11.521,11.5591,11.5776,11.5611,11.3678,11.2146,11.1196,11.0697,11.0284,10.9784,10.941,10.9261,10.9285,10.9302,10.9869,11.0949,11.2199,11.2974,11.3484,11.4754,11.5638,11.6104,11.6982,11.7884,11.8852,11.8939,11.915,11.9532,11.833,11.7089,11.5913,11.616,11.6796,11.7566,11.5817,11.5658,11.7321,11.7596,11.7835,11.8117,11.671,11.5303,11.4004,11.278,11.1331,10.9531,10.8679,10.8057,10.7505,10.6312,10.5676,10.5596,10.2837,10.0779,9.99,9.6899,9.4856,9.4356,9.3242,9.204,9.0551,9.0276,9.0358,9.0819,9.1199,9.1713,9.2527,9.3387,9.4308,9.5391,9.6654,9.8055,9.9601,10.0954,10.2446,10.4197,10.5258,10.6698,10.8901,10.9616,11.0542,11.2751,11.342,11.4498,11.6145,11.5321,11.455,11.4874,11.4995,11.5157,11.5521,11.5601,11.5601,11.5648,11.5601,11.5561,11.5561,11.5601,11.5601,11.5601,11.5561,11.5601,11.5601,11.5561,11.5561,11.5648,11.5929,11.6303,11.6437,11.7049,11.7071,11.2522,11.2408,11.2642,11.2596,11.2565,11.335,11.3633,11.3166,10.886,10.6957,10.6875,10.6133,10.5763,10.5512,10.4809,10.4351,10.4227,10.424,10.4664,10.5636,10.7169,10.8404,10.9332,11.1143,11.2151,11.2491,11.4149,11.511,11.5372,11.6143,11.6602,11.6398,11.4947,11.3359,11.193,11.2276,11.2619,11.2649,11.0548,11.0647,11.3125,11.404,11.4812,11.5429,11.4642,11.3416,11.1484,10.915,10.6939,10.5093,10.3387,10.2432,10.226,10.0711,9.9728,9.9437,9.6317,9.4071,9.3424,9.1579,9.0493,9.0465,9.0526,8.9215,8.6296,8.6786,8.7621,8.8384,8.9219,8.9898,9.0624,9.192,9.2738,9.294,9.3948,9.5047,9.5949,9.7127,9.861,10.023,10.1122,10.2764,10.5085,10.5887,10.7239,10.9784,11.0909,11.2006,11.3506,11.253,11.1575,11.2161,11.2402,11.2762,11.3633,11.3726,11.3906,11.3885,11.4065,11.4158,11.4158,11.4158,11.4158,11.3972,11.4158,11.4065,11.4065,11.3925,11.4112,11.4245,11.476,11.5227,11.5274,11.5835,11.5969,11.2201,11.1604,11.1666,11.1182,11.0574,11.0715,11.0439,10.9581,10.585,0.0,0.0,10.41,10.3641,10.2973,10.2763,10.2259,10.1585,10.1541,10.1667,10.192,10.2932,10.3816,10.4698,10.6561,10.8252,10.959,11.0688,11.1594,11.2307,11.2528,11.2642,11.2635,11.1696,11.1058,11.0753,10.941,10.6961,10.3606,10.4908,10.6691,10.8618,10.9356,11.014,11.0957,11.005,10.8614,10.6842,10.5673,10.4275,10.2406,10.0701,9.9485,9.8705,9.7065,9.591,9.5149,9.2026,9.0026,8.9916,8.7644,8.6225,8.6213,8.6825,8.6334,8.4399,8.5612,8.66,8.6751,8.7473,8.7963,8.8115,8.8471,8.8593,8.8631,9.0693,9.2095,9.2385,9.4284,9.6061,9.7376,9.8239,9.9635,10.1584,10.2974,10.4527,10.5949,10.7908,10.9622,10.9904,10.9549,10.9519,11.0812,11.1083,11.1708,11.2515,11.2663,11.3121,11.3539,11.3745,11.3925,11.3925,11.3925,11.3925,11.3738,11.3925,11.3831,11.3878,11.3785,11.3925,11.3925,11.4105,11.4205,11.4205,11.4345,11.4299,10.9331,10.8538,10.8632,10.7882,0.0,10.7188,10.5326,10.1967,10.0223,9.9489,9.9406,9.8997,9.8546,9.8094,9.7597,9.7178,9.68,9.7226,9.7714,9.8181,9.9519,10.0614,10.1459,10.3396,10.4743,10.5539,10.6431,10.7318,10.8112,10.8112,10.8166,10.8228,10.7298,10.6664,10.6322,10.4526,10.2236,9.9511,10.1207,10.3178,10.5269,10.6538,10.7583,10.8405,10.79,0.0,0.0,0.0,0.0,0.0,0.0,0.0,0.0,9.1855,0.0,8.8787,8.6017,8.4226,8.3776,8.2182,8.1433,8.186,8.2696,8.2423,8.0753,8.2576,8.3942,8.4282,8.5119,8.5764,8.6141,8.6179,8.641,8.6865,8.7997,8.8975,8.9479,9.0964,9.2299,9.3278,9.4156,9.561,9.7851,9.9323,10.0708,10.2595,10.4724,10.6424,10.7156,10.6245,10.5548,10.6398,10.7526,10.8927,11.012,11.0721,11.1234,11.1675,11.2107,11.2257,11.2296,11.2382,11.2296,11.2335,11.2343,11.2296,11.2296,11.2296,11.2382,11.2382,11.2756,11.295,11.239,11.2335,11.2296,10.5669,10.4771,10.4686,10.3664,10.2126,10.2025,9.9033,9.4235,9.4399,9.4399,9.4155,9.327,9.2867,9.2868,9.2294,9.1997,9.2076,9.2945,9.3815,9.4734,9.6169,9.746,9.8557,10.0242,10.1125,10.1504,10.2385,10.3266,10.4017,10.4017,10.406,10.4018,10.3098,10.2259,10.1375,0.0,0.0,0.0,9.8137,9.9789,10.1898,10.3945,10.5336,10.6099,10.6292,0.0,10.3645,10.1329,9.8723,9.5995,9.3268,0.0,0.0,0.0,0.0,0.0,0.0,0.0,0.0,0.0,0.0,0.0,7.7602,7.7259,7.6273,7.8247,8.0145,8.1398,8.2309,8.3145,8.3942,8.4018,8.4322,8.5043,8.5385,8.584,8.6486,8.7595,8.8624,8.9234,9.0256,9.179,9.4122,9.5409,9.6994,9.941,10.1337,10.2755,10.3615,10.2042,10.111,10.1522,10.3672,10.5662,10.7509,10.8745,10.9548,10.9714,11.0258,11.0809,11.0894,11.0894,11.0847,11.0894,11.0801,11.0847,11.0847,11.0801,11.0941,11.0847,11.1502,11.1782,11.0988,11.0801,11.0801,10.2489,10.1089,10.0313,9.9052,9.722,9.3593,9.1219,8.9895,9.0605,9.0486,8.9816,8.8907,8.8512,8.8511,8.9217,8.9489,8.9528,9.0386,9.1127,9.1876,9.2118,9.3132,9.4804,9.5815,9.7189,9.8703,9.9568,10.0529,10.1374,10.1374,10.1374,10.129,10.0361,9.947,9.8493,9.3711,9.153,9.228,9.4739,9.6478,9.7476,9.9981,10.1731,10.2491,10.3296,10.2826,10.088,9.9216,9.6994,9.4134,9.0872,8.7675,8.4569,8.2078,7.9652,0.0,7.4853,0.0,0.0,0.0,0.0,0.0,0.0,0.0,0.0,7.259,7.4868,7.7943,7.8931,7.9728,8.0639,8.0715,8.0753,8.0905,8.2082,8.2914,8.3143,8.5199,8.669,8.6763,8.8194,8.9499,9.0632,9.2206,9.3934,9.5815,9.7474,9.7847,9.6285,9.6774,9.7955,9.9486,10.12,10.2958,10.5275,10.7222,10.8562,10.9434,11.0002,11.0801,11.063,11.063,11.0715,11.0715,11.0545,11.0669,11.0801,11.0754,11.0754,11.0707,11.0723,11.0731,11.063,11.0536,11.0801,9.9483,9.7503,9.6098,9.298,8.8702,8.6802,8.5796,8.5487,8.584,8.5762,8.5448,8.5056,8.4552,8.413,8.4555,8.4976,8.5438,8.6247,8.7323,8.8555,8.9088,8.9965,9.1194,9.2125,9.2989,9.3776,9.4175,9.4792,9.5661,9.5703,9.5703,9.5703,9.5207,9.4095,9.2291,8.9956,8.9097,8.998,9.1619,9.3595,9.5946,9.8053,9.9814,10.12,10.205,10.1586,9.9727,9.8582,9.6242,9.2459,8.9487,8.6172,8.2411,7.9317,7.6217,0.0,0.0,0.0,0.0,0.0,0.0,0.0,0.0,0.0,0.0,0.0,6.9871,7.3087,7.4909,7.6275,7.7183,7.7259,7.7485,7.7904,7.8551,7.9349,8.0297,8.1854,8.3183,8.4056,8.5633,8.6981,8.786,8.9471,9.0929,9.1656,9.2396,9.2607,9.2166,9.3066,9.4327,9.5506,9.7169,9.906,10.1053,10.3577,10.541,10.5882,10.6926,10.7772,10.7733,10.7772,10.7772,10.7772,10.7772,10.7887,10.8346,10.8461,10.8847,10.9411,10.8803,10.8086,10.8346,10.8461,10.8762,9.566,9.3094,9.0051,8.5797,8.1116,8.105,8.1054,8.113,8.1326,8.1324,8.113,8.1091,8.0452,7.9477,7.9686,8.0335,8.1284,8.2158,8.3562,8.5347,8.6071,8.6969,8.7927,8.8624,8.9071,8.9275,8.9234,8.9762,9.0572,9.0652,9.0652,9.0532,8.9223,8.7716,8.6204,8.655,8.722,8.8236,8.9242,9.124,9.4364,9.636,9.8135,9.9651,10.0254,9.9763,9.7971,9.6883,9.4389,9.0171,8.7345,8.3888,7.9788,7.6183,0.0,0.0,0.0,0.0,0.0,0.0,0.0,0.0,0.0,5.9921,6.2284,0.0,6.5165,0.0,7.0153,7.222,7.3238,7.3386,0.0,0.0,7.441,7.5163,7.6817,7.7987,7.9312,8.1056,8.2765,8.417,8.5231,8.6866,8.7697,8.7123,8.7161,8.7794,8.9073,8.9884,9.0651,9.182,9.3391,9.5031,9.6701,9.9199,10.1398,10.2352,10.401,10.5049,10.5049,10.5186,10.5277,10.5049,10.5224,10.5597,10.6213,10.6235,10.6571,10.6651,10.5577,10.4552,10.5384,10.5963,10.6634,9.0144,8.7328,8.0431,7.7233,7.6759,7.67,7.6717,7.6757,7.7593,7.7442,7.6717,7.6717,7.5808,7.4296,7.5167,0.0,7.7981,7.8741,8.0373,8.2726,8.2804,8.3679,8.524,8.5358,8.58,8.6601,8.6601,8.708,8.7917,8.7957,8.7957,8.776,8.251,8.0411,8.178,8.3263,8.4857,8.6486,8.8087,8.9854,9.1673,9.4278,9.6069,9.6898,9.7022,9.6184,9.4401,9.2744,9.0185,8.6676,8.3336,7.9634,7.5516,0.0,0.0,0.0,0.0,0.0,0.0,0.0,0.0,0.0,0.0,0.0,0.0,0.0,0.0,6.1386,6.4305,0.0,6.8434,6.8582,0.0,0.0,0.0,7.0345,7.1931,7.357,7.5398,7.768,0.0,0.0,8.2536,8.421,8.4441,8.216,8.2463,8.3804,8.6288,8.6681,8.7351,8.9057,9.066,9.2017,9.3123,9.4697,9.695,10.0323,10.3131,10.3727,10.3688,10.4295,10.4782,10.3876,10.4729,10.5194,10.5361,10.479,10.4387,10.0974,10.0769,10.1446,10.2371,10.3633,10.4762,8.3279,7.7146,7.3376,7.1358,7.0621,7.0583,7.0824,7.1306,7.2063,7.1725,7.063,7.0967,7.0332,6.8881,6.9214,0.0,0.0,0.0,7.498,7.7428,7.882,8.007,8.1208,8.1779,8.22,8.2547,8.2586,8.2434,8.228,8.228,8.0597,7.7378,0.0,0.0,7.758,7.9313,8.1656,8.4701,8.641,8.8385,9.0522,9.2156,9.3664,9.5011,9.4002,9.334,9.3171,9.0498,8.7436,8.4017,8.0118,7.6145,0.0,0.0,0.0,0.0,0.0,0.0,0.0,0.0,0.0,0.0,0.0,5.2786,5.3551,0.0,0.0,0.0,6.0719,6.3294,6.4944,6.5091,0.0,0.0,0.0,0.0,0.0,0.0,0.0,7.2948,7.5543,7.7728,7.9311,8.007,8.0297,7.9842,8.0905,8.2274,8.3768,0.0,8.439,8.568,8.6388,8.7446,8.9312,9.0185,9.1384,9.4006,9.536,9.6161,9.6627,9.6996,9.7315,9.753,9.7805,9.8405,9.9386,9.7004,9.4452,9.3679,9.4092,9.5234,9.7036,9.7928,9.9149,7.546,0.0,0.0,0.0,0.0,6.516,6.5456,6.601,6.6462,6.61,6.516,6.5633,0.0,0.0,0.0,0.0,0.0,0.0,6.9778,7.2393,7.4226,7.5831,7.7044,7.7833,7.8246,7.8284,7.8246,7.7681,7.6665,7.5278,7.2645,6.8857,0.0,0.0,0.0,0.0,7.9011,8.2983,8.5228,8.7381,8.9646,9.0743,9.1874,9.2883,9.0979,8.9892,8.9798,8.6702,8.3397,7.9963,7.6083,0.0,0.0,0.0,0.0,0.0,0.0,0.0,0.0,0.0,0.0,0.0,0.0,0.0,0.0,0.0,0.0,0.0,0.0,0.0,6.0754,6.1266,6.1699,0.0,0.0,0.0,0.0,0.0,0.0,0.0,0.0,0.0,7.4379,7.5234,7.6211,0.0,0.0,8.0183,8.1208,8.136,8.159,8.2243,8.2511,0.0,8.5099,8.5689,8.6456,8.7788,8.8739,8.9494,9.0024,9.0338,9.0642,9.0989,9.1328,9.1221,9.0609,8.7656,8.6016,8.6401,8.7307,8.8655,9.0672,9.1565,9.2878,0.0,0.0,0.0,0.0,0.0,0.0,0.0,0.0,6.1097,6.109,0.0,6.1053,0.0,0.0,0.0,0.0,6.3245,6.335,0.0,0.0,6.8964,7.0576,7.2824,7.3497,7.3849,7.3811,7.3849,7.3081,7.1478,6.7043,0.0,0.0,0.0,0.0,0.0,0.0,7.736,8.1411,8.4646,8.7093,8.8813,9.049,9.095,9.0111,8.775,8.5447,8.3046,8.0492,7.74,7.3918,7.0645,0.0,0.0,0.0,0.0,0.0,0.0,0.0,0.0,0.0,0.0,0.0,0.0,0.0,0.0,0.0,0.0,0.0,0.0,0.0,0.0,5.6832,0.0,0.0,0.0,0.0,0.0,0.0,0.0,0.0,0.0,6.8632,6.7336,6.9799,7.2302,7.384,0.0,0.0,0.0,0.0,7.8855,7.8968,7.9524,8.0119,8.0341,8.151,8.268,8.3622,0.0,0.0,8.5722,8.6484,8.674,8.5937,8.6449,8.5253,7.9065,7.878,7.9494,7.961,8.0709,8.2201,8.3753,8.5383,8.7266,0.0,0.0,0.0,0.0,0.0,0.0,0.0,0.0,0.0,5.6493,5.5712,5.6096,0.0,0.0,0.0,0.0,0.0,0.0,0.0,0.0,6.4421,6.5897,6.7302,6.8086,6.8446,0.0,6.8446,6.6333,0.0,0.0,0.0,0.0,0.0,0.0,0.0,0.0,7.4346,7.8971,8.2755,8.5501,8.7172,8.8832,8.8728,8.6744,8.5823,8.3701,8.0159,7.6511,7.2981,0.0,0.0,0.0,0.0,0.0,0.0,0.0,0.0,0.0,0.0,0.0,0.0,0.0,0.0,0.0,0.0,0.0,0.0,0.0,0.0,0.0,0.0,0.0,5.4783,0.0,0.0,0.0,0.0,0.0,0.0,0.0,0.0,0.0,6.3011,6.6074,6.8979,7.0644,7.3061,7.5136,7.6301,0.0,0.0,0.0,0.0,0.0,0.0,0.0,7.8934,7.867,7.9055,7.9195,7.8536,7.8629,7.8946,7.9168,0.0,0.0,7.1175,7.1019,7.2034,7.2252,7.3423,7.4968,7.6915,7.8276,7.987,0.0,0.0,0.0,0.0,0.0,0.0,0.0,0.0,0.0,5.258,5.1759,0.0,0.0,0.0,0.0,0.0,0.0,0.0,0.0,0.0,0.0,0.0,6.2433,6.3201,0.0,0.0,0.0,0.0,0.0,0.0,0.0,0.0,0.0,0.0,0.0,0.0,7.1987,7.6801,8.1124,8.4132,8.584,8.7552,8.7324,8.5005,8.4381,8.2165,7.804,0.0,0.0,0.0,0.0,0.0,0.0,0.0,0.0,0.0,0.0,0.0,0.0,0.0,0.0,0.0,0.0,0.0,0.0,0.0,0.0,0.0,0.0,0.0,0.0,0.0,5.2384,0.0,0.0,0.0,0.0,0.0,0.0,0.0,0.0,0.0,0.0,0.0,6.5265,6.7423,7.0316,7.2645,7.373,7.5047,7.5855,0.0,0.0,0.0,0.0,0.0,0.0,0.0,0.0,0.0,0.0,0.0,0.0,0.0,0.0,6.8868,6.4302,6.4353,6.52,6.5426,0.0,0.0,0.0,0.0,0.0,0.0,0.0,0.0,0.0,0.0,0.0,0.0,0.0,0.0,0.0,4.928,0.0,0.0,4.9269,0.0,0.0,0.0,0.0,0.0,0.0,0.0,0.0,0.0,0.0,0.0,0.0,0.0,0.0,0.0,0.0,0.0,0.0,0.0,0.0,0.0,0.0,7.041,7.5134,7.9989,8.3219,8.4891,8.6559,8.6559,8.4853,8.3181,8.0335,7.6233,0.0,0.0,0.0,0.0,0.0,0.0,0.0,0.0,0.0,0.0,0.0,0.0,0.0,0.0,0.0,0.0,0.0,0.0,0.0,0.0,0.0,0.0,0.0,0.0,0.0,0.0,5.1573,5.2322,5.3062,0.0,0.0,0.0,0.0,0.0,0.0,0.0,0.0,0.0,6.422,6.7098,6.9475,7.1082,7.1962,7.2594,7.2628,7.259,7.2552,7.2549,7.313,7.2991,0.0,0.0,0.0,0.0,0.0,0.0,0.0,0.0,0.0,0.0,0.0,0.0,0.0,0.0,0.0,0.0,0.0,0.0,0.0,0.0,0.0,0.0,0.0,0.0,0.0,0.0,0.0,0.0,0.0,0.0,0.0,0.0,0.0,0.0,0.0,0.0,0.0,0.0,0.0,0.0,0.0,0.0,0.0,0.0,0.0,0.0,0.0,0.0,0.0,0.0,0.0,0.0,0.0,0.0,6.9337,7.3583,7.8898,8.2423,8.4134,8.5157,8.4623,8.2423,8.0183,7.7298,0.0,0.0,0.0,0.0,0.0,0.0,0.0,0.0,0.0,0.0,0.0,0.0,0.0,0.0,0.0,0.0,0.0,0.0,0.0,0.0,0.0,0.0,0.0,0.0,0.0,0.0,0.0,0.0,5.0305,5.0519,5.0743,0.0,0.0,0.0,0.0,0.0,0.0,0.0,0.0,0.0,0.0,6.6646,6.8733,7.008,7.1253,7.237,7.2514,7.2097,7.0886,7.0935,7.0339,6.8044,0.0,0.0,0.0,0.0,0.0,0.0,0.0,0.0,0.0,0.0,0.0,0.0,0.0,0.0,0.0,0.0,0.0,0.0,0.0,0.0,0.0,0.0,0.0,0.0,0.0,0.0,0.0,0.0,0.0,0.0,0.0,0.0,0.0,0.0,0.0,0.0,0.0,0.0,0.0,0.0,0.0,0.0,0.0,0.0,0.0,0.0,0.0,0.0,0.0,0.0,0.0,0.0,0.0,6.7634,7.1851,7.6835,8.0372,8.231,8.341,8.2993,8.0867,7.8703,7.5665,0.0,0.0,0.0,0.0,0.0,0.0,0.0,0.0,0.0,0.0,0.0,0.0,0.0,0.0,0.0,0.0,0.0,0.0,0.0,0.0,0.0,0.0,0.0,0.0,0.0,0.0,0.0,0.0,4.8459,4.8734,4.9315,0.0,0.0,0.0,0.0,0.0,0.0,0.0,0.0,0.0,0.0,6.4081,6.6336,6.7842,0.0,0.0,7.054,7.0198,6.9179,6.8989,6.8236,6.5886,6.4758,0.0,0.0,0.0,0.0,0.0,0.0,0.0,0.0,0.0,0.0,0.0,0.0,0.0,0.0,0.0,0.0,0.0,0.0,0.0,0.0,0.0,0.0,0.0,0.0,0.0,0.0,0.0,0.0,0.0,0.0,0.0,0.0,0.0,0.0,0.0,0.0,0.0,0.0,0.0,0.0,0.0,0.0,0.0,0.0,0.0,0.0,0.0,0.0,0.0,0.0,0.0,0.0,0.0,7.0058,7.4271,7.762,7.9918,8.1474,8.155,7.9993,7.817,7.4868,0.0,0.0,0.0,0.0,0.0,0.0,0.0,0.0,0.0,0.0,0.0,0.0,0.0,0.0,0.0,0.0,0.0,0.0,0.0,0.0,0.0,0.0,0.0,0.0,0.0,0.0,0.0,0.0,0.0,0.0,0.0,0.0,0.0,0.0,0.0,0.0,0.0,0.0,0.0,0.0,0.0,6.1623,6.3785,6.5288,6.6378,0.0,6.718,6.7212,6.7104,6.7072,6.6346,6.4204,0.0,0.0,0.0,0.0,0.0,0.0,0.0,0.0,0.0,0.0,0.0,0.0,0.0,0.0,0.0,0.0,0.0,0.0,0.0,0.0,0.0,0.0,0.0,0.0,0.0,0.0,0.0,0.0,0.0,0.0,0.0,0.0,0.0,0.0,0.0,0.0,0.0,0.0,0.0,0.0,0.0,0.0,0.0,0.0,0.0,0.0,0.0,0.0,0.0,0.0,0.0,0.0,0.0,0.0,6.7915,7.3506,7.7322,7.9161,8.0183,7.9917,7.8208,7.5324,0.0,0.0,0.0,0.0,0.0,0.0,0.0,0.0,0.0,0.0,0.0,0.0,0.0,0.0,0.0,0.0,0.0,0.0,0.0,0.0,0.0,0.0,0.0,0.0,0.0,0.0,0.0,4.4028,0.0,0.0,0.0,0.0,0.0,0.0,0.0,0.0,0.0,0.0,0.0,0.0,0.0,0.0,5.8028,6.1245,6.2421,6.3314,0.0,0.0,6.461,6.3542,6.3369,6.2756,0.0,0.0,0.0,0.0,0.0,0.0,0.0,0.0,0.0,0.0,0.0,0.0,0.0,0.0,0.0,0.0,0.0,0.0,0.0,0.0,0.0,0.0,0.0,0.0,0.0,0.0,0.0,0.0,0.0,0.0,0.0,0.0,0.0,0.0,0.0,0.0,0.0,0.0,0.0,0.0,0.0,0.0,0.0,0.0,0.0,0.0,0.0,0.0,0.0,0.0,0.0,0.0,0.0,0.0,6.2849,6.6578,7.1397,7.4945,7.7173,7.8368,7.8171,7.6537,7.3881,7.073,0.0,0.0,0.0,0.0,0.0,0.0,0.0,0.0,0.0,0.0,0.0,0.0,0.0,0.0,0.0,0.0,0.0,0.0,0.0,0.0,0.0,0.0,0.0,0.0,0.0,0.0,0.0,0.0,0.0,0.0,0.0,0.0,0.0,0.0,0.0,0.0,0.0,0.0,0.0,0.0,0.0,0.0,5.9004,6.0244,0.0,0.0,0.0,6.2324,6.154,0.0,0.0,0.0,0.0,0.0,0.0,0.0,0.0,0.0,0.0,0.0,0.0,0.0,0.0,0.0,0.0,0.0,0.0,0.0,0.0,0.0,0.0,0.0,0.0,0.0,0.0,0.0,0.0,0.0,0.0,0.0,0.0,0.0,0.0,0.0,0.0,0.0,0.0,0.0,0.0,0.0,0.0,0.0,0.0,0.0,0.0,0.0,0.0,0.0,0.0,0.0,0.0,0.0,0.0,0.0,0.0,0.0,6.5176,6.8602,7.1761,7.4676,7.641,7.6504,7.4904,7.3122,7.0274,0.0,0.0,0.0,0.0,0.0,0.0,0.0,0.0,0.0,0.0,0.0,0.0,0.0,0.0,0.0,0.0,0.0,0.0,0.0,0.0,0.0,0.0,0.0,0.0,0.0,0.0,0.0,0.0,0.0,0.0,0.0,0.0,0.0,0.0,0.0,0.0,0.0,0.0,0.0,0.0,0.0,5.5449,5.6784,5.8187,5.9294,0.0,0.0,5.9945,5.9886,5.9856,0.0,0.0,0.0,0.0,0.0,0.0,0.0,0.0,0.0,0.0,0.0,0.0,0.0,0.0,0.0,0.0,0.0,0.0,0.0,0.0,0.0,0.0,0.0,0.0,0.0,0.0,0.0,0.0,0.0,0.0,0.0,0.0,0.0,0.0,0.0,0.0,0.0,0.0,0.0,0.0,0.0,0.0,0.0,0.0,0.0,0.0,0.0,0.0,0.0,0.0,0.0,0.0,0.0,0.0,0.0,0.0,6.154,6.6254,7.0145,7.3068,7.475,7.5023,7.396,7.1683,6.887,0.0,0.0,0.0,0.0,0.0,0.0,0.0,0.0,0.0,0.0,0.0,0.0,0.0,0.0,0.0,0.0,0.0,0.0,0.0,0.0,0.0,0.0,0.0,0.0,0.0,0.0,0.0,0.0,0.0,0.0,0.0,0.0,0.0,0.0,0.0,0.0,0.0,0.0,0.0,0.0,0.0,5.3114,5.4502,5.5307,0.0,0.0,0.0,0.0,5.5439,5.5347,0.0,0.0,0.0,0.0,0.0,0.0,0.0,0.0,0.0,0.0,0.0,0.0,0.0,0.0,0.0,0.0,0.0,0.0,0.0,0.0,0.0,0.0,0.0,0.0,0.0,0.0,0.0,0.0,0.0,0.0,0.0,0.0,0.0,0.0,0.0,0.0,0.0,0.0,0.0,0.0,0.0,0.0,0.0,0.0,0.0,0.0,0.0,0.0,0.0,0.0,0.0,0.0,0.0,0.0,0.0,0.0,5.9512,6.3872,6.7734,7.1012,7.2507,7.3014,7.2534,7.0529,6.8002,0.0,0.0,0.0,0.0,0.0,0.0,0.0,0.0,0.0,0.0,0.0,0.0,0.0,0.0,0.0,0.0,0.0,0.0,0.0,0.0,0.0,0.0,0.0,0.0,0.0,0.0,0.0,0.0,0.0,0.0,0.0,0.0,0.0,0.0,0.0,0.0,0.0,0.0,0.0,0.0,5.061,5.2221,5.3329,0.0,0.0,0.0,0.0,0.0,0.0,5.4053,5.3946,0.0,0.0,0.0,0.0,0.0,0.0,0.0,0.0,0.0,0.0,0.0,0.0,0.0,0.0,0.0,0.0,0.0,0.0,0.0,0.0,0.0,0.0,0.0,0.0,0.0,0.0,0.0,0.0,0.0,0.0,0.0,0.0,0.0,0.0,0.0,0.0,0.0,0.0,0.0,0.0,0.0,0.0,0.0,0.0,0.0,0.0,0.0,0.0,0.0,0.0,0.0,0.0,0.0,0.0,0.0,5.7337,6.1054,6.4771,6.8586,7.0183,7.0954,7.0929,6.9418,6.7313,6.4549,0.0,0.0,0.0,0.0,0.0,0.0,0.0,0.0,0.0,0.0,0.0,0.0,0.0,0.0,0.0,0.0,0.0,0.0,0.0,0.0,0.0,0.0,0.0,0.0,0.0,0.0,0.0,0.0,0.0,0.0,0.0,0.0,0.0,0.0,0.0,0.0,0.0,0.0,0.0,4.9678,5.1537,0.0,0.0,0.0,0.0,0.0,0.0,0.0,0.0,5.3027,0.0,0.0,0.0,0.0,0.0,0.0,0.0,0.0,0.0,0.0,0.0,0.0,0.0,0.0,0.0,0.0,0.0,0.0,0.0,0.0,0.0,0.0,0.0,0.0,0.0,0.0,0.0,0.0,0.0,0.0,0.0,0.0,0.0,0.0,0.0,0.0,0.0,0.0,0.0,0.0,0.0,0.0,0.0,0.0,0.0,0.0,0.0,0.0,0.0,0.0,0.0,0.0,0.0,0.0,0.0,0.0,5.6978,6.1357,6.5483,6.8169,6.9475,6.9359,6.8247,6.6205,6.3044,0.0,0.0,0.0,0.0,0.0,0.0,0.0,0.0,0.0,0.0,0.0,0.0,0.0,0.0,0.0,0.0,0.0,0.0,0.0,0.0,0.0,0.0,0.0,0.0,0.0,0.0,0.0,0.0,0.0,0.0,0.0,0.0,0.0,0.0,0.0,0.0,0.0,0.0,4.5513,4.8119,0.0,0.0,0.0,0.0,0.0,0.0,0.0,0.0,5.009,0.0,0.0,0.0,0.0,0.0,0.0,0.0,0.0,0.0,0.0,0.0,0.0,0.0,0.0,0.0,0.0,0.0,0.0,0.0,0.0,0.0,0.0,0.0,0.0,0.0,0.0,0.0,0.0,0.0,0.0,0.0,0.0,0.0,0.0,0.0,0.0,0.0,0.0,0.0,0.0,0.0,0.0,0.0,0.0,0.0,0.0,0.0,0.0,0.0,0.0,0.0,0.0,0.0,0.0,0.0,0.0,0.0,0.0,5.8984,6.3565,6.568,6.7235,6.8241,6.584,6.2928,0.0,0.0,0.0,0.0,0.0,0.0,0.0,0.0,0.0,0.0,0.0,0.0,0.0,0.0,0.0,0.0,0.0,0.0,0.0,0.0,0.0,0.0,0.0,0.0,0.0,0.0,0.0,0.0,0.0,0.0,0.0,0.0,0.0,0.0,0.0,0.0,0.0,0.0,0.0,0.0,0.0,0.0,0.0,0.0,0.0,0.0,0.0,0.0,0.0,0.0,0.0,0.0,0.0,0.0,0.0,0.0,0.0,0.0,0.0,0.0,0.0,0.0,0.0,0.0,0.0,0.0,0.0,0.0,0.0,0.0,0.0,0.0,0.0,0.0,0.0,0.0,0.0,0.0,0.0,0.0,0.0,0.0,0.0,0.0,0.0,0.0,0.0,0.0,0.0,0.0,0.0,0.0,0.0,0.0,0.0,0.0,0.0,0.0,0.0,0.0,0.0,0.0,0.0,0.0,0.0,0.0,0.0,0.0,5.6196,6.0887,6.2856,6.4679,6.6353,6.2833,5.9489,0.0,0.0,0.0,0.0,0.0,0.0,0.0,0.0,0.0,0.0,0.0,0.0,0.0,0.0,0.0,0.0,0.0,0.0,0.0,0.0,0.0,0.0,0.0,0.0,0.0,0.0,0.0,0.0,0.0,0.0,0.0,0.0,0.0,0.0,0.0,0.0,0.0,0.0,0.0,0.0,0.0,0.0,0.0,0.0,0.0,0.0,0.0,0.0,4.8852,0.0,0.0,0.0,0.0,0.0,0.0,0.0,0.0,0.0,0.0,0.0,0.0,0.0,0.0,0.0,0.0,0.0,0.0,0.0,0.0,0.0,0.0,0.0,0.0,0.0,0.0,0.0,0.0,0.0,0.0,0.0,0.0,0.0,0.0,0.0,0.0,0.0,0.0,0.0,0.0,0.0,0.0,0.0,0.0,0.0,0.0,0.0,0.0,0.0,0.0,0.0,0.0,0.0,0.0,0.0,0.0,0.0,0.0,0.0,5.1825,5.5937,5.9629,6.1648,6.1681,5.9274,5.7036,0.0,0.0,0.0,0.0,0.0,0.0,0.0,0.0,0.0,0.0,0.0,0.0,0.0,0.0,0.0,0.0,0.0,0.0,0.0,0.0,0.0,0.0,0.0,0.0,0.0,0.0,0.0,0.0,0.0,0.0,0.0,0.0,0.0,0.0,0.0,0.0,0.0,0.0,0.0,0.0,0.0,0.0,0.0,0.0,0.0,0.0,0.0,0.0,0.0,0.0,0.0,0.0,0.0,0.0,0.0,0.0,0.0,0.0,0.0,0.0,0.0,0.0,0.0,0.0,0.0,0.0,0.0,0.0,0.0,0.0,0.0,0.0,0.0,0.0,0.0,0.0,0.0,0.0,0.0,0.0,0.0,0.0,0.0,0.0,0.0,0.0,0.0,0.0,0.0,0.0,0.0,0.0,0.0,0.0,0.0,0.0,0.0,0.0,0.0,0.0,0.0,0.0,0.0,0.0,0.0,0.0,0.0,0.0,4.9536,5.3883,5.6378,5.7169,5.6249,5.5547,5.4333,0.0,0.0,0.0,0.0,0.0,0.0,0.0,0.0,0.0,0.0,0.0,0.0,0.0,0.0,0.0,0.0,0.0,0.0,0.0,0.0,0.0,0.0,0.0,0.0,0.0,0.0,0.0,0.0,0.0,0.0,0.0,0.0,0.0,0.0,0.0,0.0,0.0,0.0,0.0,0.0,0.0,0.0,0.0,0.0,0.0,0.0,0.0,0.0,0.0,0.0,0.0,0.0,0.0,0.0,0.0,0.0,0.0,0.0,0.0,0.0,0.0,0.0,0.0,0.0,0.0,0.0,0.0,0.0,0.0,0.0,0.0,0.0,0.0,0.0,0.0,0.0,0.0,0.0,0.0,0.0,0.0,0.0,0.0,0.0,0.0,0.0,0.0,0.0,0.0,0.0,0.0,0.0,0.0,0.0,0.0,0.0,0.0,0.0,0.0,0.0,0.0,0.0,0.0,0.0,0.0,0.0,0.0,0.0,0.0,5.1302,5.2073,5.2029,5.1422,5.1869,5.1412,0.0,0.0,0.0,0.0,0.0,0.0,0.0,0.0,0.0,0.0,0.0,0.0,0.0,0.0,0.0,0.0,0.0,0.0,0.0,0.0,0.0,0.0,0.0,0.0,0.0,0.0,0.0,0.0,0.0,0.0,0.0,0.0,0.0,0.0,0.0,0.0,0.0,0.0,0.0,0.0,0.0,0.0,0.0,0.0,0.0,0.0,0.0,0.0,0.0,0.0,0.0,0.0,0.0,0.0,0.0,0.0,0.0,0.0,0.0,0.0,0.0,0.0,0.0,0.0,0.0,0.0,0.0,0.0,0.0,0.0,0.0,0.0,0.0,0.0,0.0,0.0,0.0,0.0,0.0,0.0,0.0,0.0,0.0,0.0,0.0,0.0,0.0,0.0,0.0,0.0,0.0,0.0,0.0,0.0,0.0,0.0,0.0,0.0,0.0,0.0,0.0,0.0,0.0,0.0,0.0,0.0,0.0,0.0,0.0,4.7297,4.6132,4.6341,4.7879,4.8332,4.8251,0.0,0.0,0.0,0.0,0.0,0.0,0.0,0.0,0.0,0.0,0.0,0.0,0.0,0.0,0.0,0.0,0.0,0.0,0.0,0.0,0.0,0.0,0.0,0.0,0.0,0.0,0.0,0.0,0.0,0.0,0.0,0.0,0.0,0.0,0.0,0.0,0.0,0.0,0.0,0.0,0.0,0.0,0.0,0.0,0.0,0.0,0.0,0.0,0.0,0.0,0.0,0.0,0.0,0.0,0.0,0.0,0.0,0.0,0.0,0.0,0.0,0.0,0.0,0.0,0.0,0.0,0.0,0.0,0.0,0.0,0.0,0.0,0.0,0.0,0.0,0.0,0.0,0.0,0.0,0.0,0.0,0.0,0.0,0.0,0.0,0.0,0.0,0.0,0.0,0.0,0.0,0.0,0.0,0.0,0.0,0.0,0.0,0.0,0.0,0.0,0.0,0.0,0.0,0.0,0.0,0.0,0.0,0.0,0.0,4.2811,4.3898,4.4992,4.6243,4.6739,4.6705,4.6107,0.0,0.0,0.0,0.0,0.0,0.0,0.0,0.0,0.0,0.0,0.0,0.0,0.0,0.0,0.0,0.0,0.0,0.0,0.0,0.0,0.0,0.0,0.0,0.0,0.0,0.0,0.0,0.0,0.0,0.0,0.0,0.0,0.0,0.0,0.0,0.0,0.0,0.0,0.0,0.0,0.0,0.0,0.0,0.0,0.0,0.0,0.0,0.0,0.0,0.0,0.0,0.0,0.0,0.0,0.0,0.0,0.0,0.0,0.0,0.0,0.0,0.0,0.0,0.0,0.0,0.0,0.0,0.0,0.0,0.0,0.0,0.0,0.0,0.0,0.0,0.0,0.0,0.0,0.0,0.0,0.0,0.0,0.0,0.0,0.0,0.0,0.0,0.0,0.0,0.0,0.0,0.0,0.0,0.0,0.0,0.0,0.0,0.0,0.0,0.0,0.0,0.0,0.0,0.0,0.0,0.0,0.0,0.0,3.927,4.1456,4.3279,4.4615,4.49,4.4965,0.0,0.0,0.0,0.0,0.0,0.0,0.0,0.0,0.0,0.0,0.0,0.0,0.0,0.0,0.0,0.0,0.0,0.0,0.0,0.0,0.0,0.0,0.0,0.0,0.0,0.0,0.0,0.0,0.0,0.0,0.0,0.0,0.0,0.0,0.0,0.0,0.0,0.0,0.0,0.0,0.0,0.0,0.0,0.0,0.0,0.0,0.0,0.0,0.0,0.0,0.0,0.0,0.0,0.0,0.0,0.0,0.0,0.0,0.0,0.0,0.0,0.0,0.0,0.0,0.0,0.0,0.0,0.0,0.0,0.0,0.0,0.0,0.0,0.0,0.0,0.0,0.0,0.0,0.0,0.0,0.0,0.0,0.0,0.0,0.0,0.0,0.0,0.0,0.0,0.0,0.0,0.0,0.0,0.0,0.0,0.0,0.0,0.0,0.0,0.0,0.0,0.0,0.0,0.0,0.0,0.0,0.0,0.0,3.4618,3.6736,3.8526,4.0615,4.2708,4.2535,4.2904,0.0,0.0,0.0,0.0,0.0,0.0,0.0,0.0,0.0,0.0,0.0,0.0,0.0,0.0,0.0,0.0,0.0,0.0,0.0,0.0,0.0,0.0,0.0,0.0,0.0,0.0,0.0,0.0,0.0,0.0,0.0,0.0,0.0,0.0,0.0,0.0,0.0,0.0,0.0,0.0,0.0,0.0,0.0,0.0,0.0,0.0,0.0,0.0,0.0,0.0,0.0,0.0,0.0,0.0,0.0,0.0,0.0,0.0,0.0,0.0,0.0,0.0,0.0,0.0,0.0,0.0,0.0,0.0,0.0,0.0,0.0,0.0,0.0,0.0,0.0,0.0,0.0,0.0,0.0,0.0,0.0,0.0,0.0,0.0,0.0,0.0,0.0,0.0,0.0,0.0,0.0,0.0,0.0,0.0,0.0,0.0,0.0,0.0,0.0,0.0,0.0,0.0,0.0,0.0,0.0,0.0,0.0,0.0,0.0,3.6135,0.0,4.066,0.0,4.2612,4.2924,0.0,0.0,0.0,0.0,0.0,0.0,0.0,0.0,0.0,0.0,0.0,0.0,0.0,0.0,0.0,0.0,0.0,0.0,0.0,0.0,0.0,0.0,0.0,0.0,0.0,0.0,0.0,0.0,0.0,0.0,0.0,0.0,0.0,0.0,0.0,0.0,0.0,0.0,0.0,0.0,0.0,0.0,0.0,0.0,0.0,0.0,0.0,0.0,0.0,0.0,0.0,0.0,0.0,0.0,0.0,0.0,0.0,0.0,0.0,0.0,0.0,0.0,0.0,0.0,0.0,0.0,0.0,0.0,0.0,0.0,0.0,0.0,0.0,0.0,0.0,0.0,0.0,0.0,0.0,0.0,0.0,0.0,0.0,0.0,0.0,0.0,0.0,0.0,0.0,0.0,0.0,0.0,0.0,0.0,0.0,0.0,0.0,0.0,0.0,0.0,0.0,0.0,0.0,0.0,0.0,0.0,0.0,0.0,0.0,3.6471,3.8341,4.0252,4.1948,4.2121,4.243,0.0,0.0,0.0,0.0,0.0,0.0,0.0,0.0,0.0,0.0,0.0,0.0,0.0,0.0,0.0,0.0,0.0,0.0,0.0,0.0,0.0,0.0,0.0,0.0,0.0,0.0,0.0,0.0,0.0,0.0,0.0,0.0,0.0,0.0,0.0,0.0,0.0,0.0,0.0,0.0,0.0,0.0,0.0,0.0,0.0,0.0,0.0,0.0,0.0,0.0,0.0,0.0,0.0,0.0,0.0,0.0,0.0,0.0,0.0,0.0,0.0,0.0,0.0,0.0,0.0,0.0,0.0,0.0,0.0,0.0,0.0,0.0,0.0,0.0,0.0,0.0,0.0,0.0,0.0,0.0,0.0,0.0,0.0,0.0,0.0,0.0,0.0,0.0,0.0,0.0,0.0,0.0,0.0,0.0,0.0,0.0,0.0,0.0,0.0,0.0,0.0,0.0,0.0,0.0,0.0,0.0,0.0,0.0,0.0,0.0,3.8193,3.9395,4.1339,4.1074,4.1548,0.0,0.0,0.0,0.0,0.0,0.0,0.0,0.0,0.0,0.0,0.0,0.0,0.0,0.0,0.0,0.0,0.0,0.0,0.0,0.0,0.0,0.0,0.0,0.0,0.0,0.0,0.0,0.0,0.0,0.0,0.0,0.0,0.0,0.0,0.0,0.0,0.0,0.0,0.0,0.0,0.0,0.0,0.0,0.0,0.0,0.0,0.0,0.0,0.0,0.0,0.0,0.0,0.0,0.0,0.0,0.0,0.0,0.0,0.0,0.0,0.0,0.0,0.0,0.0,0.0,0.0,0.0,0.0,0.0,0.0,0.0,0.0,0.0,0.0,0.0,0.0,0.0,0.0,0.0,0.0,0.0,0.0,0.0,0.0,0.0,0.0,0.0,0.0,0.0,0.0,0.0,0.0,0.0,0.0,0.0,0.0,0.0,0.0,0.0,0.0,0.0,0.0,0.0,0.0,0.0,0.0,0.0,0.0,0.0,0.0,4.01,0.0,4.1351,4.1375,4.1897,4.2917,0.0,0.0,0.0,0.0,0.0,0.0,0.0,0.0,0.0,0.0,0.0,0.0,0.0,0.0,0.0,0.0,0.0,0.0,0.0,0.0,0.0,0.0,0.0,0.0,0.0,0.0,0.0,0.0,0.0,0.0,0.0,0.0,0.0,0.0,0.0,0.0,0.0,0.0,0.0,0.0,0.0,0.0,0.0,0.0,0.0,0.0,0.0,0.0,0.0,0.0,0.0,0.0,0.0,0.0,0.0,0.0,0.0,0.0,0.0,0.0,0.0,0.0,0.0,0.0,0.0,0.0,0.0,0.0,0.0,0.0,0.0,0.0,0.0,0.0,0.0,0.0,0.0,0.0,0.0,0.0,0.0,0.0,0.0,0.0,0.0,0.0,0.0,0.0,0.0,0.0,0.0,0.0,0.0,0.0,0.0,0.0,0.0,0.0,0.0,0.0,0.0,0.0,0.0,0.0,0.0,0.0,0.0,0.0,0.0,0.0,0.0,4.2033,4.1836,4.1994,0.0,0.0,0.0,0.0,0.0,0.0,0.0,0.0,0.0,0.0,0.0,0.0,0.0,0.0,0.0,0.0,0.0,0.0,0.0,0.0,0.0,0.0,0.0,0.0,0.0,0.0,0.0,0.0,0.0,0.0,0.0,0.0,0.0,0.0,0.0,0.0,0.0,0.0,0.0,0.0,0.0,0.0,0.0,0.0,0.0,0.0,0.0,0.0,0.0,0.0,0.0,0.0,0.0,0.0,0.0,0.0,0.0,0.0,0.0,0.0,0.0,0.0,0.0,0.0,0.0,0.0,0.0,0.0,0.0,0.0,0.0,0.0,0.0,0.0,0.0,0.0,0.0,0.0,0.0,0.0,0.0,0.0,0.0,0.0,0.0,0.0,0.0,0.0,0.0,0.0,0.0,0.0,0.0,0.0,0.0,0.0,0.0,0.0,0.0,0.0,0.0,0.0,0.0,0.0,0.0,0.0,0.0,0.0,0.0,0.0,0.0,4.2331,4.2692,4.2162,0.0,4.1786,0.0,0.0,0.0,0.0,0.0,0.0,0.0,0.0,0.0,0.0,0.0,0.0,0.0,0.0,0.0,0.0,0.0,0.0,0.0,0.0,0.0,0.0,0.0,0.0,0.0,0.0,0.0,0.0,0.0,0.0,0.0,0.0,0.0,0.0,0.0,0.0,0.0,0.0,0.0,0.0,0.0,0.0,0.0,0.0,0.0,0.0,0.0,0.0,0.0,0.0,0.0,0.0,0.0,0.0,0.0,0.0,0.0,0.0,0.0,0.0,0.0,0.0,0.0,0.0,0.0,0.0,0.0,0.0,0.0,0.0,0.0,0.0,0.0,0.0,0.0,0.0,0.0,0.0,0.0,0.0,0.0,0.0,0.0,0.0,0.0,0.0,0.0,0.0,0.0,0.0,0.0,0.0,0.0,0.0,0.0,0.0,0.0,0.0,0.0,0.0,0.0,0.0,0.0,0.0,0.0,0.0,0.0,0.0,0.0,0.0,0.0,0.0,4.1159,4.0964,4.0384,0.0,0.0,0.0,0.0,0.0,0.0,0.0,0.0,0.0,0.0,0.0,0.0,0.0,0.0,0.0,0.0,0.0,0.0,0.0,0.0,0.0,0.0,0.0,0.0,0.0,0.0,0.0,0.0,0.0,0.0,0.0,0.0,0.0,0.0,0.0,0.0,0.0,0.0,0.0,0.0,0.0,0.0,0.0,0.0,0.0,0.0,0.0,0.0,0.0,0.0,0.0,0.0,0.0,0.0,0.0,0.0,0.0,0.0,0.0,0.0,0.0,0.0,0.0,0.0,0.0,0.0,0.0,0.0,0.0,0.0,0.0,0.0,0.0,0.0,0.0,0.0,0.0,0.0,0.0,0.0,0.0,0.0,0.0,0.0,0.0,0.0,0.0,0.0,0.0,0.0,0.0,0.0,0.0,0.0,0.0,0.0,0.0,0.0,0.0,0.0,0.0,0.0,0.0,0.0,0.0,0.0,0.0,0.0,0.0,0.0,4.0913,4.0333,4.0203,4.0162,4.0179,0.0,0.0,0.0,0.0,0.0,0.0,0.0,0.0,0.0,0.0,0.0,0.0,0.0,0.0,0.0,0.0,0.0,0.0,0.0,0.0,0.0,0.0,0.0,0.0,0.0,0.0,0.0,0.0,0.0,0.0,0.0,0.0,0.0,0.0,0.0,0.0,0.0,0.0,0.0,0.0,0.0,0.0,0.0,0.0,0.0,0.0,0.0,0.0,0.0,0.0,0.0,0.0,0.0,0.0,0.0,0.0,0.0,0.0,0.0,0.0,0.0,0.0,0.0,0.0,0.0,0.0,0.0,0.0,0.0,0.0,0.0,0.0,0.0,0.0,0.0,0.0,0.0,0.0,0.0,0.0,0.0,0.0,0.0,0.0,0.0,0.0,0.0,0.0,0.0,0.0,0.0,0.0,0.0,0.0,0.0,0.0,0.0,0.0,0.0,0.0,0.0,0.0,0.0,0.0,0.0,0.0,0.0,0.0,0.0,0.0,0.0,0.0,0.0,0.0,4.0115,0.0,0.0,0.0,0.0,0.0,0.0,0.0,0.0,0.0,0.0,0.0,0.0,0.0,0.0,0.0,0.0,0.0,0.0,0.0,0.0,0.0,0.0,0.0,0.0,0.0,0.0,0.0,0.0,0.0,0.0,0.0,0.0,0.0,0.0,0.0,0.0,0.0,0.0,0.0,0.0,0.0,0.0,0.0,0.0,0.0,0.0,0.0,0.0,0.0,0.0,0.0,0.0,0.0,0.0,0.0,0.0,0.0,0.0,0.0,0.0,0.0,0.0,0.0,0.0,0.0,0.0,0.0,0.0,0.0,0.0,0.0,0.0,0.0,0.0,0.0,0.0,0.0,0.0,0.0,0.0,0.0,0.0,0.0,0.0,0.0,0.0,0.0,0.0,0.0,0.0,0.0,0.0,0.0,0.0,0.0,0.0,0.0,0.0,0.0,0.0,0.0,0.0,0.0,0.0,0.0,0.0,0.0,0.0,0.0,0.0,0.0,0.0,0.0,0.0,0.0,0.0,0.0,0.0,0.0,0.0,0.0,0.0,0.0,0.0,0.0,0.0,0.0,0.0,0.0,0.0,0.0,0.0,0.0,0.0,0.0,0.0,0.0,0.0,0.0,0.0,0.0,0.0,0.0,0.0,0.0,0.0,0.0,0.0,0.0,0.0,0.0,0.0,0.0,0.0,0.0,0.0,0.0,0.0,0.0,0.0,0.0,0.0,0.0,0.0,0.0,0.0,0.0,0.0,0.0,0.0,0.0,0.0,0.0,0.0,0.0,0.0,0.0,0.0,0.0,0.0,0.0,0.0,0.0,0.0,0.0,0.0,0.0,0.0,0.0,0.0,0.0,0.0,0.0,0.0,0.0,0.0,0.0,0.0,0.0,0.0,0.0,0.0,0.0,0.0,0.0,0.0,0.0,0.0,0.0,0.0,0.0,0.0,0.0,0.0,0.0,0.0,0.0,0.0,0.0,0.0,0.0,0.0,0.0,0.0,0.0,0.0,0.0,0.0,0.0,0.0,0.0,0.0,0.0,0.0,0.0,0.0,0.0,0.0,0.0,0.0,0.0,0.0,0.0,0.0,0.0,0.0,0.0,0.0,0.0,0.0,0.0,0.0,0.0,0.0,0.0,0.0,0.0,0.0,0.0,0.0,0.0,0.0,0.0,0.0,0.0,0.0,0.0,0.0,0.0,0.0,0.0,0.0,0.0,0.0,0.0,0.0,0.0,0.0,0.0,0.0,0.0,0.0,0.0,0.0,0.0,0.0,0.0,0.0,0.0,0.0,0.0,0.0,0.0,0.0,0.0,0.0,0.0,0.0,0.0,0.0,0.0,0.0,0.0,0.0,0.0,0.0,0.0,0.0,0.0,0.0,0.0,0.0,0.0,0.0,0.0,0.0,0.0,0.0,0.0,0.0,0.0,0.0,0.0,0.0,0.0,0.0,0.0,0.0,0.0,0.0,0.0,0.0,0.0,0.0,0.0,0.0,0.0,0.0,0.0,0.0,0.0,0.0,0.0,0.0,0.0,0.0,0.0,0.0,0.0,0.0,0.0,0.0,0.0,0.0,0.0,0.0,0.0,0.0,0.0,0.0,0.0,0.0,0.0,0.0,0.0,0.0,0.0,0.0,0.0,0.0,0.0,0.0,0.0,0.0,0.0,0.0,0.0,0.0,0.0,0.0,0.0,0.0,0.0,0.0,0.0,0.0,0.0,0.0,0.0,0.0,0.0,0.0,0.0,0.0,0.0,0.0,0.0,0.0,0.0,0.0,0.0,0.0,0.0,0.0,0.0,0.0,0.0,0.0,0.0,0.0,0.0,0.0,0.0,0.0,0.0,0.0,0.0,0.0,0.0,0.0,0.0,0.0,0.0,0.0,0.0,0.0,0.0,0.0,0.0,0.0,0.0,0.0,0.0,0.0,0.0,0.0,0.0,0.0,0.0,0.0,0.0,0.0,0.0,0.0,0.0,0.0,0.0,0.0,0.0,0.0,0.0,0.0,0.0,0.0,0.0,0.0,0.0,0.0,0.0,0.0,0.0,0.0,0.0,0.0,0.0,0.0,0.0,0.0,0.0,0.0,0.0,0.0,0.0,0.0,0.0,0.0,0.0,0.0,0.0,0.0,0.0,0.0,0.0,0.0,0.0,0.0,0.0,0.0,0.0,0.0,0.0,0.0,0.0,0.0,0.0,0.0,0.0,0.0,0.0,0.0,0.0,0.0,0.0,0.0,0.0,0.0,0.0,0.0,0.0,0.0,0.0,0.0,0.0,0.0,0.0,0.0,0.0,0.0,0.0,0.0,0.0,0.0,0.0,0.0,0.0,0.0,0.0,0.0,0.0,0.0,0.0,0.0,0.0,0.0,0.0,0.0,0.0,0.0,0.0,0.0,0.0,0.0,0.0,0.0,0.0,0.0,0.0,0.0,0.0,0.0,0.0,0.0,0.0,0.0,0.0,0.0,0.0,0.0,0.0,0.0,0.0,0.0,0.0,0.0,0.0,0.0,0.0,0.0,0.0,0.0,0.0,0.0,0.0,0.0,0.0,0.0,0.0,0.0,0.0,0.0,0.0,0.0,0.0,0.0,0.0,0.0,0.0,0.0,0.0,0.0,0.0,0.0,0.0,0.0,0.0,0.0,0.0,0.0,0.0,0.0,0.0,0.0,0.0,0.0,0.0,0.0,0.0,0.0,0.0,0.0,0.0,0.0,0.0,0.0,0.0,0.0,0.0,0.0,0.0,0.0,0.0,0.0,0.0,0.0,0.0,0.0,0.0,0.0,0.0,0.0,0.0,0.0,0.0,0.0,0.0,0.0,0.0,0.0,0.0,0.0,0.0,0.0,0.0,0.0,0.0,0.0,0.0,0.0,0.0,0.0,0.0,0.0,0.0,0.0,0.0,0.0,0.0,0.0,0.0,0.0,0.0,0.0,0.0,0.0,0.0,0.0,0.0,0.0,0.0,0.0,0.0,0.0,0.0,0.0,0.0,0.0,0.0,0.0,0.0,0.0,0.0,0.0,0.0,0.0,0.0,0.0,0.0,0.0,0.0,0.0,0.0,0.0,0.0,0.0,0.0,0.0,0.0,0.0,0.0,0.0,0.0,0.0,0.0,0.0,0.0,0.0,0.0,0.0,0.0,0.0,0.0,0.0,0.0,0.0,0.0,0.0,0.0,0.0,0.0,0.0,0.0,0.0,0.0,0.0,0.0,0.0,0.0,0.0,0.0,0.0,0.0,0.0,0.0,0.0,0.0,0.0,0.0,0.0,0.0,0.0,0.0,0.0,0.0,0.0,0.0,0.0,0.0,0.0,0.0,0.0,0.0,0.0,0.0,0.0,0.0,0.0,0.0,0.0,0.0,0.0,0.0,0.0,0.0,0.0,0.0,0.0,0.0,0.0,0.0,0.0,0.0,0.0,0.0,0.0,0.0,0.0,0.0,0.0,0.0,0.0,0.0,0.0,0.0,0.0,0.0,0.0,0.0,0.0,0.0,0.0,0.0,0.0,0.0,0.0,0.0,0.0,0.0,0.0,0.0,0.0,0.0,0.0,0.0,0.0,0.0,0.0,0.0,0.0,0.0,0.0,0.0,0.0,0.0,0.0,0.0,0.0,0.0,0.0,0.0,0.0,0.0,0.0,0.0,0.0,0.0,0.0,0.0,0.0,0.0,0.0,0.0,0.0,0.0,0.0,0.0,0.0,0.0,0.0,0.0,0.0,0.0,0.0,0.0,0.0,0.0,0.0,0.0,0.0,0.0,0.0,0.0,0.0,0.0,0.0,0.0,0.0,0.0,0.0,0.0,0.0,0.0,0.0,0.0,0.0,0.0,0.0,0.0,0.0,0.0,0.0,0.0,0.0,0.0,0.0,0.0,0.0,0.0,0.0,0.0,0.0,0.0,0.0,0.0,0.0,0.0,0.0,0.0,0.0,0.0,0.0,0.0,0.0,0.0,0.0,0.0,0.0,0.0,0.0,0.0,0.0,0.0,0.0,0.0,0.0,0.0,0.0,0.0,0.0,0.0,0.0,0.0,0.0,0.0,0.0,0.0,0.0,0.0,0.0,0.0,0.0,0.0,0.0,0.0,0.0,0.0,0.0,0.0,0.0,0.0,0.0,0.0,0.0,0.0,0.0,0.0,0.0,0.0,0.0,0.0,0.0,0.0,0.0,0.0,0.0,0.0,0.0,0.0,0.0,0.0,0.0,0.0,0.0,0.0,0.0,0.0,0.0,0.0,0.0,0.0,0.0,0.0,0.0,0.0,0.0,0.0,0.0,0.0,0.0,0.0,0.0,0.0,0.0,0.0,0.0,0.0,0.0,0.0,0.0,0.0,0.0,0.0,0.0,0.0,0.0,0.0,0.0,0.0,0.0]}]]]